<?xml version='1.0' encoding='UTF-8'?><gpx version="1.1" creator="JPX - https://github.com/jenetics/jpx" xmlns="http://www.topografix.com/GPX/1/1"><trk><trkseg><trkpt lat="49.712828960322554" lon="19.97836696933307"><ele>381.4</ele><time>2026-05-06T08:15:58Z</time></trkpt><trkpt lat="49.71275944583608" lon="19.97828245102275"><ele>381.8</ele><time>2026-05-06T08:16:04Z</time></trkpt><trkpt lat="49.71271903386414" lon="19.978178364558257"><ele>382.2</ele><time>2026-05-06T08:16:06Z</time></trkpt><trkpt lat="49.71266686851364" lon="19.97804929795156"><ele>382.59999999999997</ele><time>2026-05-06T08:16:08Z</time></trkpt><trkpt lat="49.71260884290549" lon="19.977888949389758"><ele>383.0</ele><time>2026-05-06T08:16:10Z</time></trkpt><trkpt lat="49.71253700231475" lon="19.97774039055565"><ele>383.0</ele><time>2026-05-06T08:16:12Z</time></trkpt><trkpt lat="49.712463195055165" lon="19.977601766149366"><ele>383.0</ele><time>2026-05-06T08:16:14Z</time></trkpt><trkpt lat="49.7123845140369" lon="19.977455307647123"><ele>383.0</ele><time>2026-05-06T08:16:16Z</time></trkpt><trkpt lat="49.71234306887595" lon="19.977379924912178"><ele>383.0</ele><time>2026-05-06T08:16:17Z</time></trkpt><trkpt lat="49.71230219256537" lon="19.97730392347418"><ele>383.0</ele><time>2026-05-06T08:16:18Z</time></trkpt><trkpt lat="49.71222694713487" lon="19.9771513041982"><ele>382.6666666666667</ele><time>2026-05-06T08:16:20Z</time></trkpt><trkpt lat="49.712189231418854" lon="19.977067622894506"><ele>382.33333333333337</ele><time>2026-05-06T08:16:21Z</time></trkpt><trkpt lat="49.71211581469501" lon="19.976926350456395"><ele>382.0</ele><time>2026-05-06T08:16:23Z</time></trkpt><trkpt lat="49.71202711567696" lon="19.976789258859334"><ele>381.6666666666667</ele><time>2026-05-06T08:16:25Z</time></trkpt><trkpt lat="49.71198065850404" lon="19.97671907254196"><ele>381.3333333333333</ele><time>2026-05-06T08:16:26Z</time></trkpt><trkpt lat="49.71192900379018" lon="19.976650546580824"><ele>381.0</ele><time>2026-05-06T08:16:27Z</time></trkpt><trkpt lat="49.71188022217771" lon="19.97658290990918"><ele>381.57142857142856</ele><time>2026-05-06T08:16:28Z</time></trkpt><trkpt lat="49.711825815723444" lon="19.976519619359276"><ele>382.14285714285717</ele><time>2026-05-06T08:16:29Z</time></trkpt><trkpt lat="49.71177127043344" lon="19.976453226680345"><ele>382.7142857142857</ele><time>2026-05-06T08:16:30Z</time></trkpt><trkpt lat="49.71171872402331" lon="19.976387196948963"><ele>383.2857142857143</ele><time>2026-05-06T08:16:31Z</time></trkpt><trkpt lat="49.71166366335713" lon="19.97632108148225"><ele>383.8571428571429</ele><time>2026-05-06T08:16:32Z</time></trkpt><trkpt lat="49.71160780996708" lon="19.976258070124576"><ele>384.42857142857144</ele><time>2026-05-06T08:16:33Z</time></trkpt><trkpt lat="49.71155262677121" lon="19.976194648534374"><ele>385.0</ele><time>2026-05-06T08:16:34Z</time></trkpt><trkpt lat="49.711490671743896" lon="19.976139270454983"><ele>385.0</ele><time>2026-05-06T08:16:35Z</time></trkpt><trkpt lat="49.711429382473206" lon="19.976078127943797"><ele>385.0</ele><time>2026-05-06T08:16:36Z</time></trkpt><trkpt lat="49.71137323199795" lon="19.97600511773159"><ele>385.0</ele><time>2026-05-06T08:16:37Z</time></trkpt><trkpt lat="49.711317302746174" lon="19.975946078287144"><ele>385.0</ele><time>2026-05-06T08:16:38Z</time></trkpt><trkpt lat="49.71125775577142" lon="19.975892732646024"><ele>385.0</ele><time>2026-05-06T08:16:39Z</time></trkpt><trkpt lat="49.71119727485185" lon="19.97584346857077"><ele>385.0</ele><time>2026-05-06T08:16:40Z</time></trkpt><trkpt lat="49.71113865726693" lon="19.975797837741744"><ele>385.0</ele><time>2026-05-06T08:16:41Z</time></trkpt><trkpt lat="49.71107808242986" lon="19.975752109816185"><ele>385.1666666666667</ele><time>2026-05-06T08:16:42Z</time></trkpt><trkpt lat="49.71097313862244" lon="19.975646948680602"><ele>385.33333333333337</ele><time>2026-05-06T08:16:44Z</time></trkpt><trkpt lat="49.71091206269823" lon="19.975604717371123"><ele>385.5</ele><time>2026-05-06T08:16:45Z</time></trkpt><trkpt lat="49.71084868800857" lon="19.97555484797671"><ele>385.66666666666663</ele><time>2026-05-06T08:16:46Z</time></trkpt><trkpt lat="49.71078293697715" lon="19.97551091802175"><ele>385.8333333333333</ele><time>2026-05-06T08:16:47Z</time></trkpt><trkpt lat="49.71071607261942" lon="19.97547798374824"><ele>386.0</ele><time>2026-05-06T08:16:48Z</time></trkpt><trkpt lat="49.71065029960102" lon="19.975441383291184"><ele>385.99999999999994</ele><time>2026-05-06T08:16:49Z</time></trkpt><trkpt lat="49.71058718081534" lon="19.975407363115437"><ele>386.0</ele><time>2026-05-06T08:16:50Z</time></trkpt><trkpt lat="49.71052259998345" lon="19.97537856779411"><ele>386.0</ele><time>2026-05-06T08:16:50.999Z</time></trkpt><trkpt lat="49.71041834567078" lon="19.975319271040963"><ele>386.0</ele><time>2026-05-06T08:16:52.999Z</time></trkpt><trkpt lat="49.71033009868975" lon="19.975284470290966"><ele>385.99999999999994</ele><time>2026-05-06T08:16:54.999Z</time></trkpt><trkpt lat="49.7102349788453" lon="19.975298809498575"><ele>386.0</ele><time>2026-05-06T08:16:56.999Z</time></trkpt><trkpt lat="49.71016557008897" lon="19.97544259322283"><ele>387.66666666666663</ele><time>2026-05-06T08:16:58.999Z</time></trkpt><trkpt lat="49.7101422889364" lon="19.97554697581766"><ele>389.3333333333333</ele><time>2026-05-06T08:16:59.999Z</time></trkpt><trkpt lat="49.71010173463793" lon="19.975651660890478"><ele>391.0</ele><time>2026-05-06T08:17:00.999Z</time></trkpt><trkpt lat="49.710070559849186" lon="19.97574720536596"><ele>392.66666666666663</ele><time>2026-05-06T08:17:01.999Z</time></trkpt><trkpt lat="49.71003104075165" lon="19.97582951900845"><ele>394.3333333333333</ele><time>2026-05-06T08:17:02.999Z</time></trkpt><trkpt lat="49.709945368604394" lon="19.97594576010428"><ele>396.0</ele><time>2026-05-06T08:17:04.999Z</time></trkpt><trkpt lat="49.709871135084214" lon="19.976055146678384"><ele>397.4</ele><time>2026-05-06T08:17:06.999Z</time></trkpt><trkpt lat="49.70980297939147" lon="19.976132109578217"><ele>398.8</ele><time>2026-05-06T08:17:08.999Z</time></trkpt><trkpt lat="49.70971520176048" lon="19.976207625875283"><ele>400.2</ele><time>2026-05-06T08:17:10.999Z</time></trkpt><trkpt lat="49.70963096220361" lon="19.976260878603878"><ele>401.59999999999997</ele><time>2026-05-06T08:17:12.999Z</time></trkpt><trkpt lat="49.70952604244691" lon="19.976338328888172"><ele>403.0</ele><time>2026-05-06T08:17:14.999Z</time></trkpt><trkpt lat="49.70941557472544" lon="19.976440370438247"><ele>407.25</ele><time>2026-05-06T08:17:16.999Z</time></trkpt><trkpt lat="49.709321725138494" lon="19.97657873535917"><ele>411.5</ele><time>2026-05-06T08:17:18.999Z</time></trkpt><trkpt lat="49.709249345361165" lon="19.976719619243866"><ele>415.75</ele><time>2026-05-06T08:17:20.999Z</time></trkpt><trkpt lat="49.70921243551727" lon="19.976842816699712"><ele>420.0</ele><time>2026-05-06T08:17:22.999Z</time></trkpt><trkpt lat="49.709183892506" lon="19.977017492113593"><ele>421.6</ele><time>2026-05-06T08:17:24.999Z</time></trkpt><trkpt lat="49.709146354405334" lon="19.97718249139076"><ele>423.2</ele><time>2026-05-06T08:17:26.999Z</time></trkpt><trkpt lat="49.70911361981734" lon="19.97733958690176"><ele>424.79999999999995</ele><time>2026-05-06T08:17:28.999Z</time></trkpt><trkpt lat="49.709042576666285" lon="19.977465418441437"><ele>426.4</ele><time>2026-05-06T08:17:30.999Z</time></trkpt><trkpt lat="49.708974444378214" lon="19.977596974435993"><ele>428.0</ele><time>2026-05-06T08:17:32.999Z</time></trkpt><trkpt lat="49.70891176159185" lon="19.97774771438504"><ele>430.4</ele><time>2026-05-06T08:17:34.999Z</time></trkpt><trkpt lat="49.70885170355569" lon="19.97790845634159"><ele>432.79999999999995</ele><time>2026-05-06T08:17:36.999Z</time></trkpt><trkpt lat="49.70879680142706" lon="19.978057903725492"><ele>435.2</ele><time>2026-05-06T08:17:38.999Z</time></trkpt><trkpt lat="49.7087412635261" lon="19.97822339460683"><ele>437.6</ele><time>2026-05-06T08:17:40.999Z</time></trkpt><trkpt lat="49.70869976404986" lon="19.978301497470436"><ele>440.0</ele><time>2026-05-06T08:17:41.999Z</time></trkpt><trkpt lat="49.70862519049425" lon="19.97843319673125"><ele>442.2</ele><time>2026-05-06T08:17:43.999Z</time></trkpt><trkpt lat="49.70859276227912" lon="19.978517332599647"><ele>444.4</ele><time>2026-05-06T08:17:44.999Z</time></trkpt><trkpt lat="49.708560408690325" lon="19.97865010369597"><ele>446.6</ele><time>2026-05-06T08:17:46.999Z</time></trkpt><trkpt lat="49.708508039111415" lon="19.978798314317874"><ele>448.8</ele><time>2026-05-06T08:17:48.999Z</time></trkpt><trkpt lat="49.70845797885261" lon="19.978945066831066"><ele>451.0</ele><time>2026-05-06T08:17:50.999Z</time></trkpt><trkpt lat="49.70841714657383" lon="19.97905640804964"><ele>455.0</ele><time>2026-05-06T08:17:52.999Z</time></trkpt><trkpt lat="49.70836508111154" lon="19.97920622773617"><ele>459.0</ele><time>2026-05-06T08:17:54.999Z</time></trkpt><trkpt lat="49.70830747610796" lon="19.979274553043957"><ele>463.0</ele><time>2026-05-06T08:17:55.999Z</time></trkpt><trkpt lat="49.708275712682926" lon="19.979416703546708"><ele>467.0</ele><time>2026-05-06T08:17:59Z</time></trkpt><trkpt lat="49.70822637353203" lon="19.979561594374015"><ele>471.0</ele><time>2026-05-06T08:18:01Z</time></trkpt><trkpt lat="49.708161139533004" lon="19.979715268513583"><ele>471.0</ele><time>2026-05-06T08:18:03Z</time></trkpt><trkpt lat="49.7081000256448" lon="19.97986959250351"><ele>471.0</ele><time>2026-05-06T08:18:05Z</time></trkpt><trkpt lat="49.70805394955869" lon="19.979949101383518"><ele>471.0</ele><time>2026-05-06T08:18:06Z</time></trkpt><trkpt lat="49.70799515752608" lon="19.980072875860284"><ele>471.0</ele><time>2026-05-06T08:18:08Z</time></trkpt><trkpt lat="49.707946001339714" lon="19.980184441583418"><ele>471.0</ele><time>2026-05-06T08:18:10Z</time></trkpt><trkpt lat="49.707927744612846" lon="19.98029312587677"><ele>471.0</ele><time>2026-05-06T08:18:12Z</time></trkpt><trkpt lat="49.707891432465075" lon="19.98040263741408"><ele>470.20000000000005</ele><time>2026-05-06T08:18:14Z</time></trkpt><trkpt lat="49.70785462396274" lon="19.980512314867987"><ele>469.40000000000003</ele><time>2026-05-06T08:18:16Z</time></trkpt><trkpt lat="49.707818465321665" lon="19.98062393085515"><ele>468.6</ele><time>2026-05-06T08:18:18Z</time></trkpt><trkpt lat="49.70779866219149" lon="19.980733229484173"><ele>467.8</ele><time>2026-05-06T08:18:20Z</time></trkpt><trkpt lat="49.70775846970028" lon="19.980891274231222"><ele>467.0</ele><time>2026-05-06T08:18:22Z</time></trkpt><trkpt lat="49.707714706891885" lon="19.981046548238886"><ele>464.5</ele><time>2026-05-06T08:18:24Z</time></trkpt><trkpt lat="49.70763594217937" lon="19.981205145557936"><ele>462.0</ele><time>2026-05-06T08:18:26Z</time></trkpt><trkpt lat="49.70756409099721" lon="19.98138747170846"><ele>459.5</ele><time>2026-05-06T08:18:28Z</time></trkpt><trkpt lat="49.707528846234794" lon="19.98147864611378"><ele>457.0</ele><time>2026-05-06T08:18:29Z</time></trkpt><trkpt lat="49.70747527249755" lon="19.981643904518165"><ele>455.40000000000003</ele><time>2026-05-06T08:18:31Z</time></trkpt><trkpt lat="49.707447218153966" lon="19.98181816889658"><ele>453.80000000000007</ele><time>2026-05-06T08:18:33Z</time></trkpt><trkpt lat="49.7074238862581" lon="19.98199465390959"><ele>452.2</ele><time>2026-05-06T08:18:35Z</time></trkpt><trkpt lat="49.707400298771724" lon="19.98214367829006"><ele>450.6</ele><time>2026-05-06T08:18:37Z</time></trkpt><trkpt lat="49.70735687780401" lon="19.982302217874892"><ele>449.0</ele><time>2026-05-06T08:18:39Z</time></trkpt><trkpt lat="49.707305734303496" lon="19.982430194555686"><ele>450.49999999999994</ele><time>2026-05-06T08:18:41Z</time></trkpt><trkpt lat="49.70727149841204" lon="19.982533678528558"><ele>452.0</ele><time>2026-05-06T08:18:42Z</time></trkpt><trkpt lat="49.707236296603206" lon="19.98262482028097"><ele>453.5</ele><time>2026-05-06T08:18:43Z</time></trkpt><trkpt lat="49.707182213241666" lon="19.982687731558535"><ele>455.0</ele><time>2026-05-06T08:18:44Z</time></trkpt><trkpt lat="49.70712633857826" lon="19.982743723199828"><ele>456.49999999999994</ele><time>2026-05-06T08:18:45Z</time></trkpt><trkpt lat="49.707014300223086" lon="19.982781175638625"><ele>458.0</ele><time>2026-05-06T08:18:47Z</time></trkpt><trkpt lat="49.70685734037697" lon="19.982823664056216"><ele>459.49999999999994</ele><time>2026-05-06T08:18:49Z</time></trkpt><trkpt lat="49.706792724449485" lon="19.982819858594706"><ele>461.0</ele><time>2026-05-06T08:18:49.999Z</time></trkpt><trkpt lat="49.70669053083668" lon="19.982828365261746"><ele>462.5</ele><time>2026-05-06T08:18:51.999Z</time></trkpt><trkpt lat="49.706606585356084" lon="19.982795849786772"><ele>464.0</ele><time>2026-05-06T08:18:52.999Z</time></trkpt><trkpt lat="49.7065314517427" lon="19.9827896357447"><ele>465.49999999999994</ele><time>2026-05-06T08:18:53.999Z</time></trkpt><trkpt lat="49.706445614346414" lon="19.98281660375284"><ele>467.0</ele><time>2026-05-06T08:18:55.999Z</time></trkpt><trkpt lat="49.706371982763756" lon="19.982864590285672"><ele>466.99999999999994</ele><time>2026-05-06T08:18:57.999Z</time></trkpt><trkpt lat="49.70629619016191" lon="19.982844618682385"><ele>467.0</ele><time>2026-05-06T08:18:59.999Z</time></trkpt><trkpt lat="49.706224328150526" lon="19.98290583227578"><ele>467.0</ele><time>2026-05-06T08:19:01.999Z</time></trkpt><trkpt lat="49.706138289857904" lon="19.982923240992577"><ele>467.0</ele><time>2026-05-06T08:19:03.999Z</time></trkpt><trkpt lat="49.70606933284561" lon="19.982967507770972"><ele>466.99999999999994</ele><time>2026-05-06T08:19:05.999Z</time></trkpt><trkpt lat="49.706011575538156" lon="19.982910095656127"><ele>467.0</ele><time>2026-05-06T08:19:07.999Z</time></trkpt><trkpt lat="49.70594873271584" lon="19.98281886233301"><ele>467.66666666666663</ele><time>2026-05-06T08:19:10.999Z</time></trkpt><trkpt lat="49.70587727187292" lon="19.982817109747387"><ele>468.3333333333333</ele><time>2026-05-06T08:19:12.999Z</time></trkpt><trkpt lat="49.70581050164905" lon="19.98286101278747"><ele>469.0</ele><time>2026-05-06T08:19:16.999Z</time></trkpt><trkpt lat="49.70573586577963" lon="19.98290198560381"><ele>469.66666666666663</ele><time>2026-05-06T08:19:21.999Z</time></trkpt><trkpt lat="49.705662837715124" lon="19.982893979947832"><ele>470.3333333333333</ele><time>2026-05-06T08:19:23.999Z</time></trkpt><trkpt lat="49.70558627385739" lon="19.982970093397483"><ele>471.0</ele><time>2026-05-06T08:19:26.999Z</time></trkpt><trkpt lat="49.70551483605685" lon="19.982923132394493"><ele>471.0</ele><time>2026-05-06T08:19:34.999Z</time></trkpt><trkpt lat="49.70545198648107" lon="19.982932999000905"><ele>471.0</ele><time>2026-05-06T08:19:36.999Z</time></trkpt><trkpt lat="49.70538713216217" lon="19.982969714590762"><ele>471.0</ele><time>2026-05-06T08:19:47.999Z</time></trkpt><trkpt lat="49.70533963987955" lon="19.983090381133376"><ele>471.0</ele><time>2026-05-06T08:19:51.999Z</time></trkpt><trkpt lat="49.70527175392944" lon="19.983110193241735"><ele>471.0</ele><time>2026-05-06T08:19:53.999Z</time></trkpt><trkpt lat="49.70520783893386" lon="19.983043898863937"><ele>471.0</ele><time>2026-05-06T08:19:56.999Z</time></trkpt><trkpt lat="49.70512470485604" lon="19.983067536978428"><ele>471.20000000000005</ele><time>2026-05-06T08:19:59.999Z</time></trkpt><trkpt lat="49.70503906892534" lon="19.98303123480104"><ele>471.40000000000003</ele><time>2026-05-06T08:20:02.999Z</time></trkpt><trkpt lat="49.70496282274271" lon="19.9830619081275"><ele>471.6</ele><time>2026-05-06T08:20:05Z</time></trkpt><trkpt lat="49.70487636062929" lon="19.983046755187466"><ele>471.8</ele><time>2026-05-06T08:20:07Z</time></trkpt><trkpt lat="49.70479924789219" lon="19.983159787918396"><ele>472.0</ele><time>2026-05-06T08:20:10Z</time></trkpt><trkpt lat="49.704704423031345" lon="19.983177167992597"><ele>472.00000000000006</ele><time>2026-05-06T08:20:12Z</time></trkpt><trkpt lat="49.70462126782095" lon="19.983164325714103"><ele>472.0</ele><time>2026-05-06T08:20:19Z</time></trkpt><trkpt lat="49.70455729361479" lon="19.983135923509387"><ele>472.0</ele><time>2026-05-06T08:20:23Z</time></trkpt><trkpt lat="49.704483633270726" lon="19.983167185316397"><ele>472.0</ele><time>2026-05-06T08:20:25Z</time></trkpt><trkpt lat="49.7044233537448" lon="19.98322423794159"><ele>472.00000000000006</ele><time>2026-05-06T08:20:27Z</time></trkpt><trkpt lat="49.70437063453712" lon="19.98327828435049"><ele>472.0</ele><time>2026-05-06T08:20:30Z</time></trkpt><trkpt lat="49.70428046876745" lon="19.98329316822007"><ele>476.50000000000006</ele><time>2026-05-06T08:20:33Z</time></trkpt><trkpt lat="49.704284695836044" lon="19.983397158603015"><ele>481.0</ele><time>2026-05-06T08:20:34Z</time></trkpt><trkpt lat="49.70419406563505" lon="19.983423782219717"><ele>485.5</ele><time>2026-05-06T08:20:37Z</time></trkpt><trkpt lat="49.704100888343184" lon="19.983423836628187"><ele>490.0</ele><time>2026-05-06T08:20:39Z</time></trkpt><trkpt lat="49.70398806872717" lon="19.983416614090473"><ele>494.50000000000006</ele><time>2026-05-06T08:20:41Z</time></trkpt><trkpt lat="49.70392314868831" lon="19.983417424659407"><ele>499.0</ele><time>2026-05-06T08:20:43Z</time></trkpt><trkpt lat="49.70384219617073" lon="19.983428346615025"><ele>499.00000000000006</ele><time>2026-05-06T08:20:45Z</time></trkpt><trkpt lat="49.70375872943018" lon="19.98349204111976"><ele>499.0</ele><time>2026-05-06T08:20:49Z</time></trkpt><trkpt lat="49.7037253798638" lon="19.983600807529747"><ele>499.0</ele><time>2026-05-06T08:20:52Z</time></trkpt><trkpt lat="49.70365614862049" lon="19.98365453913369"><ele>499.0</ele><time>2026-05-06T08:20:55Z</time></trkpt><trkpt lat="49.703592242307955" lon="19.983660214423843"><ele>499.00000000000006</ele><time>2026-05-06T08:20:57Z</time></trkpt><trkpt lat="49.70352315887572" lon="19.983659069682876"><ele>499.0</ele><time>2026-05-06T08:20:58.999Z</time></trkpt><trkpt lat="49.70345228836487" lon="19.983630844426514"><ele>499.33333333333337</ele><time>2026-05-06T08:21:02.999Z</time></trkpt><trkpt lat="49.70339904642566" lon="19.983707619683276"><ele>499.6666666666667</ele><time>2026-05-06T08:21:11.999Z</time></trkpt><trkpt lat="49.70337293255988" lon="19.983842534011576"><ele>500.0</ele><time>2026-05-06T08:21:15.999Z</time></trkpt><trkpt lat="49.70331897817718" lon="19.983963244673674"><ele>500.33333333333337</ele><time>2026-05-06T08:21:18.999Z</time></trkpt><trkpt lat="49.703244925908194" lon="19.984051505131458"><ele>500.6666666666667</ele><time>2026-05-06T08:21:20.999Z</time></trkpt><trkpt lat="49.70316282049261" lon="19.984047764819792"><ele>501.0</ele><time>2026-05-06T08:21:22.999Z</time></trkpt><trkpt lat="49.7030986215028" lon="19.984024543078466"><ele>501.0</ele><time>2026-05-06T08:21:25.999Z</time></trkpt><trkpt lat="49.703065746165336" lon="19.98413979235893"><ele>501.0</ele><time>2026-05-06T08:21:27.999Z</time></trkpt><trkpt lat="49.70299436105896" lon="19.98416366920634"><ele>501.0</ele><time>2026-05-06T08:21:30.999Z</time></trkpt><trkpt lat="49.70295311421676" lon="19.984254658067275"><ele>501.0</ele><time>2026-05-06T08:21:32.999Z</time></trkpt><trkpt lat="49.70289250592197" lon="19.984308174525687"><ele>501.0</ele><time>2026-05-06T08:21:33.999Z</time></trkpt><trkpt lat="49.702826451568505" lon="19.98429921317938"><ele>501.0</ele><time>2026-05-06T08:21:34.999Z</time></trkpt><trkpt lat="49.70275295672315" lon="19.984291779912752"><ele>501.0</ele><time>2026-05-06T08:21:37.999Z</time></trkpt><trkpt lat="49.702719015386215" lon="19.984375354383676"><ele>503.6666666666667</ele><time>2026-05-06T08:21:52.999Z</time></trkpt><trkpt lat="49.70275166089963" lon="19.984467553643167"><ele>506.33333333333337</ele><time>2026-05-06T08:21:53.999Z</time></trkpt><trkpt lat="49.702785543543904" lon="19.984555962830143"><ele>509.0</ele><time>2026-05-06T08:21:55.999Z</time></trkpt><trkpt lat="49.70280205757562" lon="19.984672568248907"><ele>511.6666666666667</ele><time>2026-05-06T08:21:57.999Z</time></trkpt><trkpt lat="49.70284677554277" lon="19.984745005116377"><ele>514.3333333333334</ele><time>2026-05-06T08:21:59.999Z</time></trkpt><trkpt lat="49.702912770597166" lon="19.984830377841703"><ele>517.0</ele><time>2026-05-06T08:22:01.999Z</time></trkpt><trkpt lat="49.702982034872484" lon="19.984945257968683"><ele>519.6</ele><time>2026-05-06T08:22:03.999Z</time></trkpt><trkpt lat="49.703062516582364" lon="19.985032406434236"><ele>522.2</ele><time>2026-05-06T08:22:05.999Z</time></trkpt><trkpt lat="49.70309209852114" lon="19.985204584660174"><ele>524.8</ele><time>2026-05-06T08:22:07.999Z</time></trkpt><trkpt lat="49.703141404598355" lon="19.98529712940597"><ele>527.4</ele><time>2026-05-06T08:22:08.999Z</time></trkpt><trkpt lat="49.70311728967235" lon="19.98539486150856"><ele>530.0</ele><time>2026-05-06T08:22:10Z</time></trkpt><trkpt lat="49.7031242405739" lon="19.985554950288023"><ele>530.0</ele><time>2026-05-06T08:22:12Z</time></trkpt><trkpt lat="49.7031557916788" lon="19.985771287674105"><ele>530.0</ele><time>2026-05-06T08:22:14Z</time></trkpt><trkpt lat="49.70315260810176" lon="19.98587747371677"><ele>530.0</ele><time>2026-05-06T08:22:15Z</time></trkpt><trkpt lat="49.70314717868363" lon="19.98601652136697"><ele>530.0</ele><time>2026-05-06T08:22:17Z</time></trkpt><trkpt lat="49.703143944824326" lon="19.98611919746916"><ele>530.0</ele><time>2026-05-06T08:22:18Z</time></trkpt><trkpt lat="49.70313063949361" lon="19.986226632457875"><ele>530.0</ele><time>2026-05-06T08:22:19Z</time></trkpt><trkpt lat="49.70310491462073" lon="19.986328981087315"><ele>530.1666666666666</ele><time>2026-05-06T08:22:20Z</time></trkpt><trkpt lat="49.703102144810124" lon="19.98647431738067"><ele>530.3333333333333</ele><time>2026-05-06T08:22:21Z</time></trkpt><trkpt lat="49.70311710360836" lon="19.986615630710975"><ele>530.5</ele><time>2026-05-06T08:22:22Z</time></trkpt><trkpt lat="49.70312981331891" lon="19.98674937970796"><ele>530.6666666666666</ele><time>2026-05-06T08:22:23Z</time></trkpt><trkpt lat="49.7031703056136" lon="19.98688725429972"><ele>530.8333333333334</ele><time>2026-05-06T08:22:25Z</time></trkpt><trkpt lat="49.70321681447728" lon="19.98696444094403"><ele>531.0</ele><time>2026-05-06T08:22:27Z</time></trkpt><trkpt lat="49.70323953970538" lon="19.987055873716944"><ele>531.0</ele><time>2026-05-06T08:22:29Z</time></trkpt><trkpt lat="49.703251733878915" lon="19.987161394562996"><ele>531.0</ele><time>2026-05-06T08:22:31Z</time></trkpt><trkpt lat="49.70322970020304" lon="19.987280313163993"><ele>531.0</ele><time>2026-05-06T08:22:37Z</time></trkpt><trkpt lat="49.7032284899669" lon="19.987408102461725"><ele>531.0</ele><time>2026-05-06T08:22:40Z</time></trkpt><trkpt lat="49.70322403669" lon="19.987529150647266"><ele>531.0</ele><time>2026-05-06T08:22:42Z</time></trkpt><trkpt lat="49.70319248381242" lon="19.98764100930167"><ele>531.0</ele><time>2026-05-06T08:22:44Z</time></trkpt><trkpt lat="49.70320325808651" lon="19.987800162810874"><ele>529.5</ele><time>2026-05-06T08:22:46Z</time></trkpt><trkpt lat="49.70316426724401" lon="19.987882442624855"><ele>528.0</ele><time>2026-05-06T08:22:47Z</time></trkpt><trkpt lat="49.7031299331525" lon="19.988047948176018"><ele>526.5</ele><time>2026-05-06T08:22:49Z</time></trkpt><trkpt lat="49.703084049326336" lon="19.988175956170018"><ele>525.0</ele><time>2026-05-06T08:22:51Z</time></trkpt><trkpt lat="49.70304083075548" lon="19.98832691017953"><ele>523.5</ele><time>2026-05-06T08:22:53Z</time></trkpt><trkpt lat="49.70303559452036" lon="19.988429546792023"><ele>522.0</ele><time>2026-05-06T08:22:54Z</time></trkpt><trkpt lat="49.702987234106885" lon="19.988588372043417"><ele>521.0</ele><time>2026-05-06T08:22:56Z</time></trkpt><trkpt lat="49.70295526361443" lon="19.988679245186777"><ele>520.0</ele><time>2026-05-06T08:22:57Z</time></trkpt><trkpt lat="49.70296892196967" lon="19.988869742171847"><ele>519.0</ele><time>2026-05-06T08:22:59Z</time></trkpt><trkpt lat="49.702956214510614" lon="19.988969791931666"><ele>518.0</ele><time>2026-05-06T08:23:00Z</time></trkpt><trkpt lat="49.702914341271295" lon="19.98916238148107"><ele>517.0</ele><time>2026-05-06T08:23:02Z</time></trkpt><trkpt lat="49.702934933711894" lon="19.98927896805206"><ele>516.2</ele><time>2026-05-06T08:23:03Z</time></trkpt><trkpt lat="49.70292387389309" lon="19.989402154472124"><ele>515.4000000000001</ele><time>2026-05-06T08:23:04Z</time></trkpt><trkpt lat="49.702907091571184" lon="19.98960033038294"><ele>514.5999999999999</ele><time>2026-05-06T08:23:06Z</time></trkpt><trkpt lat="49.70290079923543" lon="19.98977769916892"><ele>513.8</ele><time>2026-05-06T08:23:08Z</time></trkpt><trkpt lat="49.702898373755545" lon="19.989924237098876"><ele>513.0</ele><time>2026-05-06T08:23:09.999Z</time></trkpt><trkpt lat="49.702906114269915" lon="19.990043565360494"><ele>512.6666666666666</ele><time>2026-05-06T08:23:11.999Z</time></trkpt><trkpt lat="49.70287529217682" lon="19.99017700347827"><ele>512.3333333333334</ele><time>2026-05-06T08:23:13.999Z</time></trkpt><trkpt lat="49.702870161608274" lon="19.990284187694193"><ele>512.0</ele><time>2026-05-06T08:23:15.999Z</time></trkpt><trkpt lat="49.702879998583924" lon="19.990418574261632"><ele>511.6666666666667</ele><time>2026-05-06T08:23:18.999Z</time></trkpt><trkpt lat="49.70287411393883" lon="19.990525296198612"><ele>511.33333333333337</ele><time>2026-05-06T08:23:21.999Z</time></trkpt><trkpt lat="49.702884986813146" lon="19.99062577455765"><ele>511.0</ele><time>2026-05-06T08:23:24.999Z</time></trkpt><trkpt lat="49.70288339757245" lon="19.9907770503141"><ele>511.4</ele><time>2026-05-06T08:23:26.999Z</time></trkpt><trkpt lat="49.70284822897008" lon="19.990932370774633"><ele>511.8</ele><time>2026-05-06T08:23:28.999Z</time></trkpt><trkpt lat="49.702830590631564" lon="19.99107445718991"><ele>512.1999999999999</ele><time>2026-05-06T08:23:30.999Z</time></trkpt><trkpt lat="49.70280279697712" lon="19.991198858495444"><ele>512.6</ele><time>2026-05-06T08:23:32.999Z</time></trkpt><trkpt lat="49.702789831581484" lon="19.991294743142333"><ele>513.0</ele><time>2026-05-06T08:23:33.999Z</time></trkpt><trkpt lat="49.70281719699772" lon="19.99144693205776"><ele>513.0</ele><time>2026-05-06T08:23:35.999Z</time></trkpt><trkpt lat="49.70279430406789" lon="19.99159459719992"><ele>513.0</ele><time>2026-05-06T08:23:37.999Z</time></trkpt><trkpt lat="49.702785968963006" lon="19.991731273268062"><ele>513.0</ele><time>2026-05-06T08:23:38.999Z</time></trkpt><trkpt lat="49.702838405892905" lon="19.991814618985668"><ele>513.0</ele><time>2026-05-06T08:23:39.999Z</time></trkpt><trkpt lat="49.70281934641184" lon="19.991952568126873"><ele>513.0</ele><time>2026-05-06T08:23:41.999Z</time></trkpt><trkpt lat="49.70283577918768" lon="19.992075823530687"><ele>513.0</ele><time>2026-05-06T08:23:43.999Z</time></trkpt><trkpt lat="49.702842058726176" lon="19.992209045852928"><ele>512.5</ele><time>2026-05-06T08:23:45.999Z</time></trkpt><trkpt lat="49.702819868248824" lon="19.992370325521534"><ele>512.0</ele><time>2026-05-06T08:23:48.999Z</time></trkpt><trkpt lat="49.70288357315165" lon="19.992450716631684"><ele>511.5</ele><time>2026-05-06T08:23:52.999Z</time></trkpt><trkpt lat="49.70297140124983" lon="19.992501452348822"><ele>511.0</ele><time>2026-05-06T08:23:55.999Z</time></trkpt><trkpt lat="49.70304006413097" lon="19.99255996110087"><ele>510.5</ele><time>2026-05-06T08:23:57.999Z</time></trkpt><trkpt lat="49.703110861277196" lon="19.99260572666027"><ele>510.0</ele><time>2026-05-06T08:23:59.999Z</time></trkpt><trkpt lat="49.703184377267604" lon="19.992669982243154"><ele>508.6666666666667</ele><time>2026-05-06T08:24:01.999Z</time></trkpt><trkpt lat="49.7032532564867" lon="19.99273449027738"><ele>507.33333333333337</ele><time>2026-05-06T08:24:03.999Z</time></trkpt><trkpt lat="49.703321000483335" lon="19.992810104895916"><ele>506.0</ele><time>2026-05-06T08:24:05.999Z</time></trkpt><trkpt lat="49.70338927241904" lon="19.992879551789034"><ele>504.6666666666667</ele><time>2026-05-06T08:24:07.999Z</time></trkpt><trkpt lat="49.70344407259466" lon="19.992977025138433"><ele>503.33333333333337</ele><time>2026-05-06T08:24:09.999Z</time></trkpt><trkpt lat="49.70351342565032" lon="19.99309129380569"><ele>502.0</ele><time>2026-05-06T08:24:11.999Z</time></trkpt><trkpt lat="49.70357205325921" lon="19.993178311831368"><ele>497.6</ele><time>2026-05-06T08:24:13.999Z</time></trkpt><trkpt lat="49.70362561190581" lon="19.993349677848194"><ele>493.20000000000005</ele><time>2026-05-06T08:24:16Z</time></trkpt><trkpt lat="49.703643214494555" lon="19.993458315948065"><ele>488.8</ele><time>2026-05-06T08:24:18Z</time></trkpt><trkpt lat="49.70372102924977" lon="19.993557309518025"><ele>484.4</ele><time>2026-05-06T08:24:20Z</time></trkpt><trkpt lat="49.70377528641117" lon="19.993621468152643"><ele>480.0</ele><time>2026-05-06T08:24:21Z</time></trkpt><trkpt lat="49.70387355776635" lon="19.993642256473436"><ele>480.0</ele><time>2026-05-06T08:24:23Z</time></trkpt><trkpt lat="49.703994747171556" lon="19.99370947215661"><ele>480.0</ele><time>2026-05-06T08:24:25Z</time></trkpt><trkpt lat="49.70407605249129" lon="19.993816775617596"><ele>480.0</ele><time>2026-05-06T08:24:27Z</time></trkpt><trkpt lat="49.704182062056596" lon="19.993854771242667"><ele>480.0</ele><time>2026-05-06T08:24:29Z</time></trkpt><trkpt lat="49.704288750676454" lon="19.99385556331457"><ele>480.0</ele><time>2026-05-06T08:24:31Z</time></trkpt><trkpt lat="49.704371879588514" lon="19.993845469700656"><ele>480.0</ele><time>2026-05-06T08:24:33Z</time></trkpt><trkpt lat="49.70446803571546" lon="19.993852498541845"><ele>480.0</ele><time>2026-05-06T08:24:35Z</time></trkpt><trkpt lat="49.704566146627684" lon="19.99384241718398"><ele>480.0</ele><time>2026-05-06T08:24:36Z</time></trkpt><trkpt lat="49.704656424372004" lon="19.993829177617314"><ele>480.0</ele><time>2026-05-06T08:24:38Z</time></trkpt><trkpt lat="49.70471643277622" lon="19.993788510859744"><ele>480.0</ele><time>2026-05-06T08:24:40Z</time></trkpt><trkpt lat="49.70478687094856" lon="19.99375911133077"><ele>477.3333333333333</ele><time>2026-05-06T08:24:42Z</time></trkpt><trkpt lat="49.70484664372789" lon="19.993697318103415"><ele>474.66666666666663</ele><time>2026-05-06T08:24:44Z</time></trkpt><trkpt lat="49.704931035014795" lon="19.993613968383283"><ele>472.0</ele><time>2026-05-06T08:24:46Z</time></trkpt><trkpt lat="49.70500196636111" lon="19.99355730922879"><ele>469.3333333333333</ele><time>2026-05-06T08:24:48Z</time></trkpt><trkpt lat="49.70507531913187" lon="19.993491414148544"><ele>466.66666666666663</ele><time>2026-05-06T08:24:50Z</time></trkpt><trkpt lat="49.705158832360624" lon="19.99339030243583"><ele>464.0</ele><time>2026-05-06T08:24:53Z</time></trkpt><trkpt lat="49.705228672455455" lon="19.993359318949558"><ele>461.5714285714286</ele><time>2026-05-06T08:24:54Z</time></trkpt><trkpt lat="49.7053239449324" lon="19.993336098033822"><ele>459.14285714285717</ele><time>2026-05-06T08:24:56Z</time></trkpt><trkpt lat="49.70539892558424" lon="19.993306874648027"><ele>456.7142857142857</ele><time>2026-05-06T08:24:58Z</time></trkpt><trkpt lat="49.705458859975785" lon="19.99325931635662"><ele>454.28571428571433</ele><time>2026-05-06T08:25:00Z</time></trkpt><trkpt lat="49.70552979166361" lon="19.99326907926148"><ele>451.8571428571429</ele><time>2026-05-06T08:25:01Z</time></trkpt><trkpt lat="49.705593266686904" lon="19.993273182377894"><ele>449.4285714285714</ele><time>2026-05-06T08:25:03Z</time></trkpt><trkpt lat="49.70566071778114" lon="19.99328058328592"><ele>447.0</ele><time>2026-05-06T08:25:04Z</time></trkpt><trkpt lat="49.70576003968911" lon="19.993307172314672"><ele>446.20000000000005</ele><time>2026-05-06T08:25:05Z</time></trkpt><trkpt lat="49.70583475016172" lon="19.993363467568116"><ele>445.40000000000003</ele><time>2026-05-06T08:25:08Z</time></trkpt><trkpt lat="49.70589314978382" lon="19.993467258262612"><ele>444.59999999999997</ele><time>2026-05-06T08:25:11Z</time></trkpt><trkpt lat="49.705925554884104" lon="19.993590941793077"><ele>443.79999999999995</ele><time>2026-05-06T08:25:14Z</time></trkpt><trkpt lat="49.70599942957429" lon="19.993721313900995"><ele>443.0</ele><time>2026-05-06T08:25:16Z</time></trkpt><trkpt lat="49.706096376165675" lon="19.993766655042375"><ele>441.16666666666663</ele><time>2026-05-06T08:25:18Z</time></trkpt><trkpt lat="49.7061452886533" lon="19.99387191602371"><ele>439.3333333333333</ele><time>2026-05-06T08:25:20.999Z</time></trkpt><trkpt lat="49.70618998217427" lon="19.993963105363083"><ele>437.5</ele><time>2026-05-06T08:25:23.999Z</time></trkpt><trkpt lat="49.70621990961283" lon="19.99413374121026"><ele>435.66666666666663</ele><time>2026-05-06T08:25:25.999Z</time></trkpt><trkpt lat="49.70628778452381" lon="19.99424144377657"><ele>433.8333333333333</ele><time>2026-05-06T08:25:27.999Z</time></trkpt><trkpt lat="49.706339385198696" lon="19.99432335878654"><ele>432.0</ele><time>2026-05-06T08:25:29.999Z</time></trkpt><trkpt lat="49.706405722821586" lon="19.99437616516041"><ele>432.0</ele><time>2026-05-06T08:25:31.999Z</time></trkpt><trkpt lat="49.706420363485556" lon="19.994485296376535"><ele>432.0</ele><time>2026-05-06T08:25:34.999Z</time></trkpt><trkpt lat="49.70643595707529" lon="19.994580705484"><ele>432.0</ele><time>2026-05-06T08:25:35.999Z</time></trkpt><trkpt lat="49.706384844853226" lon="19.994659331806776"><ele>432.0</ele><time>2026-05-06T08:25:37.999Z</time></trkpt><trkpt lat="49.70629889671425" lon="19.994702061949706"><ele>432.0</ele><time>2026-05-06T08:25:39.999Z</time></trkpt><trkpt lat="49.70621565045188" lon="19.99473356335943"><ele>432.0</ele><time>2026-05-06T08:25:42.999Z</time></trkpt><trkpt lat="49.70611711698087" lon="19.994746290051445"><ele>433.6666666666667</ele><time>2026-05-06T08:25:45.999Z</time></trkpt><trkpt lat="49.706025289848405" lon="19.994747375164035"><ele>435.33333333333337</ele><time>2026-05-06T08:25:48.999Z</time></trkpt><trkpt lat="49.70596235296879" lon="19.99479138819089"><ele>437.0</ele><time>2026-05-06T08:25:52.999Z</time></trkpt><trkpt lat="49.70589442348863" lon="19.994779257071297"><ele>438.6666666666667</ele><time>2026-05-06T08:25:54.999Z</time></trkpt><trkpt lat="49.705815181771285" lon="19.994812189381612"><ele>440.33333333333337</ele><time>2026-05-06T08:25:56.999Z</time></trkpt><trkpt lat="49.705758988982495" lon="19.99474402552425"><ele>442.0</ele><time>2026-05-06T08:25:59.999Z</time></trkpt><trkpt lat="49.70570288120908" lon="19.994683695637843"><ele>442.00000000000006</ele><time>2026-05-06T08:26:01.999Z</time></trkpt><trkpt lat="49.705622772433706" lon="19.99463940163083"><ele>442.0</ele><time>2026-05-06T08:26:04.999Z</time></trkpt><trkpt lat="49.70556104878274" lon="19.994674854345572"><ele>442.0</ele><time>2026-05-06T08:26:08.999Z</time></trkpt><trkpt lat="49.7054713615474" lon="19.994702221983093"><ele>442.0</ele><time>2026-05-06T08:26:12.999Z</time></trkpt><trkpt lat="49.70539849622563" lon="19.994714494926978"><ele>442.00000000000006</ele><time>2026-05-06T08:26:17.999Z</time></trkpt><trkpt lat="49.705315253495755" lon="19.994800692272367"><ele>442.0</ele><time>2026-05-06T08:26:22Z</time></trkpt><trkpt lat="49.70525171897669" lon="19.994832469165086"><ele>444.83333333333337</ele><time>2026-05-06T08:26:24Z</time></trkpt><trkpt lat="49.70515015600335" lon="19.9948271300261"><ele>447.6666666666667</ele><time>2026-05-06T08:26:26Z</time></trkpt><trkpt lat="49.70506423048157" lon="19.99482720776779"><ele>450.5</ele><time>2026-05-06T08:26:28Z</time></trkpt><trkpt lat="49.70498190757706" lon="19.99479961031043"><ele>453.33333333333337</ele><time>2026-05-06T08:26:32Z</time></trkpt><trkpt lat="49.70501239616411" lon="19.994912742311584"><ele>456.1666666666667</ele><time>2026-05-06T08:26:57Z</time></trkpt><trkpt lat="49.7050542999403" lon="19.994991922396512"><ele>459.0</ele><time>2026-05-06T08:26:59Z</time></trkpt><trkpt lat="49.70511477222276" lon="19.995058256013596"><ele>459.0</ele><time>2026-05-06T08:27:00Z</time></trkpt><trkpt lat="49.705141895165795" lon="19.995187940036008"><ele>459.0</ele><time>2026-05-06T08:27:03Z</time></trkpt><trkpt lat="49.70510847589636" lon="19.99534414890288"><ele>459.0</ele><time>2026-05-06T08:27:05Z</time></trkpt><trkpt lat="49.705052557625386" lon="19.99541048188303"><ele>459.0</ele><time>2026-05-06T08:27:06Z</time></trkpt><trkpt lat="49.705036650725425" lon="19.99553068986164"><ele>459.0</ele><time>2026-05-06T08:27:11Z</time></trkpt><trkpt lat="49.70507986639972" lon="19.995666202007147"><ele>459.0</ele><time>2026-05-06T08:27:18Z</time></trkpt><trkpt lat="49.70511134852523" lon="19.99583825272345"><ele>459.6</ele><time>2026-05-06T08:27:20Z</time></trkpt><trkpt lat="49.70513535374707" lon="19.996004155475283"><ele>460.2</ele><time>2026-05-06T08:27:22Z</time></trkpt><trkpt lat="49.70513469898542" lon="19.99612810269925"><ele>460.80000000000007</ele><time>2026-05-06T08:27:23Z</time></trkpt><trkpt lat="49.70513450599886" lon="19.996318394836944"><ele>461.40000000000003</ele><time>2026-05-06T08:27:25Z</time></trkpt><trkpt lat="49.70509200414197" lon="19.996489889249084"><ele>462.0</ele><time>2026-05-06T08:27:26.999Z</time></trkpt><trkpt lat="49.70516904162829" lon="19.996587662001787"><ele>462.0</ele><time>2026-05-06T08:27:28.999Z</time></trkpt><trkpt lat="49.70523317707338" lon="19.996559201579554"><ele>462.00000000000006</ele><time>2026-05-06T08:27:29.999Z</time></trkpt><trkpt lat="49.705314967963226" lon="19.996513352863037"><ele>462.00000000000006</ele><time>2026-05-06T08:27:30.999Z</time></trkpt><trkpt lat="49.70542073387271" lon="19.99639404142524"><ele>462.0</ele><time>2026-05-06T08:27:32.999Z</time></trkpt><trkpt lat="49.70553231237223" lon="19.996402427721534"><ele>462.0</ele><time>2026-05-06T08:27:34.999Z</time></trkpt><trkpt lat="49.70559328614098" lon="19.996427816197684"><ele>459.6666666666667</ele><time>2026-05-06T08:27:35.999Z</time></trkpt><trkpt lat="49.705673797775546" lon="19.99649926521657"><ele>457.33333333333337</ele><time>2026-05-06T08:27:37.999Z</time></trkpt><trkpt lat="49.705653708913104" lon="19.996602677355845"><ele>455.0</ele><time>2026-05-06T08:27:40.999Z</time></trkpt><trkpt lat="49.705626878503" lon="19.99671563012264"><ele>452.6666666666667</ele><time>2026-05-06T08:27:42.999Z</time></trkpt><trkpt lat="49.70558572273202" lon="19.996864010400362"><ele>450.33333333333337</ele><time>2026-05-06T08:27:44.999Z</time></trkpt><trkpt lat="49.705587870143006" lon="19.996963652778156"><ele>448.0</ele><time>2026-05-06T08:27:46.999Z</time></trkpt><trkpt lat="49.705567602266974" lon="19.997071691225923"><ele>448.00000000000006</ele><time>2026-05-06T08:27:48.999Z</time></trkpt><trkpt lat="49.70553874593336" lon="19.997187876974603"><ele>448.0</ele><time>2026-05-06T08:27:51.999Z</time></trkpt><trkpt lat="49.7054544813312" lon="19.997319081606367"><ele>448.0</ele><time>2026-05-06T08:27:53.999Z</time></trkpt><trkpt lat="49.70537185621761" lon="19.99740940289467"><ele>448.0</ele><time>2026-05-06T08:27:55.999Z</time></trkpt><trkpt lat="49.70534132452888" lon="19.99750102798426"><ele>448.00000000000006</ele><time>2026-05-06T08:27:56.999Z</time></trkpt><trkpt lat="49.705304312422044" lon="19.997582123306888"><ele>448.0</ele><time>2026-05-06T08:27:57.999Z</time></trkpt><trkpt lat="49.70531638950917" lon="19.997704768360116"><ele>447.50000000000006</ele><time>2026-05-06T08:27:59.999Z</time></trkpt><trkpt lat="49.70532502684988" lon="19.99780778762703"><ele>447.0</ele><time>2026-05-06T08:28:00.999Z</time></trkpt><trkpt lat="49.70528842434824" lon="19.997964289701635"><ele>446.5</ele><time>2026-05-06T08:28:02.999Z</time></trkpt><trkpt lat="49.70525826647988" lon="19.998084842516462"><ele>446.0</ele><time>2026-05-06T08:28:04.999Z</time></trkpt><trkpt lat="49.705325412287195" lon="19.99814459102616"><ele>445.50000000000006</ele><time>2026-05-06T08:28:08.999Z</time></trkpt><trkpt lat="49.70539410015755" lon="19.998188215419095"><ele>445.0</ele><time>2026-05-06T08:28:10.999Z</time></trkpt><trkpt lat="49.70546090719766" lon="19.99818276345251"><ele>445.0</ele><time>2026-05-06T08:28:12.999Z</time></trkpt><trkpt lat="49.70552391054804" lon="19.99818803433183"><ele>445.0</ele><time>2026-05-06T08:28:17.999Z</time></trkpt><trkpt lat="49.70560382643958" lon="19.99826461208615"><ele>445.0</ele><time>2026-05-06T08:28:28Z</time></trkpt><trkpt lat="49.70565784067372" lon="19.998318129530986"><ele>445.0</ele><time>2026-05-06T08:28:32Z</time></trkpt><trkpt lat="49.705722140753444" lon="19.99835998935055"><ele>445.0</ele><time>2026-05-06T08:28:36Z</time></trkpt><trkpt lat="49.70579918519865" lon="19.99833468336874"><ele>445.0</ele><time>2026-05-06T08:28:38Z</time></trkpt><trkpt lat="49.70584445005104" lon="19.99825163135919"><ele>445.0</ele><time>2026-05-06T08:28:45Z</time></trkpt><trkpt lat="49.70587560578469" lon="19.998347208932927"><ele>443.83333333333337</ele><time>2026-05-06T08:28:50Z</time></trkpt><trkpt lat="49.70582192947536" lon="19.99843547621017"><ele>442.6666666666667</ele><time>2026-05-06T08:28:55Z</time></trkpt><trkpt lat="49.70575892295342" lon="19.99852711477121"><ele>441.5</ele><time>2026-05-06T08:28:59Z</time></trkpt><trkpt lat="49.70570183107098" lon="19.99861165750274"><ele>440.33333333333337</ele><time>2026-05-06T08:29:01Z</time></trkpt><trkpt lat="49.70562866566577" lon="19.998594136705464"><ele>439.1666666666667</ele><time>2026-05-06T08:29:03Z</time></trkpt><trkpt lat="49.70555018145247" lon="19.998581637331416"><ele>438.0</ele><time>2026-05-06T08:29:05Z</time></trkpt><trkpt lat="49.70548718584028" lon="19.99850892185058"><ele>438.0</ele><time>2026-05-06T08:29:08Z</time></trkpt><trkpt lat="49.70541533814291" lon="19.998480504455433"><ele>438.0</ele><time>2026-05-06T08:29:14Z</time></trkpt><trkpt lat="49.70533538471977" lon="19.99844927987049"><ele>438.0</ele><time>2026-05-06T08:29:28Z</time></trkpt><trkpt lat="49.70525830050566" lon="19.998420898189742"><ele>438.0</ele><time>2026-05-06T08:29:30Z</time></trkpt><trkpt lat="49.70520657598221" lon="19.998363240534424"><ele>438.0</ele><time>2026-05-06T08:29:34.999Z</time></trkpt><trkpt lat="49.70514237172516" lon="19.998291541793524"><ele>438.0</ele><time>2026-05-06T08:29:39.999Z</time></trkpt><trkpt lat="49.70506423436418" lon="19.998296972442343"><ele>441.0</ele><time>2026-05-06T08:29:43.999Z</time></trkpt><trkpt lat="49.705012149762325" lon="19.998221286406057"><ele>444.0</ele><time>2026-05-06T08:29:46.999Z</time></trkpt><trkpt lat="49.70493353566596" lon="19.998147668288567"><ele>447.0</ele><time>2026-05-06T08:29:49.999Z</time></trkpt><trkpt lat="49.70485970842657" lon="19.998135801211564"><ele>450.0</ele><time>2026-05-06T08:29:51.999Z</time></trkpt><trkpt lat="49.70480160103862" lon="19.998081754449807"><ele>453.0</ele><time>2026-05-06T08:29:54.999Z</time></trkpt><trkpt lat="49.70474148827829" lon="19.99804298957095"><ele>456.0</ele><time>2026-05-06T08:29:56.999Z</time></trkpt><trkpt lat="49.70465287022702" lon="19.99807271480021"><ele>456.0</ele><time>2026-05-06T08:29:59.999Z</time></trkpt><trkpt lat="49.704602153530885" lon="19.998001977424984"><ele>455.99999999999994</ele><time>2026-05-06T08:30:05.999Z</time></trkpt><trkpt lat="49.70453229218907" lon="19.997980863105695"><ele>456.0</ele><time>2026-05-06T08:30:19.999Z</time></trkpt><trkpt lat="49.704470050140436" lon="19.997945215992832"><ele>456.0</ele><time>2026-05-06T08:30:21.999Z</time></trkpt><trkpt lat="49.70440543537494" lon="19.997882611439756"><ele>455.99999999999994</ele><time>2026-05-06T08:30:26.999Z</time></trkpt><trkpt lat="49.70433333989695" lon="19.997893467912206"><ele>456.0</ele><time>2026-05-06T08:31:39.999Z</time></trkpt><trkpt lat="49.70426357148695" lon="19.997859007769794"><ele>456.0</ele><time>2026-05-06T08:31:44.999Z</time></trkpt><trkpt lat="49.70419955670228" lon="19.997821045025983"><ele>459.8333333333333</ele><time>2026-05-06T08:31:48.999Z</time></trkpt><trkpt lat="49.70409811665162" lon="19.997744395275962"><ele>463.66666666666663</ele><time>2026-05-06T08:31:57.999Z</time></trkpt><trkpt lat="49.70416631237566" lon="19.997691353265264"><ele>467.5</ele><time>2026-05-06T08:32:06.999Z</time></trkpt><trkpt lat="49.704082038803215" lon="19.99770571844439"><ele>471.3333333333333</ele><time>2026-05-06T08:32:10.999Z</time></trkpt><trkpt lat="49.70413705844218" lon="19.997648552421566"><ele>475.16666666666663</ele><time>2026-05-06T08:32:19.999Z</time></trkpt><trkpt lat="49.70407528473868" lon="19.99767286587627"><ele>479.0</ele><time>2026-05-06T08:32:34.999Z</time></trkpt><trkpt lat="49.70403026326061" lon="19.997591858766896"><ele>479.0</ele><time>2026-05-06T08:32:46Z</time></trkpt><trkpt lat="49.70397246682134" lon="19.997514000844397"><ele>479.0</ele><time>2026-05-06T08:32:52Z</time></trkpt><trkpt lat="49.70391223632498" lon="19.997483887967956"><ele>479.0</ele><time>2026-05-06T08:33:02Z</time></trkpt><trkpt lat="49.703827637326704" lon="19.99746256499332"><ele>479.0</ele><time>2026-05-06T08:33:07Z</time></trkpt><trkpt lat="49.70376369426183" lon="19.997508561804743"><ele>479.0</ele><time>2026-05-06T08:33:15Z</time></trkpt><trkpt lat="49.70381134564014" lon="19.997408310487323"><ele>479.0</ele><time>2026-05-06T08:33:19Z</time></trkpt><trkpt lat="49.703765000817064" lon="19.997334787337127"><ele>479.0</ele><time>2026-05-06T08:33:23Z</time></trkpt><trkpt lat="49.703705184407134" lon="19.997269755771605"><ele>478.99999999999994</ele><time>2026-05-06T08:33:42.999Z</time></trkpt><trkpt lat="49.703639108570265" lon="19.997319011561782"><ele>479.0</ele><time>2026-05-06T08:34:56Z</time></trkpt><trkpt lat="49.70367691124359" lon="19.997407980302295"><ele>479.0</ele><time>2026-05-06T08:35:02Z</time></trkpt><trkpt lat="49.70362787218953" lon="19.99749731554755"><ele>479.0</ele><time>2026-05-06T08:35:05Z</time></trkpt><trkpt lat="49.70359603556051" lon="19.997586386249736"><ele>478.99999999999994</ele><time>2026-05-06T08:35:08Z</time></trkpt><trkpt lat="49.70351776777715" lon="19.997610611567428"><ele>479.0</ele><time>2026-05-06T08:35:11Z</time></trkpt><trkpt lat="49.703427495614484" lon="19.99761631526452"><ele>480.16666666666663</ele><time>2026-05-06T08:35:14Z</time></trkpt><trkpt lat="49.703343415509835" lon="19.997614541652364"><ele>481.3333333333333</ele><time>2026-05-06T08:35:16Z</time></trkpt><trkpt lat="49.703261780198005" lon="19.9975971363182"><ele>482.5</ele><time>2026-05-06T08:35:18Z</time></trkpt><trkpt lat="49.70318767560636" lon="19.997593149900272"><ele>483.66666666666663</ele><time>2026-05-06T08:35:20Z</time></trkpt><trkpt lat="49.703125131269914" lon="19.997510359427206"><ele>484.8333333333333</ele><time>2026-05-06T08:35:22Z</time></trkpt><trkpt lat="49.703045069317625" lon="19.997444663723407"><ele>486.0</ele><time>2026-05-06T08:35:24Z</time></trkpt><trkpt lat="49.70295631617507" lon="19.997395387647483"><ele>486.0</ele><time>2026-05-06T08:35:26Z</time></trkpt><trkpt lat="49.70286479754571" lon="19.997371323085968"><ele>486.0</ele><time>2026-05-06T08:35:28Z</time></trkpt><trkpt lat="49.70277803601663" lon="19.99736438990499"><ele>486.0</ele><time>2026-05-06T08:35:30Z</time></trkpt><trkpt lat="49.702713425843996" lon="19.997398208429704"><ele>486.0</ele><time>2026-05-06T08:35:32Z</time></trkpt><trkpt lat="49.702643380463996" lon="19.99743501839256"><ele>486.0</ele><time>2026-05-06T08:35:34Z</time></trkpt><trkpt lat="49.702542393272644" lon="19.99750194496195"><ele>486.0</ele><time>2026-05-06T08:35:36Z</time></trkpt><trkpt lat="49.70247801686451" lon="19.997535030727942"><ele>490.4</ele><time>2026-05-06T08:35:38Z</time></trkpt><trkpt lat="49.70239362426523" lon="19.99755404536677"><ele>494.8</ele><time>2026-05-06T08:35:40Z</time></trkpt><trkpt lat="49.702275753582185" lon="19.997601380197736"><ele>499.19999999999993</ele><time>2026-05-06T08:35:41.999Z</time></trkpt><trkpt lat="49.70218715802537" lon="19.99763895054999"><ele>503.59999999999997</ele><time>2026-05-06T08:35:43.999Z</time></trkpt><trkpt lat="49.702097901117405" lon="19.997683875206118"><ele>508.0</ele><time>2026-05-06T08:35:45.999Z</time></trkpt><trkpt lat="49.7019867492806" lon="19.997679024935692"><ele>510.79999999999995</ele><time>2026-05-06T08:35:47.999Z</time></trkpt><trkpt lat="49.701870190790444" lon="19.997707043068846"><ele>513.5999999999999</ele><time>2026-05-06T08:35:49.999Z</time></trkpt><trkpt lat="49.70176669698764" lon="19.99768696000694"><ele>516.4000000000001</ele><time>2026-05-06T08:35:51.999Z</time></trkpt><trkpt lat="49.70166640051341" lon="19.99771510686718"><ele>519.2</ele><time>2026-05-06T08:35:53.999Z</time></trkpt><trkpt lat="49.701564212316846" lon="19.997755589224123"><ele>522.0</ele><time>2026-05-06T08:35:55.999Z</time></trkpt><trkpt lat="49.70144812040437" lon="19.99779651136972"><ele>522.0</ele><time>2026-05-06T08:35:57.999Z</time></trkpt><trkpt lat="49.701352095191424" lon="19.997801457555852"><ele>522.0</ele><time>2026-05-06T08:35:59.999Z</time></trkpt><trkpt lat="49.70127928513448" lon="19.9978468899331"><ele>522.0</ele><time>2026-05-06T08:36:03.999Z</time></trkpt><trkpt lat="49.70118809260353" lon="19.99788188065634"><ele>522.0</ele><time>2026-05-06T08:36:05.999Z</time></trkpt><trkpt lat="49.70112381978487" lon="19.997940949015113"><ele>522.0</ele><time>2026-05-06T08:36:09.999Z</time></trkpt><trkpt lat="49.70105772565939" lon="19.99803622161776"><ele>522.0</ele><time>2026-05-06T08:36:12.999Z</time></trkpt><trkpt lat="49.700985171618996" lon="19.99808249334909"><ele>523.6666666666666</ele><time>2026-05-06T08:36:14.999Z</time></trkpt><trkpt lat="49.70093042792175" lon="19.9981389904619"><ele>525.3333333333334</ele><time>2026-05-06T08:36:15.999Z</time></trkpt><trkpt lat="49.70081142143562" lon="19.998195041286795"><ele>527.0</ele><time>2026-05-06T08:36:17.999Z</time></trkpt><trkpt lat="49.70073266840097" lon="19.998202336611225"><ele>528.6666666666667</ele><time>2026-05-06T08:36:18.999Z</time></trkpt><trkpt lat="49.70066363604885" lon="19.998215489039058"><ele>530.3333333333334</ele><time>2026-05-06T08:36:19.999Z</time></trkpt><trkpt lat="49.70057693434691" lon="19.998220964924677"><ele>532.0</ele><time>2026-05-06T08:36:21.999Z</time></trkpt><trkpt lat="49.70049004893565" lon="19.9981963759065"><ele>532.0</ele><time>2026-05-06T08:36:37.999Z</time></trkpt><trkpt lat="49.70039776981204" lon="19.998222720249114"><ele>532.0</ele><time>2026-05-06T08:36:39.999Z</time></trkpt><trkpt lat="49.700290544499474" lon="19.99823054734252"><ele>532.0</ele><time>2026-05-06T08:36:41.999Z</time></trkpt><trkpt lat="49.700167578139094" lon="19.99823712598294"><ele>532.0</ele><time>2026-05-06T08:36:43.999Z</time></trkpt><trkpt lat="49.70004594637409" lon="19.99821362329363"><ele>532.0</ele><time>2026-05-06T08:36:45.999Z</time></trkpt><trkpt lat="49.69991989755975" lon="19.998217987529266"><ele>533.8000000000001</ele><time>2026-05-06T08:36:47.999Z</time></trkpt><trkpt lat="49.699814927318364" lon="19.99821094381317"><ele>535.6</ele><time>2026-05-06T08:36:49.999Z</time></trkpt><trkpt lat="49.699701693094205" lon="19.99819766099297"><ele>537.4000000000001</ele><time>2026-05-06T08:36:52Z</time></trkpt><trkpt lat="49.69963842573164" lon="19.998178170869643"><ele>539.2</ele><time>2026-05-06T08:36:53Z</time></trkpt><trkpt lat="49.69955812955012" lon="19.998152331564384"><ele>541.0</ele><time>2026-05-06T08:36:54Z</time></trkpt><trkpt lat="49.69943565222563" lon="19.998116642437992"><ele>543.4</ele><time>2026-05-06T08:36:56Z</time></trkpt><trkpt lat="49.69935480056721" lon="19.99806911310176"><ele>545.8</ele><time>2026-05-06T08:36:58Z</time></trkpt><trkpt lat="49.69924518753216" lon="19.99805223975775"><ele>548.1999999999999</ele><time>2026-05-06T08:37:00Z</time></trkpt><trkpt lat="49.69914098448231" lon="19.998019884625137"><ele>550.6</ele><time>2026-05-06T08:37:02Z</time></trkpt><trkpt lat="49.6990305399574" lon="19.998023359283263"><ele>553.0</ele><time>2026-05-06T08:37:04Z</time></trkpt><trkpt lat="49.698905963701726" lon="19.998041577958304"><ele>553.0</ele><time>2026-05-06T08:37:06Z</time></trkpt><trkpt lat="49.69881105951757" lon="19.99805746150426"><ele>553.0</ele><time>2026-05-06T08:37:08Z</time></trkpt><trkpt lat="49.698743376584154" lon="19.99805530775455"><ele>553.0</ele><time>2026-05-06T08:37:11Z</time></trkpt><trkpt lat="49.69880626152678" lon="19.99804210909771"><ele>553.0</ele><time>2026-05-06T08:37:17Z</time></trkpt><trkpt lat="49.69875241488559" lon="19.99797158446594"><ele>553.0</ele><time>2026-05-06T08:37:26Z</time></trkpt><trkpt lat="49.6986801966854" lon="19.997976666974637"><ele>553.0</ele><time>2026-05-06T08:37:27Z</time></trkpt><trkpt lat="49.69861065477893" lon="19.99796766054129"><ele>553.0</ele><time>2026-05-06T08:37:28Z</time></trkpt><trkpt lat="49.69852701026756" lon="19.99797053581638"><ele>554.8571428571429</ele><time>2026-05-06T08:37:29Z</time></trkpt><trkpt lat="49.69845087499018" lon="19.997953096241254"><ele>556.7142857142858</ele><time>2026-05-06T08:37:30Z</time></trkpt><trkpt lat="49.69837972860669" lon="19.997933091453472"><ele>558.5714285714286</ele><time>2026-05-06T08:37:31Z</time></trkpt><trkpt lat="49.69831193757072" lon="19.99791934804075"><ele>560.4285714285714</ele><time>2026-05-06T08:37:32Z</time></trkpt><trkpt lat="49.698240841668145" lon="19.997896381730115"><ele>562.2857142857143</ele><time>2026-05-06T08:37:34Z</time></trkpt><trkpt lat="49.698242898554085" lon="19.997778062517455"><ele>564.1428571428571</ele><time>2026-05-06T08:37:39Z</time></trkpt><trkpt lat="49.69830646649267" lon="19.99779087748814"><ele>566.0</ele><time>2026-05-06T08:38:23.999Z</time></trkpt><trkpt lat="49.69836596462153" lon="19.997830580147905"><ele>566.0</ele><time>2026-05-06T08:38:36.999Z</time></trkpt><trkpt lat="49.69838949373905" lon="19.997942271210075"><ele>566.0</ele><time>2026-05-06T08:38:44.999Z</time></trkpt><trkpt lat="49.69844485004242" lon="19.998034917857897"><ele>566.0</ele><time>2026-05-06T08:38:48.999Z</time></trkpt><trkpt lat="49.69852163634051" lon="19.998056491029743"><ele>566.0</ele><time>2026-05-06T08:38:50.999Z</time></trkpt><trkpt lat="49.69861752087151" lon="19.998056808018674"><ele>566.0</ele><time>2026-05-06T08:38:53.999Z</time></trkpt><trkpt lat="49.69869448718035" lon="19.99804358747615"><ele>566.0</ele><time>2026-05-06T08:38:58Z</time></trkpt><trkpt lat="49.69861169967213" lon="19.998011585586188"><ele>566.0</ele><time>2026-05-06T08:39:24Z</time></trkpt><trkpt lat="49.69849565326677" lon="19.997921386005462"><ele>566.0</ele><time>2026-05-06T08:39:26Z</time></trkpt><trkpt lat="49.698409597208816" lon="19.997897650601217"><ele>566.0</ele><time>2026-05-06T08:39:27Z</time></trkpt><trkpt lat="49.6983112112118" lon="19.997808735840668"><ele>566.0</ele><time>2026-05-06T08:39:29Z</time></trkpt><trkpt lat="49.6982722391432" lon="19.997717099725147"><ele>566.0</ele><time>2026-05-06T08:39:31Z</time></trkpt><trkpt lat="49.69826750200518" lon="19.99761868164295"><ele>566.0</ele><time>2026-05-06T08:39:33Z</time></trkpt><trkpt lat="49.69827254770924" lon="19.997737665310215"><ele>566.0</ele><time>2026-05-06T08:39:56.999Z</time></trkpt><trkpt lat="49.698321833874694" lon="19.997830827338355"><ele>566.0</ele><time>2026-05-06T08:40:03.999Z</time></trkpt><trkpt lat="49.69839069006064" lon="19.99785482476882"><ele>566.0</ele><time>2026-05-06T08:40:09.999Z</time></trkpt><trkpt lat="49.69839644077545" lon="19.997964918482857"><ele>566.0</ele><time>2026-05-06T08:40:13.999Z</time></trkpt><trkpt lat="49.69844799034351" lon="19.998049634838072"><ele>566.0</ele><time>2026-05-06T08:40:17.999Z</time></trkpt><trkpt lat="49.6985447423032" lon="19.998136505652898"><ele>566.0</ele><time>2026-05-06T08:40:19.999Z</time></trkpt><trkpt lat="49.698631941772554" lon="19.998119300266215"><ele>566.0</ele><time>2026-05-06T08:40:22.999Z</time></trkpt><trkpt lat="49.69863902001745" lon="19.998020343378073"><ele>566.0</ele><time>2026-05-06T08:40:36.999Z</time></trkpt><trkpt lat="49.6985720443459" lon="19.997996894036405"><ele>566.0</ele><time>2026-05-06T08:41:02.998Z</time></trkpt><trkpt lat="49.69845580681136" lon="19.9979391531984"><ele>566.0</ele><time>2026-05-06T08:41:05Z</time></trkpt><trkpt lat="49.69836502249669" lon="19.997918487515697"><ele>566.0</ele><time>2026-05-06T08:41:06Z</time></trkpt><trkpt lat="49.69831395852071" lon="19.997818953361588"><ele>566.0</ele><time>2026-05-06T08:41:08Z</time></trkpt><trkpt lat="49.69825579469862" lon="19.997738272795896"><ele>566.0</ele><time>2026-05-06T08:41:11Z</time></trkpt><trkpt lat="49.698284070421856" lon="19.997868397341435"><ele>566.0</ele><time>2026-05-06T08:41:57.999Z</time></trkpt><trkpt lat="49.698366694173735" lon="19.997826250807986"><ele>566.0</ele><time>2026-05-06T08:42:05.999Z</time></trkpt><trkpt lat="49.69838932529498" lon="19.997974781415717"><ele>566.0</ele><time>2026-05-06T08:42:10.999Z</time></trkpt><trkpt lat="49.69846110830921" lon="19.99800935980328"><ele>566.0</ele><time>2026-05-06T08:42:15.999Z</time></trkpt><trkpt lat="49.69852921098667" lon="19.998064460846898"><ele>566.0</ele><time>2026-05-06T08:42:18.999Z</time></trkpt><trkpt lat="49.698625805142605" lon="19.998023444590928"><ele>566.0</ele><time>2026-05-06T08:42:21.999Z</time></trkpt><trkpt lat="49.69852376969409" lon="19.99796182200555"><ele>566.0</ele><time>2026-05-06T08:42:47.999Z</time></trkpt><trkpt lat="49.69845565730181" lon="19.997925804335942"><ele>566.0</ele><time>2026-05-06T08:42:48.999Z</time></trkpt><trkpt lat="49.69838413793547" lon="19.997913358315994"><ele>566.0</ele><time>2026-05-06T08:42:49.999Z</time></trkpt><trkpt lat="49.698300780428504" lon="19.99785363969875"><ele>566.0</ele><time>2026-05-06T08:42:51.999Z</time></trkpt><trkpt lat="49.69821543759441" lon="19.99782796197142"><ele>566.0</ele><time>2026-05-06T08:42:53.999Z</time></trkpt><trkpt lat="49.698212595083696" lon="19.997677745087245"><ele>566.0</ele><time>2026-05-06T08:42:56.999Z</time></trkpt><trkpt lat="49.698150341751415" lon="19.997630354917654"><ele>566.0</ele><time>2026-05-06T08:43:49Z</time></trkpt><trkpt lat="49.69809774704142" lon="19.99755813114477"><ele>566.0</ele><time>2026-05-06T08:43:54Z</time></trkpt><trkpt lat="49.6980420145148" lon="19.99760704773699"><ele>566.0</ele><time>2026-05-06T08:43:59.999Z</time></trkpt><trkpt lat="49.69798201666779" lon="19.997553317012855"><ele>566.0</ele><time>2026-05-06T08:44:19.999Z</time></trkpt><trkpt lat="49.69788353095975" lon="19.997562987373122"><ele>566.0</ele><time>2026-05-06T08:44:21.999Z</time></trkpt><trkpt lat="49.697785290074414" lon="19.99753057983453"><ele>566.0</ele><time>2026-05-06T08:44:23.999Z</time></trkpt><trkpt lat="49.697740048490346" lon="19.997443926585202"><ele>566.0</ele><time>2026-05-06T08:44:25.999Z</time></trkpt><trkpt lat="49.69767560546073" lon="19.997361215620284"><ele>566.0</ele><time>2026-05-06T08:44:28.999Z</time></trkpt><trkpt lat="49.69762184599259" lon="19.997246066491634"><ele>566.0</ele><time>2026-05-06T08:44:31.999Z</time></trkpt><trkpt lat="49.69768543681629" lon="19.997249663744995"><ele>566.0</ele><time>2026-05-06T08:44:47.999Z</time></trkpt><trkpt lat="49.69768328300969" lon="19.99713416438958"><ele>572.1666666666666</ele><time>2026-05-06T08:45:03.999Z</time></trkpt><trkpt lat="49.697631984804495" lon="19.997026870255127"><ele>578.3333333333333</ele><time>2026-05-06T08:45:05.998Z</time></trkpt><trkpt lat="49.697569676980585" lon="19.996974133676073"><ele>584.5</ele><time>2026-05-06T08:45:08.998Z</time></trkpt><trkpt lat="49.697512417900775" lon="19.99691644365691"><ele>590.6666666666666</ele><time>2026-05-06T08:45:10.998Z</time></trkpt><trkpt lat="49.69743686798345" lon="19.99684559422005"><ele>596.8333333333334</ele><time>2026-05-06T08:45:13.998Z</time></trkpt><trkpt lat="49.69735402267056" lon="19.996735097135158"><ele>603.0</ele><time>2026-05-06T08:45:16Z</time></trkpt><trkpt lat="49.69729234776947" lon="19.996621644908974"><ele>605.7142857142858</ele><time>2026-05-06T08:45:18Z</time></trkpt><trkpt lat="49.6972268430906" lon="19.99660843359839"><ele>608.4285714285713</ele><time>2026-05-06T08:45:20Z</time></trkpt><trkpt lat="49.69715017016252" lon="19.996579626005026"><ele>611.1428571428571</ele><time>2026-05-06T08:45:25Z</time></trkpt><trkpt lat="49.697096400665615" lon="19.99652351169161"><ele>613.8571428571429</ele><time>2026-05-06T08:45:56Z</time></trkpt><trkpt lat="49.697028656556874" lon="19.996472964532142"><ele>616.5714285714287</ele><time>2026-05-06T08:45:58Z</time></trkpt><trkpt lat="49.696976091681314" lon="19.996382638139387"><ele>619.2857142857142</ele><time>2026-05-06T08:46:00Z</time></trkpt><trkpt lat="49.6969215568367" lon="19.99629239103774"><ele>622.0</ele><time>2026-05-06T08:46:02Z</time></trkpt><trkpt lat="49.69688094997928" lon="19.996191314903882"><ele>627.6666666666667</ele><time>2026-05-06T08:46:06.999Z</time></trkpt><trkpt lat="49.69682350103396" lon="19.996143205343156"><ele>633.3333333333334</ele><time>2026-05-06T08:46:09.999Z</time></trkpt><trkpt lat="49.69675779452527" lon="19.996113478805842"><ele>639.0</ele><time>2026-05-06T08:46:13.999Z</time></trkpt><trkpt lat="49.69669389423811" lon="19.996138780352936"><ele>644.6666666666666</ele><time>2026-05-06T08:46:24.999Z</time></trkpt><trkpt lat="49.69662983263886" lon="19.996173254372554"><ele>650.3333333333333</ele><time>2026-05-06T08:46:25.999Z</time></trkpt><trkpt lat="49.696491694919885" lon="19.99616411285185"><ele>656.0</ele><time>2026-05-06T08:46:27.999Z</time></trkpt><trkpt lat="49.69640252453793" lon="19.996176993173076"><ele>656.0</ele><time>2026-05-06T08:46:30.999Z</time></trkpt><trkpt lat="49.69636513462692" lon="19.99626437381451"><ele>656.0</ele><time>2026-05-06T08:46:33.999Z</time></trkpt><trkpt lat="49.69631005081083" lon="19.996359689594648"><ele>656.0</ele><time>2026-05-06T08:46:35.999Z</time></trkpt><trkpt lat="49.696271687697184" lon="19.99644874237489"><ele>656.0</ele><time>2026-05-06T08:46:37.999Z</time></trkpt><trkpt lat="49.696227528042776" lon="19.99653499075317"><ele>656.0</ele><time>2026-05-06T08:46:40.999Z</time></trkpt><trkpt lat="49.69617196172215" lon="19.9966311329589"><ele>656.0</ele><time>2026-05-06T08:46:43.999Z</time></trkpt><trkpt lat="49.69624164234979" lon="19.996586179335363"><ele>656.0</ele><time>2026-05-06T08:47:10.999Z</time></trkpt><trkpt lat="49.696173697026694" lon="19.996591723444457"><ele>656.0</ele><time>2026-05-06T08:47:27Z</time></trkpt><trkpt lat="49.69610200667499" lon="19.996627336552105"><ele>656.0</ele><time>2026-05-06T08:47:29Z</time></trkpt><trkpt lat="49.69600463703524" lon="19.996627719706474"><ele>656.0</ele><time>2026-05-06T08:47:31Z</time></trkpt><trkpt lat="49.695930746211786" lon="19.996495214590645"><ele>656.0</ele><time>2026-05-06T08:47:33Z</time></trkpt><trkpt lat="49.695977221057795" lon="19.996587250667194"><ele>656.0</ele><time>2026-05-06T08:49:08.999Z</time></trkpt><trkpt lat="49.69604380733457" lon="19.996670352291606"><ele>656.0</ele><time>2026-05-06T08:49:11.999Z</time></trkpt><trkpt lat="49.69610993375073" lon="19.996654034099365"><ele>656.0</ele><time>2026-05-06T08:49:14.998Z</time></trkpt><trkpt lat="49.69620096172692" lon="19.996604588864805"><ele>656.0</ele><time>2026-05-06T08:49:16.998Z</time></trkpt><trkpt lat="49.69612533759878" lon="19.996647614494226"><ele>656.0</ele><time>2026-05-06T08:50:07Z</time></trkpt><trkpt lat="49.69605148267229" lon="19.99666888821322"><ele>656.0</ele><time>2026-05-06T08:50:09Z</time></trkpt><trkpt lat="49.695960952336335" lon="19.996568748005693"><ele>656.0</ele><time>2026-05-06T08:50:11Z</time></trkpt><trkpt lat="49.6958975898369" lon="19.996564003362298"><ele>656.0</ele><time>2026-05-06T08:51:44Z</time></trkpt><trkpt lat="49.696008713590274" lon="19.996577674207273"><ele>656.0</ele><time>2026-05-06T08:52:16Z</time></trkpt><trkpt lat="49.69605336592491" lon="19.996680203178148"><ele>656.0</ele><time>2026-05-06T08:52:27.999Z</time></trkpt><trkpt lat="49.69611959161146" lon="19.99665435698747"><ele>656.0</ele><time>2026-05-06T08:52:31.999Z</time></trkpt><trkpt lat="49.69612126638646" lon="19.996761666804844"><ele>656.0</ele><time>2026-05-06T08:52:43.999Z</time></trkpt><trkpt lat="49.69607411558281" lon="19.996877714727926"><ele>656.0</ele><time>2026-05-06T08:52:46.999Z</time></trkpt><trkpt lat="49.696029962103914" lon="19.99695262335984"><ele>655.8333333333333</ele><time>2026-05-06T08:52:48.999Z</time></trkpt><trkpt lat="49.69597195460189" lon="19.9970104222747"><ele>655.6666666666666</ele><time>2026-05-06T08:52:50.999Z</time></trkpt><trkpt lat="49.69592801162871" lon="19.997090004135018"><ele>655.5</ele><time>2026-05-06T08:52:52.999Z</time></trkpt><trkpt lat="49.69588167589437" lon="19.99717910569049"><ele>655.3333333333334</ele><time>2026-05-06T08:52:54.999Z</time></trkpt><trkpt lat="49.69580620820267" lon="19.997259492867943"><ele>655.1666666666667</ele><time>2026-05-06T08:52:56.999Z</time></trkpt><trkpt lat="49.69572980620614" lon="19.997324014203713"><ele>655.0</ele><time>2026-05-06T08:52:59.999Z</time></trkpt><trkpt lat="49.69566020029214" lon="19.997358541998317"><ele>655.0</ele><time>2026-05-06T08:53:01.999Z</time></trkpt><trkpt lat="49.69558810074099" lon="19.997356149322023"><ele>655.0</ele><time>2026-05-06T08:53:04.999Z</time></trkpt><trkpt lat="49.695502684607526" lon="19.997285340276207"><ele>655.0</ele><time>2026-05-06T08:53:24.998Z</time></trkpt><trkpt lat="49.69543405731868" lon="19.997270436682637"><ele>655.0</ele><time>2026-05-06T08:53:27.998Z</time></trkpt><trkpt lat="49.695396241516534" lon="19.997363371149895"><ele>655.0</ele><time>2026-05-06T08:53:47Z</time></trkpt><trkpt lat="49.69536681450022" lon="19.99747077790182"><ele>655.0</ele><time>2026-05-06T08:53:54Z</time></trkpt><trkpt lat="49.69533760346798" lon="19.997578061389213"><ele>652.0</ele><time>2026-05-06T08:53:57Z</time></trkpt><trkpt lat="49.695277295315094" lon="19.997647832772373"><ele>649.0</ele><time>2026-05-06T08:54:02Z</time></trkpt><trkpt lat="49.69519132786959" lon="19.997709016150193"><ele>646.0</ele><time>2026-05-06T08:54:06Z</time></trkpt><trkpt lat="49.69512409971153" lon="19.99779410162009"><ele>643.0</ele><time>2026-05-06T08:54:08Z</time></trkpt><trkpt lat="49.69505151888926" lon="19.99784614225435"><ele>640.0</ele><time>2026-05-06T08:54:10Z</time></trkpt><trkpt lat="49.6949828666684" lon="19.99790582939966"><ele>637.0</ele><time>2026-05-06T08:54:13Z</time></trkpt><trkpt lat="49.69491979387386" lon="19.997890831726085"><ele>643.3333333333334</ele><time>2026-05-06T08:54:21Z</time></trkpt><trkpt lat="49.694828251110934" lon="19.997813341238253"><ele>649.6666666666667</ele><time>2026-05-06T08:54:23Z</time></trkpt><trkpt lat="49.6947307735159" lon="19.99775310464716"><ele>656.0</ele><time>2026-05-06T08:54:24.999Z</time></trkpt><trkpt lat="49.694681000111544" lon="19.997671871280247"><ele>662.3333333333334</ele><time>2026-05-06T08:54:26.999Z</time></trkpt><trkpt lat="49.694592817413294" lon="19.997659477314933"><ele>668.6666666666666</ele><time>2026-05-06T08:54:29.999Z</time></trkpt><trkpt lat="49.69452947561746" lon="19.997621399279538"><ele>675.0</ele><time>2026-05-06T08:54:31.999Z</time></trkpt><trkpt lat="49.69460374182671" lon="19.997604228891884"><ele>675.0</ele><time>2026-05-06T08:55:02.999Z</time></trkpt><trkpt lat="49.694589403602286" lon="19.997733913648666"><ele>675.0</ele><time>2026-05-06T08:55:09.999Z</time></trkpt><trkpt lat="49.694543270459654" lon="19.99785431185267"><ele>675.0</ele><time>2026-05-06T08:55:11.999Z</time></trkpt><trkpt lat="49.69450685315118" lon="19.997967012833517"><ele>675.0</ele><time>2026-05-06T08:55:13.999Z</time></trkpt><trkpt lat="49.694475882786016" lon="19.99807399850736"><ele>675.0</ele><time>2026-05-06T08:55:16.999Z</time></trkpt><trkpt lat="49.69445943107618" lon="19.99817345179251"><ele>675.0</ele><time>2026-05-06T08:55:18.999Z</time></trkpt><trkpt lat="49.6944318634306" lon="19.99830345374132"><ele>675.5714285714286</ele><time>2026-05-06T08:55:21.999Z</time></trkpt><trkpt lat="49.69443320265487" lon="19.99841728234868"><ele>676.1428571428571</ele><time>2026-05-06T08:55:24.999Z</time></trkpt><trkpt lat="49.69440242093418" lon="19.99851038263487"><ele>676.7142857142858</ele><time>2026-05-06T08:55:30.998Z</time></trkpt><trkpt lat="49.694386834811816" lon="19.998643021933862"><ele>677.2857142857142</ele><time>2026-05-06T08:55:32.998Z</time></trkpt><trkpt lat="49.6943822387388" lon="19.9987451454196"><ele>677.8571428571429</ele><time>2026-05-06T08:55:34.998Z</time></trkpt><trkpt lat="49.69436123966781" lon="19.998865902142164"><ele>678.4285714285714</ele><time>2026-05-06T08:55:37.998Z</time></trkpt><trkpt lat="49.69433976473011" lon="19.99895767489402"><ele>679.0</ele><time>2026-05-06T08:55:49Z</time></trkpt><trkpt lat="49.69432223835921" lon="19.999080639161665"><ele>686.1666666666667</ele><time>2026-05-06T08:55:51Z</time></trkpt><trkpt lat="49.69431197223492" lon="19.999197920562025"><ele>693.3333333333334</ele><time>2026-05-06T08:55:53Z</time></trkpt><trkpt lat="49.69428432548364" lon="19.999331615744175"><ele>700.5</ele><time>2026-05-06T08:55:55Z</time></trkpt><trkpt lat="49.69426722912147" lon="19.999429019026326"><ele>707.6666666666666</ele><time>2026-05-06T08:55:58Z</time></trkpt><trkpt lat="49.69431901404438" lon="19.999572617521707"><ele>714.8333333333333</ele><time>2026-05-06T08:56:01Z</time></trkpt><trkpt lat="49.69435200687144" lon="19.999677675808805"><ele>722.0</ele><time>2026-05-06T08:56:02Z</time></trkpt><trkpt lat="49.69438866153278" lon="19.999762601518313"><ele>716.8</ele><time>2026-05-06T08:56:03Z</time></trkpt><trkpt lat="49.69446225858928" lon="19.999866177956932"><ele>711.6</ele><time>2026-05-06T08:56:06Z</time></trkpt><trkpt lat="49.694487007663405" lon="20.000009899962244"><ele>706.4</ele><time>2026-05-06T08:56:08Z</time></trkpt><trkpt lat="49.694530877579105" lon="20.00016249381286"><ele>701.1999999999999</ele><time>2026-05-06T08:56:10Z</time></trkpt><trkpt lat="49.694545375428156" lon="20.000293508313"><ele>696.0</ele><time>2026-05-06T08:56:12Z</time></trkpt><trkpt lat="49.69450508688895" lon="20.00039215951263"><ele>696.0</ele><time>2026-05-06T08:56:16Z</time></trkpt><trkpt lat="49.69450371165088" lon="20.000497279625883"><ele>696.0</ele><time>2026-05-06T08:56:21Z</time></trkpt><trkpt lat="49.69459040831957" lon="20.000529372777276"><ele>696.0</ele><time>2026-05-06T08:56:30.999Z</time></trkpt><trkpt lat="49.69460076013089" lon="20.000632890707873"><ele>696.0</ele><time>2026-05-06T08:56:44.999Z</time></trkpt><trkpt lat="49.694596204495504" lon="20.000778835614465"><ele>696.0</ele><time>2026-05-06T08:56:47.999Z</time></trkpt><trkpt lat="49.694567129297916" lon="20.000921925395883"><ele>696.0</ele><time>2026-05-06T08:56:51.999Z</time></trkpt><trkpt lat="49.69456798698032" lon="20.001031217155322"><ele>699.0</ele><time>2026-05-06T08:56:53.999Z</time></trkpt><trkpt lat="49.69459788185948" lon="20.001154402680267"><ele>702.0</ele><time>2026-05-06T08:56:56.999Z</time></trkpt><trkpt lat="49.69461914491435" lon="20.001259751466378"><ele>705.0</ele><time>2026-05-06T08:56:58.999Z</time></trkpt><trkpt lat="49.69462152006884" lon="20.001432619216065"><ele>708.0</ele><time>2026-05-06T08:57:01.999Z</time></trkpt><trkpt lat="49.694643627635465" lon="20.001550897595838"><ele>711.0</ele><time>2026-05-06T08:57:03.999Z</time></trkpt><trkpt lat="49.694602612164594" lon="20.001679030514754"><ele>714.0</ele><time>2026-05-06T08:57:05.999Z</time></trkpt><trkpt lat="49.69453767112638" lon="20.001788845152497"><ele>716.6</ele><time>2026-05-06T08:57:07.999Z</time></trkpt><trkpt lat="49.69446290491619" lon="20.001757812203316"><ele>719.2</ele><time>2026-05-06T08:57:09.999Z</time></trkpt><trkpt lat="49.694477409916075" lon="20.001879512356936"><ele>721.8000000000001</ele><time>2026-05-06T08:57:13.999Z</time></trkpt><trkpt lat="49.694535540797084" lon="20.002071861249146"><ele>724.4000000000001</ele><time>2026-05-06T08:57:15.999Z</time></trkpt><trkpt lat="49.69456128474539" lon="20.00221871701091"><ele>727.0</ele><time>2026-05-06T08:57:17.999Z</time></trkpt><trkpt lat="49.69457493935881" lon="20.00238388545202"><ele>727.6666666666667</ele><time>2026-05-06T08:57:19.999Z</time></trkpt><trkpt lat="49.69460118494952" lon="20.002541400913742"><ele>728.3333333333334</ele><time>2026-05-06T08:57:21.999Z</time></trkpt><trkpt lat="49.69461254716188" lon="20.00272829128705"><ele>729.0</ele><time>2026-05-06T08:57:23.999Z</time></trkpt><trkpt lat="49.69461738334666" lon="20.002851106608755"><ele>729.6666666666666</ele><time>2026-05-06T08:57:25.999Z</time></trkpt><trkpt lat="49.69461900469244" lon="20.00295793424544"><ele>730.3333333333333</ele><time>2026-05-06T08:57:27.999Z</time></trkpt><trkpt lat="49.694643163022114" lon="20.00305471782065"><ele>731.0</ele><time>2026-05-06T08:57:29.999Z</time></trkpt><trkpt lat="49.69464082574838" lon="20.003175769844837"><ele>731.0</ele><time>2026-05-06T08:57:31.999Z</time></trkpt><trkpt lat="49.69466150611515" lon="20.00329726074736"><ele>731.0</ele><time>2026-05-06T08:57:33.998Z</time></trkpt><trkpt lat="49.69466867869088" lon="20.003434845865424"><ele>731.0</ele><time>2026-05-06T08:57:35.998Z</time></trkpt><trkpt lat="49.6946681305085" lon="20.00355695555348"><ele>731.0</ele><time>2026-05-06T08:57:37.998Z</time></trkpt><trkpt lat="49.69467645823633" lon="20.003668664583966"><ele>731.0</ele><time>2026-05-06T08:57:39.998Z</time></trkpt><trkpt lat="49.69468716884063" lon="20.003782704076706"><ele>731.0</ele><time>2026-05-06T08:57:41.998Z</time></trkpt><trkpt lat="49.69471456187754" lon="20.00390321073137"><ele>731.2857142857142</ele><time>2026-05-06T08:57:43.998Z</time></trkpt><trkpt lat="49.69471467771276" lon="20.004027713239484"><ele>731.5714285714286</ele><time>2026-05-06T08:57:45.998Z</time></trkpt><trkpt lat="49.69470522208763" lon="20.00413708949216"><ele>731.8571428571429</ele><time>2026-05-06T08:57:47.998Z</time></trkpt><trkpt lat="49.69469136346107" lon="20.00423795067451"><ele>732.1428571428571</ele><time>2026-05-06T08:57:53Z</time></trkpt><trkpt lat="49.69467841629802" lon="20.00434871558819"><ele>732.4285714285714</ele><time>2026-05-06T08:58:02Z</time></trkpt><trkpt lat="49.69467037690965" lon="20.00445955007326"><ele>732.7142857142857</ele><time>2026-05-06T08:58:20Z</time></trkpt><trkpt lat="49.6946960727391" lon="20.004572984218022"><ele>733.0</ele><time>2026-05-06T08:58:23Z</time></trkpt><trkpt lat="49.694741046769444" lon="20.00466154643652"><ele>732.4285714285713</ele><time>2026-05-06T08:58:25Z</time></trkpt><trkpt lat="49.69477369874183" lon="20.004770546813834"><ele>731.8571428571429</ele><time>2026-05-06T08:58:28Z</time></trkpt><trkpt lat="49.69480077689734" lon="20.004871469413654"><ele>731.2857142857142</ele><time>2026-05-06T08:58:32Z</time></trkpt><trkpt lat="49.694830316014624" lon="20.004967512587562"><ele>730.7142857142857</ele><time>2026-05-06T08:58:38Z</time></trkpt><trkpt lat="49.69486344924826" lon="20.005051982746156"><ele>730.1428571428571</ele><time>2026-05-06T08:58:39.999Z</time></trkpt><trkpt lat="49.694901691621325" lon="20.00514069453318"><ele>729.5714285714286</ele><time>2026-05-06T08:58:41.999Z</time></trkpt><trkpt lat="49.694949027095205" lon="20.005220580446785"><ele>729.0</ele><time>2026-05-06T08:58:44.999Z</time></trkpt><trkpt lat="49.69501960868715" lon="20.005285321518873"><ele>729.0</ele><time>2026-05-06T08:58:46.999Z</time></trkpt><trkpt lat="49.69507452866831" lon="20.005355464214258"><ele>729.0</ele><time>2026-05-06T08:58:48.999Z</time></trkpt><trkpt lat="49.69513819359209" lon="20.005456486522835"><ele>729.0</ele><time>2026-05-06T08:58:51.999Z</time></trkpt><trkpt lat="49.69508520141264" lon="20.00553954426244"><ele>729.0</ele><time>2026-05-06T08:59:00.999Z</time></trkpt><trkpt lat="49.69503728553919" lon="20.00563614665555"><ele>729.0</ele><time>2026-05-06T08:59:03.999Z</time></trkpt><trkpt lat="49.6949719301709" lon="20.005754012720857"><ele>729.0</ele><time>2026-05-06T08:59:05.999Z</time></trkpt><trkpt lat="49.69493665672429" lon="20.005846686526517"><ele>730.1666666666666</ele><time>2026-05-06T08:59:06.999Z</time></trkpt><trkpt lat="49.694881330781094" lon="20.005939585973255"><ele>731.3333333333334</ele><time>2026-05-06T08:59:07.999Z</time></trkpt><trkpt lat="49.69482568583284" lon="20.006017934802937"><ele>732.5</ele><time>2026-05-06T08:59:08.999Z</time></trkpt><trkpt lat="49.69473399451971" lon="20.006074397629646"><ele>733.6666666666667</ele><time>2026-05-06T08:59:09.999Z</time></trkpt><trkpt lat="49.69464881444892" lon="20.006090880818636"><ele>734.8333333333334</ele><time>2026-05-06T08:59:11.999Z</time></trkpt><trkpt lat="49.694584295705354" lon="20.006167568584292"><ele>736.0</ele><time>2026-05-06T08:59:13.999Z</time></trkpt><trkpt lat="49.69450030427684" lon="20.00620747180226"><ele>736.0</ele><time>2026-05-06T08:59:16.999Z</time></trkpt><trkpt lat="49.69455754252382" lon="20.006150563608518"><ele>736.0</ele><time>2026-05-06T08:59:55.998Z</time></trkpt><trkpt lat="49.69462218863801" lon="20.006179999885173"><ele>736.0</ele><time>2026-05-06T09:00:43Z</time></trkpt><trkpt lat="49.69462736442854" lon="20.00607762461217"><ele>736.0</ele><time>2026-05-06T09:00:46.999Z</time></trkpt><trkpt lat="49.69467779973779" lon="20.005978986555544"><ele>736.0</ele><time>2026-05-06T09:00:51.999Z</time></trkpt><trkpt lat="49.694748755086906" lon="20.005994043961902"><ele>736.0</ele><time>2026-05-06T09:00:55.999Z</time></trkpt><trkpt lat="49.69481421620311" lon="20.0059094653338"><ele>736.0</ele><time>2026-05-06T09:00:58.999Z</time></trkpt><trkpt lat="49.69488223162732" lon="20.005851206547064"><ele>736.0</ele><time>2026-05-06T09:01:00.999Z</time></trkpt><trkpt lat="49.69494933982555" lon="20.00576620853059"><ele>736.0</ele><time>2026-05-06T09:01:02.999Z</time></trkpt><trkpt lat="49.69499231179624" lon="20.00566014671931"><ele>736.0</ele><time>2026-05-06T09:01:04.999Z</time></trkpt><trkpt lat="49.695029641474754" lon="20.005579723686456"><ele>736.0</ele><time>2026-05-06T09:01:07.999Z</time></trkpt><trkpt lat="49.69500164757903" lon="20.005733141408594"><ele>736.0</ele><time>2026-05-06T09:01:14.999Z</time></trkpt><trkpt lat="49.69496977809996" lon="20.00583593579412"><ele>736.0</ele><time>2026-05-06T09:01:15.999Z</time></trkpt><trkpt lat="49.69486943478389" lon="20.005903282007353"><ele>736.0</ele><time>2026-05-06T09:01:16.999Z</time></trkpt><trkpt lat="49.69482260062173" lon="20.00600504075943"><ele>736.0</ele><time>2026-05-06T09:01:17.999Z</time></trkpt><trkpt lat="49.694770672358736" lon="20.006065296963722"><ele>736.0</ele><time>2026-05-06T09:01:18.999Z</time></trkpt><trkpt lat="49.69471155753308" lon="20.006104527853765"><ele>736.0</ele><time>2026-05-06T09:01:19.999Z</time></trkpt><trkpt lat="49.69464685773476" lon="20.00616185759479"><ele>736.0</ele><time>2026-05-06T09:01:21.999Z</time></trkpt><trkpt lat="49.69453289052388" lon="20.006196358104336"><ele>736.0</ele><time>2026-05-06T09:01:23.999Z</time></trkpt><trkpt lat="49.69446928730734" lon="20.00621758081055"><ele>736.0</ele><time>2026-05-06T09:01:27.999Z</time></trkpt><trkpt lat="49.69452072352112" lon="20.006145626187486"><ele>736.0</ele><time>2026-05-06T09:01:39.999Z</time></trkpt><trkpt lat="49.694471488001554" lon="20.006066727452385"><ele>736.0</ele><time>2026-05-06T09:04:34Z</time></trkpt><trkpt lat="49.69454704745707" lon="20.00604084882742"><ele>736.0</ele><time>2026-05-06T09:07:07.999Z</time></trkpt><trkpt lat="49.69447435985825" lon="20.006069674161527"><ele>736.0</ele><time>2026-05-06T09:07:14.999Z</time></trkpt><trkpt lat="49.69440520876723" lon="20.0060428073121"><ele>736.0</ele><time>2026-05-06T09:07:48.999Z</time></trkpt><trkpt lat="49.694363000808416" lon="20.00595972755394"><ele>736.0</ele><time>2026-05-06T09:07:52.999Z</time></trkpt><trkpt lat="49.69430565473646" lon="20.005880643752164"><ele>741.3333333333334</ele><time>2026-05-06T09:08:05.998Z</time></trkpt><trkpt lat="49.694272725280804" lon="20.0057818036615"><ele>746.6666666666667</ele><time>2026-05-06T09:08:09.998Z</time></trkpt><trkpt lat="49.6942757036241" lon="20.005656258455858"><ele>752.0</ele><time>2026-05-06T09:08:12.998Z</time></trkpt><trkpt lat="49.694245793520146" lon="20.005551154032297"><ele>757.3333333333334</ele><time>2026-05-06T09:08:17.998Z</time></trkpt><trkpt lat="49.69418533046641" lon="20.005475571798044"><ele>762.6666666666666</ele><time>2026-05-06T09:08:21Z</time></trkpt><trkpt lat="49.694165771314196" lon="20.0053305364778"><ele>768.0</ele><time>2026-05-06T09:08:23Z</time></trkpt><trkpt lat="49.69411901461983" lon="20.005243736283372"><ele>768.0</ele><time>2026-05-06T09:08:25Z</time></trkpt><trkpt lat="49.694064501693596" lon="20.005152791265086"><ele>768.0</ele><time>2026-05-06T09:08:27Z</time></trkpt><trkpt lat="49.69400872009852" lon="20.005039304609372"><ele>768.0</ele><time>2026-05-06T09:08:29Z</time></trkpt><trkpt lat="49.69397118287802" lon="20.004932939366682"><ele>768.0</ele><time>2026-05-06T09:08:31Z</time></trkpt><trkpt lat="49.69391789273671" lon="20.004821977690387"><ele>768.0</ele><time>2026-05-06T09:08:34Z</time></trkpt><trkpt lat="49.69386005338587" lon="20.00474356393099"><ele>768.0</ele><time>2026-05-06T09:08:36Z</time></trkpt><trkpt lat="49.693863296856165" lon="20.00463677254971"><ele>768.1428571428571</ele><time>2026-05-06T09:08:59Z</time></trkpt><trkpt lat="49.69382990851341" lon="20.004538292508496"><ele>768.2857142857142</ele><time>2026-05-06T09:09:02Z</time></trkpt><trkpt lat="49.69380343740804" lon="20.004447726223198"><ele>768.4285714285713</ele><time>2026-05-06T09:09:21.999Z</time></trkpt><trkpt lat="49.693808481906196" lon="20.004327244139326"><ele>768.5714285714286</ele><time>2026-05-06T09:09:23.999Z</time></trkpt><trkpt lat="49.693857383779175" lon="20.004229588136617"><ele>768.7142857142858</ele><time>2026-05-06T09:09:25.999Z</time></trkpt><trkpt lat="49.6938903057274" lon="20.004337867736805"><ele>768.8571428571428</ele><time>2026-05-06T09:09:28.999Z</time></trkpt><trkpt lat="49.693914408791294" lon="20.0044354305077"><ele>769.0</ele><time>2026-05-06T09:09:30.999Z</time></trkpt><trkpt lat="49.69393849933653" lon="20.004529162209245"><ele>769.0</ele><time>2026-05-06T09:09:34.999Z</time></trkpt><trkpt lat="49.69387036770361" lon="20.004575212140736"><ele>769.0</ele><time>2026-05-06T09:10:04.999Z</time></trkpt><trkpt lat="49.69383627010941" lon="20.004661881519972"><ele>769.0</ele><time>2026-05-06T09:10:07.999Z</time></trkpt><trkpt lat="49.69388200178344" lon="20.004758648490924"><ele>769.0</ele><time>2026-05-06T09:10:11.999Z</time></trkpt><trkpt lat="49.69393590056222" lon="20.004826265179926"><ele>769.0</ele><time>2026-05-06T09:10:14.998Z</time></trkpt><trkpt lat="49.69396964131178" lon="20.00491505767886"><ele>769.0</ele><time>2026-05-06T09:10:17.998Z</time></trkpt><trkpt lat="49.69399901635885" lon="20.005010690039793"><ele>769.0</ele><time>2026-05-06T09:10:27Z</time></trkpt><trkpt lat="49.69404766006773" lon="20.005095088078825"><ele>768.8333333333333</ele><time>2026-05-06T09:10:30Z</time></trkpt><trkpt lat="49.69410839181835" lon="20.005191252592116"><ele>768.6666666666666</ele><time>2026-05-06T09:10:33Z</time></trkpt><trkpt lat="49.69415038875109" lon="20.005283307238074"><ele>768.5</ele><time>2026-05-06T09:10:35Z</time></trkpt><trkpt lat="49.69419417914689" lon="20.005399037169923"><ele>768.3333333333333</ele><time>2026-05-06T09:10:38Z</time></trkpt><trkpt lat="49.69425377776256" lon="20.005464392080754"><ele>768.1666666666666</ele><time>2026-05-06T09:10:41Z</time></trkpt><trkpt lat="49.69433069963082" lon="20.005525903523036"><ele>768.0</ele><time>2026-05-06T09:10:44Z</time></trkpt><trkpt lat="49.694400200119226" lon="20.005522406571963"><ele>761.5</ele><time>2026-05-06T09:10:49Z</time></trkpt><trkpt lat="49.694476117994434" lon="20.005559835760884"><ele>755.0</ele><time>2026-05-06T09:10:53Z</time></trkpt><trkpt lat="49.694564416546854" lon="20.00555904490529"><ele>748.5</ele><time>2026-05-06T09:11:00Z</time></trkpt><trkpt lat="49.694637697231876" lon="20.00555906865408"><ele>742.0</ele><time>2026-05-06T09:11:03Z</time></trkpt><trkpt lat="49.69470875392589" lon="20.005563476525495"><ele>735.5</ele><time>2026-05-06T09:11:06Z</time></trkpt><trkpt lat="49.69478031063264" lon="20.005590792371503"><ele>729.0</ele><time>2026-05-06T09:11:09Z</time></trkpt><trkpt lat="49.69486009886725" lon="20.00553405425647"><ele>729.0</ele><time>2026-05-06T09:11:12Z</time></trkpt><trkpt lat="49.69494087316206" lon="20.005502652391357"><ele>729.0</ele><time>2026-05-06T09:11:13.999Z</time></trkpt><trkpt lat="49.695019140231494" lon="20.005443957832334"><ele>729.0</ele><time>2026-05-06T09:11:16.999Z</time></trkpt><trkpt lat="49.69510586263162" lon="20.005443716013346"><ele>729.0</ele><time>2026-05-06T09:11:18.999Z</time></trkpt><trkpt lat="49.6951939250294" lon="20.005497541725354"><ele>729.0</ele><time>2026-05-06T09:11:20.999Z</time></trkpt><trkpt lat="49.69524347878574" lon="20.005566712016094"><ele>729.0</ele><time>2026-05-06T09:11:23.999Z</time></trkpt><trkpt lat="49.69529425133118" lon="20.005650140459636"><ele>728.5</ele><time>2026-05-06T09:11:26.999Z</time></trkpt><trkpt lat="49.69532785802932" lon="20.005732643822313"><ele>728.0</ele><time>2026-05-06T09:11:28.999Z</time></trkpt><trkpt lat="49.69537613951828" lon="20.005818383740213"><ele>727.5</ele><time>2026-05-06T09:11:30.999Z</time></trkpt><trkpt lat="49.695419828435426" lon="20.00592362464783"><ele>727.0</ele><time>2026-05-06T09:11:32.999Z</time></trkpt><trkpt lat="49.69541475672435" lon="20.006055109739435"><ele>726.5</ele><time>2026-05-06T09:11:35.999Z</time></trkpt><trkpt lat="49.69542766733712" lon="20.006219277687446"><ele>726.0</ele><time>2026-05-06T09:11:38.999Z</time></trkpt><trkpt lat="49.695470472415494" lon="20.00636520811749"><ele>726.0</ele><time>2026-05-06T09:11:40.999Z</time></trkpt><trkpt lat="49.695574367968575" lon="20.006462860808224"><ele>726.0</ele><time>2026-05-06T09:11:42.999Z</time></trkpt><trkpt lat="49.69563409488608" lon="20.00650523790862"><ele>726.0</ele><time>2026-05-06T09:11:43.999Z</time></trkpt><trkpt lat="49.69566042400799" lon="20.00659830969184"><ele>726.0</ele><time>2026-05-06T09:11:45.999Z</time></trkpt><trkpt lat="49.69570095260354" lon="20.00668650419567"><ele>726.0</ele><time>2026-05-06T09:11:47.999Z</time></trkpt><trkpt lat="49.69574074853542" lon="20.00682151463901"><ele>726.0</ele><time>2026-05-06T09:11:49.999Z</time></trkpt><trkpt lat="49.695731316378144" lon="20.0069469824855"><ele>729.1666666666666</ele><time>2026-05-06T09:11:51.999Z</time></trkpt><trkpt lat="49.69575607115742" lon="20.007040990366992"><ele>732.3333333333334</ele><time>2026-05-06T09:11:53.999Z</time></trkpt><trkpt lat="49.69571083742484" lon="20.007141034210527"><ele>735.5</ele><time>2026-05-06T09:11:56.999Z</time></trkpt><trkpt lat="49.6956961467329" lon="20.00724795455341"><ele>738.6666666666667</ele><time>2026-05-06T09:11:59.999Z</time></trkpt><trkpt lat="49.695721706224035" lon="20.007395143316334"><ele>741.8333333333334</ele><time>2026-05-06T09:12:02.999Z</time></trkpt><trkpt lat="49.695716962350104" lon="20.00752312906868"><ele>745.0</ele><time>2026-05-06T09:12:05.999Z</time></trkpt><trkpt lat="49.69571301710838" lon="20.00763047127508"><ele>748.3333333333334</ele><time>2026-05-06T09:12:07.999Z</time></trkpt><trkpt lat="49.69571764964374" lon="20.00777384468504"><ele>751.6666666666667</ele><time>2026-05-06T09:12:10.999Z</time></trkpt><trkpt lat="49.695719532442986" lon="20.00787618489475"><ele>755.0</ele><time>2026-05-06T09:12:13.999Z</time></trkpt><trkpt lat="49.69569665224459" lon="20.007976172614825"><ele>758.3333333333334</ele><time>2026-05-06T09:12:15.998Z</time></trkpt><trkpt lat="49.69573626343737" lon="20.00808440161786"><ele>761.6666666666666</ele><time>2026-05-06T09:12:17.998Z</time></trkpt><trkpt lat="49.69579845224665" lon="20.008170803979873"><ele>765.0</ele><time>2026-05-06T09:12:19.998Z</time></trkpt><trkpt lat="49.69581294237291" lon="20.008283075974497"><ele>765.0000000000001</ele><time>2026-05-06T09:12:21.998Z</time></trkpt><trkpt lat="49.69587805937925" lon="20.008278529095932"><ele>765.0</ele><time>2026-05-06T09:12:24.998Z</time></trkpt><trkpt lat="49.695947087993" lon="20.008244762389033"><ele>765.0</ele><time>2026-05-06T09:12:31.998Z</time></trkpt><trkpt lat="49.69597518878089" lon="20.00834029111886"><ele>765.0</ele><time>2026-05-06T09:12:50Z</time></trkpt><trkpt lat="49.696032234584514" lon="20.008415698081524"><ele>765.0</ele><time>2026-05-06T09:13:06Z</time></trkpt><trkpt lat="49.69608074560726" lon="20.00849106294238"><ele>765.0000000000001</ele><time>2026-05-06T09:13:09Z</time></trkpt><trkpt lat="49.69614001494628" lon="20.008583155231413"><ele>765.0</ele><time>2026-05-06T09:13:12Z</time></trkpt><trkpt lat="49.696202678779244" lon="20.008693994953802"><ele>764.6666666666666</ele><time>2026-05-06T09:13:15Z</time></trkpt><trkpt lat="49.69627619758074" lon="20.00880218615513"><ele>764.3333333333334</ele><time>2026-05-06T09:13:18Z</time></trkpt><trkpt lat="49.69631020606804" lon="20.00889175487986"><ele>764.0</ele><time>2026-05-06T09:13:20Z</time></trkpt><trkpt lat="49.69636853430436" lon="20.00895887282865"><ele>763.6666666666667</ele><time>2026-05-06T09:13:22.999Z</time></trkpt><trkpt lat="49.69640664340344" lon="20.00907837059818"><ele>763.3333333333334</ele><time>2026-05-06T09:13:26.999Z</time></trkpt><trkpt lat="49.696426930502334" lon="20.00918135109999"><ele>763.0</ele><time>2026-05-06T09:13:29.999Z</time></trkpt><trkpt lat="49.696471947871785" lon="20.00927893802716"><ele>760.5</ele><time>2026-05-06T09:13:31.999Z</time></trkpt><trkpt lat="49.69648164246626" lon="20.00939831271773"><ele>758.0</ele><time>2026-05-06T09:13:33.999Z</time></trkpt><trkpt lat="49.69650271762557" lon="20.009519623372633"><ele>755.5</ele><time>2026-05-06T09:13:35.999Z</time></trkpt><trkpt lat="49.69656314797647" lon="20.009645471664754"><ele>753.0</ele><time>2026-05-06T09:13:37.999Z</time></trkpt><trkpt lat="49.696567422504046" lon="20.009771752704026"><ele>750.5</ele><time>2026-05-06T09:13:39.999Z</time></trkpt><trkpt lat="49.69657673811066" lon="20.009884670914445"><ele>748.0</ele><time>2026-05-06T09:13:43.999Z</time></trkpt><trkpt lat="49.69660638342571" lon="20.010007228992805"><ele>744.8571428571428</ele><time>2026-05-06T09:13:46.999Z</time></trkpt><trkpt lat="49.69665774188061" lon="20.010091403681628"><ele>741.7142857142858</ele><time>2026-05-06T09:13:49.999Z</time></trkpt><trkpt lat="49.696669035797626" lon="20.010208601423404"><ele>738.5714285714286</ele><time>2026-05-06T09:13:51.999Z</time></trkpt><trkpt lat="49.69673952953051" lon="20.010253482517786"><ele>735.4285714285713</ele><time>2026-05-06T09:13:54.999Z</time></trkpt><trkpt lat="49.69677977980247" lon="20.010349032202306"><ele>732.2857142857142</ele><time>2026-05-06T09:13:56.999Z</time></trkpt><trkpt lat="49.696832942944155" lon="20.010417370718365"><ele>729.1428571428571</ele><time>2026-05-06T09:13:59.999Z</time></trkpt><trkpt lat="49.6968487680985" lon="20.010524006642527"><ele>726.0</ele><time>2026-05-06T09:14:30.998Z</time></trkpt><trkpt lat="49.69687910190413" lon="20.01062033287979"><ele>726.0</ele><time>2026-05-06T09:14:34.998Z</time></trkpt><trkpt lat="49.696899277072575" lon="20.01075318976337"><ele>726.0</ele><time>2026-05-06T09:14:37.998Z</time></trkpt><trkpt lat="49.69693426657837" lon="20.01084202709714"><ele>726.0</ele><time>2026-05-06T09:14:42Z</time></trkpt><trkpt lat="49.69698474340971" lon="20.010938733645553"><ele>726.0</ele><time>2026-05-06T09:14:47Z</time></trkpt><trkpt lat="49.69698926108355" lon="20.011073928616536"><ele>726.0</ele><time>2026-05-06T09:14:51Z</time></trkpt><trkpt lat="49.69702817929773" lon="20.01115634513325"><ele>726.0</ele><time>2026-05-06T09:15:00Z</time></trkpt><trkpt lat="49.697050872416135" lon="20.01125077665168"><ele>720.1666666666666</ele><time>2026-05-06T09:15:07Z</time></trkpt><trkpt lat="49.69703579793881" lon="20.011378326398514"><ele>714.3333333333334</ele><time>2026-05-06T09:15:11Z</time></trkpt><trkpt lat="49.69706917864572" lon="20.01148456494648"><ele>708.5</ele><time>2026-05-06T09:15:14Z</time></trkpt><trkpt lat="49.69709849868504" lon="20.01158011467461"><ele>702.6666666666667</ele><time>2026-05-06T09:15:18Z</time></trkpt><trkpt lat="49.69711075486694" lon="20.011680042481622"><ele>696.8333333333334</ele><time>2026-05-06T09:15:22.999Z</time></trkpt><trkpt lat="49.697105957022366" lon="20.011785123987817"><ele>691.0</ele><time>2026-05-06T09:15:24.999Z</time></trkpt><trkpt lat="49.69703193697445" lon="20.011881129402177"><ele>686.8333333333334</ele><time>2026-05-06T09:15:27.999Z</time></trkpt><trkpt lat="49.69698003551994" lon="20.011991614735603"><ele>682.6666666666667</ele><time>2026-05-06T09:15:31.999Z</time></trkpt><trkpt lat="49.696985529210025" lon="20.012093264375068"><ele>678.5</ele><time>2026-05-06T09:15:34.999Z</time></trkpt><trkpt lat="49.696963531550345" lon="20.012223576410648"><ele>674.3333333333334</ele><time>2026-05-06T09:15:37.999Z</time></trkpt><trkpt lat="49.69700947195462" lon="20.012341895536615"><ele>670.1666666666666</ele><time>2026-05-06T09:15:41.999Z</time></trkpt><trkpt lat="49.697030477077874" lon="20.01245759557698"><ele>666.0</ele><time>2026-05-06T09:15:44.999Z</time></trkpt><trkpt lat="49.69702068923032" lon="20.012584637718764"><ele>661.0</ele><time>2026-05-06T09:15:46.999Z</time></trkpt><trkpt lat="49.697011917586586" lon="20.01270658220286"><ele>656.0</ele><time>2026-05-06T09:15:49.999Z</time></trkpt><trkpt lat="49.69698528179478" lon="20.01281940499009"><ele>651.0</ele><time>2026-05-06T09:15:52.999Z</time></trkpt><trkpt lat="49.69700906294405" lon="20.012918985212682"><ele>646.0</ele><time>2026-05-06T09:15:55.999Z</time></trkpt><trkpt lat="49.697034765520215" lon="20.013039837495946"><ele>641.0</ele><time>2026-05-06T09:15:59.999Z</time></trkpt><trkpt lat="49.69703152797127" lon="20.013229747860432"><ele>636.0</ele><time>2026-05-06T09:16:03.999Z</time></trkpt><trkpt lat="49.697000362080054" lon="20.01335188537151"><ele>632.4285714285714</ele><time>2026-05-06T09:16:07.999Z</time></trkpt><trkpt lat="49.69700026526943" lon="20.013466924649958"><ele>628.8571428571429</ele><time>2026-05-06T09:16:10.999Z</time></trkpt><trkpt lat="49.6970019878709" lon="20.01357076899161"><ele>625.2857142857143</ele><time>2026-05-06T09:16:13.999Z</time></trkpt><trkpt lat="49.69696975811268" lon="20.013659049108746"><ele>621.7142857142858</ele><time>2026-05-06T09:16:15.999Z</time></trkpt><trkpt lat="49.696978330433424" lon="20.01376772770516"><ele>618.1428571428571</ele><time>2026-05-06T09:16:19.999Z</time></trkpt><trkpt lat="49.696980504868215" lon="20.013869790994335"><ele>614.5714285714287</ele><time>2026-05-06T09:16:22.998Z</time></trkpt><trkpt lat="49.69703885067129" lon="20.01397058913361"><ele>611.0</ele><time>2026-05-06T09:16:25.998Z</time></trkpt><trkpt lat="49.697104972416646" lon="20.01408411736587"><ele>607.1666666666666</ele><time>2026-05-06T09:16:28.998Z</time></trkpt><trkpt lat="49.697139718355565" lon="20.014179247296894"><ele>603.3333333333333</ele><time>2026-05-06T09:16:30.998Z</time></trkpt><trkpt lat="49.69714042294883" lon="20.014343866078192"><ele>599.5</ele><time>2026-05-06T09:16:33.998Z</time></trkpt><trkpt lat="49.69715872321024" lon="20.014469196222983"><ele>595.6666666666666</ele><time>2026-05-06T09:16:35.998Z</time></trkpt><trkpt lat="49.69717873820054" lon="20.014609298394014"><ele>591.8333333333334</ele><time>2026-05-06T09:16:38.998Z</time></trkpt><trkpt lat="49.69720755036787" lon="20.014725325139292"><ele>588.0</ele><time>2026-05-06T09:16:41.998Z</time></trkpt><trkpt lat="49.6972527133565" lon="20.01485442811188"><ele>588.0</ele><time>2026-05-06T09:16:45Z</time></trkpt><trkpt lat="49.69727168188291" lon="20.01497826798971"><ele>588.0</ele><time>2026-05-06T09:16:47Z</time></trkpt><trkpt lat="49.69732232812449" lon="20.015102869340865"><ele>588.0</ele><time>2026-05-06T09:16:49Z</time></trkpt><trkpt lat="49.69739686518466" lon="20.01508891796701"><ele>588.0</ele><time>2026-05-06T09:17:23Z</time></trkpt><trkpt lat="49.69733152972186" lon="20.015089909945996"><ele>588.0</ele><time>2026-05-06T09:17:54.999Z</time></trkpt><trkpt lat="49.69734531390198" lon="20.01518635926038"><ele>588.0</ele><time>2026-05-06T09:18:10.999Z</time></trkpt><trkpt lat="49.697376627441095" lon="20.015312809552775"><ele>585.0</ele><time>2026-05-06T09:18:13.999Z</time></trkpt><trkpt lat="49.69742401093037" lon="20.015407067500256"><ele>582.0</ele><time>2026-05-06T09:18:16.999Z</time></trkpt><trkpt lat="49.697466378201945" lon="20.01549613680272"><ele>579.0</ele><time>2026-05-06T09:18:19.999Z</time></trkpt><trkpt lat="49.69750373908914" lon="20.015626797419976"><ele>576.0</ele><time>2026-05-06T09:18:22.999Z</time></trkpt><trkpt lat="49.6975085731813" lon="20.015728860189917"><ele>573.0</ele><time>2026-05-06T09:18:25.999Z</time></trkpt><trkpt lat="49.69752272682184" lon="20.01584187530514"><ele>570.0</ele><time>2026-05-06T09:18:38.998Z</time></trkpt><trkpt lat="49.697548955032964" lon="20.01593420141656"><ele>567.0</ele><time>2026-05-06T09:18:43.998Z</time></trkpt><trkpt lat="49.69759607943552" lon="20.016027437271035"><ele>564.1428571428571</ele><time>2026-05-06T09:18:48.998Z</time></trkpt><trkpt lat="49.69762504971929" lon="20.01611876637706"><ele>561.2857142857142</ele><time>2026-05-06T09:19:04Z</time></trkpt><trkpt lat="49.69767661086389" lon="20.016186924141863"><ele>558.4285714285714</ele><time>2026-05-06T09:19:07Z</time></trkpt><trkpt lat="49.697668471855394" lon="20.016303978605965"><ele>555.5714285714286</ele><time>2026-05-06T09:19:11Z</time></trkpt><trkpt lat="49.697694248645696" lon="20.01641938746962"><ele>552.7142857142857</ele><time>2026-05-06T09:19:15Z</time></trkpt><trkpt lat="49.69774477280074" lon="20.016493628895024"><ele>549.8571428571429</ele><time>2026-05-06T09:19:18Z</time></trkpt><trkpt lat="49.697786310654436" lon="20.016616230363564"><ele>547.0</ele><time>2026-05-06T09:19:21Z</time></trkpt><trkpt lat="49.69783220896176" lon="20.016714939118618"><ele>540.5</ele><time>2026-05-06T09:19:24Z</time></trkpt><trkpt lat="49.69786543592606" lon="20.016815850415192"><ele>534.0</ele><time>2026-05-06T09:19:28Z</time></trkpt><trkpt lat="49.697899379152425" lon="20.016920681913852"><ele>527.5</ele><time>2026-05-06T09:19:31.999Z</time></trkpt><trkpt lat="49.6979284272479" lon="20.017031797770617"><ele>521.0</ele><time>2026-05-06T09:19:33.999Z</time></trkpt><trkpt lat="49.69795843784606" lon="20.01718468636136"><ele>514.5</ele><time>2026-05-06T09:19:35.999Z</time></trkpt><trkpt lat="49.697975993342034" lon="20.017282976294297"><ele>508.0</ele><time>2026-05-06T09:19:36.999Z</time></trkpt><trkpt lat="49.69802523398486" lon="20.017424879175397"><ele>508.0</ele><time>2026-05-06T09:19:38.999Z</time></trkpt><trkpt lat="49.69795370726453" lon="20.01748925276176"><ele>507.99999999999994</ele><time>2026-05-06T09:19:41.999Z</time></trkpt><trkpt lat="49.69786411207884" lon="20.017461782911468"><ele>507.99999999999994</ele><time>2026-05-06T09:19:43.999Z</time></trkpt><trkpt lat="49.69777023262552" lon="20.01743028020572"><ele>508.0</ele><time>2026-05-06T09:19:45.999Z</time></trkpt><trkpt lat="49.69765334138659" lon="20.017386206521238"><ele>508.0</ele><time>2026-05-06T09:19:47.999Z</time></trkpt><trkpt lat="49.69755946092689" lon="20.017301247458885"><ele>511.59999999999997</ele><time>2026-05-06T09:19:49.999Z</time></trkpt><trkpt lat="49.697478511179376" lon="20.017210458473702"><ele>515.1999999999999</ele><time>2026-05-06T09:19:51.999Z</time></trkpt><trkpt lat="49.69742261917051" lon="20.017091312414404"><ele>518.8</ele><time>2026-05-06T09:19:53.999Z</time></trkpt><trkpt lat="49.69731532380531" lon="20.01703375238232"><ele>522.4</ele><time>2026-05-06T09:19:55.999Z</time></trkpt><trkpt lat="49.69722073710767" lon="20.016942467931433"><ele>526.0</ele><time>2026-05-06T09:19:58.999Z</time></trkpt><trkpt lat="49.69716039422945" lon="20.016908029212168"><ele>526.0</ele><time>2026-05-06T09:19:59.999Z</time></trkpt><trkpt lat="49.69714137828866" lon="20.01677024093196"><ele>526.0</ele><time>2026-05-06T09:20:01.999Z</time></trkpt><trkpt lat="49.697089625154824" lon="20.016699787439574"><ele>526.0</ele><time>2026-05-06T09:20:02.999Z</time></trkpt><trkpt lat="49.69699555409745" lon="20.016659683211618"><ele>526.0</ele><time>2026-05-06T09:20:04.999Z</time></trkpt><trkpt lat="49.69691624715945" lon="20.01656951315181"><ele>526.0</ele><time>2026-05-06T09:20:06.999Z</time></trkpt><trkpt lat="49.69685282749165" lon="20.01640788241736"><ele>530.0</ele><time>2026-05-06T09:20:08.999Z</time></trkpt><trkpt lat="49.69677099121599" lon="20.016304551379147"><ele>534.0</ele><time>2026-05-06T09:20:10.999Z</time></trkpt><trkpt lat="49.69668125752087" lon="20.016240120818807"><ele>538.0</ele><time>2026-05-06T09:20:12.999Z</time></trkpt><trkpt lat="49.696627545387834" lon="20.01614156278909"><ele>542.0</ele><time>2026-05-06T09:20:14.999Z</time></trkpt><trkpt lat="49.6965745462509" lon="20.016048154171923"><ele>546.0</ele><time>2026-05-06T09:20:16.999Z</time></trkpt><trkpt lat="49.69651331700025" lon="20.016006755556077"><ele>550.0</ele><time>2026-05-06T09:20:18.999Z</time></trkpt><trkpt lat="49.69643342711902" lon="20.01591283844497"><ele>550.0</ele><time>2026-05-06T09:20:20.999Z</time></trkpt><trkpt lat="49.69635449211551" lon="20.015825337807307"><ele>550.0</ele><time>2026-05-06T09:20:22.999Z</time></trkpt><trkpt lat="49.696271799721536" lon="20.015725649783757"><ele>550.0</ele><time>2026-05-06T09:20:24.999Z</time></trkpt><trkpt lat="49.69619421427605" lon="20.015645944387153"><ele>550.0</ele><time>2026-05-06T09:20:26.999Z</time></trkpt><trkpt lat="49.69610826761518" lon="20.01554174319583"><ele>550.0</ele><time>2026-05-06T09:20:28.999Z</time></trkpt><trkpt lat="49.69601893018071" lon="20.015462239589557"><ele>553.3333333333334</ele><time>2026-05-06T09:20:30.999Z</time></trkpt><trkpt lat="49.69592914374722" lon="20.01542656520461"><ele>556.6666666666667</ele><time>2026-05-06T09:20:32.999Z</time></trkpt><trkpt lat="49.69585736838875" lon="20.015365589058874"><ele>560.0</ele><time>2026-05-06T09:20:34.998Z</time></trkpt><trkpt lat="49.69578683637174" lon="20.01522725310409"><ele>563.3333333333334</ele><time>2026-05-06T09:20:36.998Z</time></trkpt><trkpt lat="49.69575874428801" lon="20.015140088616217"><ele>566.6666666666666</ele><time>2026-05-06T09:20:37.998Z</time></trkpt><trkpt lat="49.6957307727718" lon="20.01503594877437"><ele>570.0</ele><time>2026-05-06T09:20:39.998Z</time></trkpt><trkpt lat="49.69570297540225" lon="20.0149318184338"><ele>573.1666666666666</ele><time>2026-05-06T09:20:41.998Z</time></trkpt><trkpt lat="49.695657647994864" lon="20.014842974174933"><ele>576.3333333333334</ele><time>2026-05-06T09:20:45.998Z</time></trkpt><trkpt lat="49.695611968030484" lon="20.014746997013944"><ele>579.5</ele><time>2026-05-06T09:20:47.998Z</time></trkpt><trkpt lat="49.695554398396055" lon="20.01467602571271"><ele>582.6666666666667</ele><time>2026-05-06T09:20:50.998Z</time></trkpt><trkpt lat="49.695558526698385" lon="20.014565064479697"><ele>585.8333333333334</ele><time>2026-05-06T09:21:16Z</time></trkpt><trkpt lat="49.69550601597022" lon="20.014423609490674"><ele>589.0</ele><time>2026-05-06T09:21:20Z</time></trkpt><trkpt lat="49.6954544203244" lon="20.01435940495398"><ele>589.0</ele><time>2026-05-06T09:21:22Z</time></trkpt><trkpt lat="49.69544918016611" lon="20.014252679905287"><ele>589.0</ele><time>2026-05-06T09:21:25Z</time></trkpt><trkpt lat="49.69537780453317" lon="20.0142513689279"><ele>589.0</ele><time>2026-05-06T09:21:42Z</time></trkpt><trkpt lat="49.695338990811464" lon="20.014149471365844"><ele>589.0</ele><time>2026-05-06T09:21:45.999Z</time></trkpt><trkpt lat="49.69530758391465" lon="20.014045841917646"><ele>589.0</ele><time>2026-05-06T09:21:51.999Z</time></trkpt><trkpt lat="49.69528323770291" lon="20.01394816424197"><ele>589.0</ele><time>2026-05-06T09:21:55.999Z</time></trkpt><trkpt lat="49.69525516880029" lon="20.013814751644475"><ele>592.8333333333334</ele><time>2026-05-06T09:21:58.999Z</time></trkpt><trkpt lat="49.69519323363199" lon="20.01376049266137"><ele>596.6666666666667</ele><time>2026-05-06T09:22:00.999Z</time></trkpt><trkpt lat="49.69520291646814" lon="20.013640815755085"><ele>600.5</ele><time>2026-05-06T09:22:02.999Z</time></trkpt><trkpt lat="49.69513819234456" lon="20.013558888617947"><ele>604.3333333333334</ele><time>2026-05-06T09:22:04.999Z</time></trkpt><trkpt lat="49.69517835103105" lon="20.013479993016542"><ele>608.1666666666666</ele><time>2026-05-06T09:22:09.999Z</time></trkpt><trkpt lat="49.695145008938375" lon="20.013379109656686"><ele>612.0</ele><time>2026-05-06T09:22:14.999Z</time></trkpt><trkpt lat="49.69511261468119" lon="20.01324861022049"><ele>612.0</ele><time>2026-05-06T09:22:18.999Z</time></trkpt><trkpt lat="49.695035210751634" lon="20.013260513315906"><ele>612.0</ele><time>2026-05-06T09:22:57.998Z</time></trkpt><trkpt lat="49.69497075299979" lon="20.013306993971753"><ele>612.0</ele><time>2026-05-06T09:23:00.998Z</time></trkpt><trkpt lat="49.69490970989678" lon="20.01335202604171"><ele>612.0</ele><time>2026-05-06T09:23:08Z</time></trkpt><trkpt lat="49.69484109661295" lon="20.01336740104242"><ele>612.0</ele><time>2026-05-06T09:23:17Z</time></trkpt><trkpt lat="49.69476632269654" lon="20.013358056795642"><ele>612.0</ele><time>2026-05-06T09:23:46Z</time></trkpt><trkpt lat="49.69469281159857" lon="20.0134069971054"><ele>612.0</ele><time>2026-05-06T09:24:03.999Z</time></trkpt><trkpt lat="49.694628341148785" lon="20.013419574061913"><ele>615.6666666666666</ele><time>2026-05-06T09:24:05.999Z</time></trkpt><trkpt lat="49.69463918697591" lon="20.01330021095789"><ele>619.3333333333334</ele><time>2026-05-06T09:25:17Z</time></trkpt><trkpt lat="49.69457071048522" lon="20.013205900678408"><ele>623.0</ele><time>2026-05-06T09:25:19Z</time></trkpt><trkpt lat="49.69450043803109" lon="20.013046434593953"><ele>626.6666666666667</ele><time>2026-05-06T09:25:21Z</time></trkpt><trkpt lat="49.69442937156691" lon="20.013027540317612"><ele>630.3333333333334</ele><time>2026-05-06T09:25:23Z</time></trkpt><trkpt lat="49.69436994384223" lon="20.013070327546558"><ele>634.0</ele><time>2026-05-06T09:25:26Z</time></trkpt><trkpt lat="49.694315808363754" lon="20.01301311678932"><ele>638.1428571428571</ele><time>2026-05-06T09:25:37Z</time></trkpt><trkpt lat="49.69433888593989" lon="20.012920490876716"><ele>642.2857142857142</ele><time>2026-05-06T09:25:54.999Z</time></trkpt><trkpt lat="49.69435161316907" lon="20.012796545483816"><ele>646.4285714285713</ele><time>2026-05-06T09:26:07.999Z</time></trkpt><trkpt lat="49.6943337181749" lon="20.012687654925628"><ele>650.5714285714286</ele><time>2026-05-06T09:26:43.999Z</time></trkpt><trkpt lat="49.694305201684294" lon="20.012597426413592"><ele>654.7142857142857</ele><time>2026-05-06T09:26:46.999Z</time></trkpt><trkpt lat="49.69435463550694" lon="20.012675792939646"><ele>658.8571428571428</ele><time>2026-05-06T09:27:33Z</time></trkpt><trkpt lat="49.69432447262409" lon="20.01256435176015"><ele>663.0</ele><time>2026-05-06T09:28:01.999Z</time></trkpt><trkpt lat="49.69426195483567" lon="20.012533590536506"><ele>663.0</ele><time>2026-05-06T09:28:03.999Z</time></trkpt><trkpt lat="49.694318508642375" lon="20.012616228818892"><ele>663.0</ele><time>2026-05-06T09:28:48.999Z</time></trkpt><trkpt lat="49.69438672306703" lon="20.012630324517346"><ele>663.0</ele><time>2026-05-06T09:29:04.998Z</time></trkpt><trkpt lat="49.694314067377256" lon="20.01258576654805"><ele>663.0</ele><time>2026-05-06T09:32:37.999Z</time></trkpt><trkpt lat="49.69423944278363" lon="20.012565607511164"><ele>663.0</ele><time>2026-05-06T09:32:39.999Z</time></trkpt><trkpt lat="49.69417743472454" lon="20.01258272669577"><ele>663.0</ele><time>2026-05-06T09:32:40.999Z</time></trkpt><trkpt lat="49.69407562316259" lon="20.012548537350867"><ele>663.0</ele><time>2026-05-06T09:32:42.999Z</time></trkpt><trkpt lat="49.69400340510047" lon="20.01250402364009"><ele>663.0</ele><time>2026-05-06T09:32:44.999Z</time></trkpt><trkpt lat="49.69401962904586" lon="20.01240243390685"><ele>663.0</ele><time>2026-05-06T09:32:58.999Z</time></trkpt><trkpt lat="49.69395765139672" lon="20.01237460088634"><ele>663.0</ele><time>2026-05-06T09:33:30.998Z</time></trkpt><trkpt lat="49.69391438167795" lon="20.012293158764724"><ele>663.0</ele><time>2026-05-06T09:34:51.999Z</time></trkpt><trkpt lat="49.69385520579115" lon="20.012244211088333"><ele>663.0</ele><time>2026-05-06T09:34:55.999Z</time></trkpt><trkpt lat="49.6937701169148" lon="20.012348410638833"><ele>664.9999999999999</ele><time>2026-05-06T09:35:42Z</time></trkpt><trkpt lat="49.69380614996854" lon="20.01226112999396"><ele>667.0</ele><time>2026-05-06T09:36:30.999Z</time></trkpt><trkpt lat="49.693786539914875" lon="20.01237379407025"><ele>669.0</ele><time>2026-05-06T09:37:41.998Z</time></trkpt><trkpt lat="49.69371919505219" lon="20.0123847434562"><ele>671.0</ele><time>2026-05-06T09:38:22Z</time></trkpt><trkpt lat="49.693644432452544" lon="20.012370671086284"><ele>673.0</ele><time>2026-05-06T09:38:25.999Z</time></trkpt><trkpt lat="49.693614409187624" lon="20.012242267785044"><ele>674.9999999999999</ele><time>2026-05-06T09:38:58.999Z</time></trkpt><trkpt lat="49.69357365675626" lon="20.01215794896437"><ele>677.0</ele><time>2026-05-06T09:39:18.999Z</time></trkpt><trkpt lat="49.69353808390452" lon="20.01207731701657"><ele>683.8333333333333</ele><time>2026-05-06T09:39:24.998Z</time></trkpt><trkpt lat="49.693500493387376" lon="20.01199042621746"><ele>690.6666666666666</ele><time>2026-05-06T09:39:34.998Z</time></trkpt><trkpt lat="49.69350689269838" lon="20.01187316481638"><ele>697.5</ele><time>2026-05-06T09:39:39.998Z</time></trkpt><trkpt lat="49.69348458426099" lon="20.011781701118412"><ele>704.3333333333334</ele><time>2026-05-06T09:39:42.998Z</time></trkpt><trkpt lat="49.69346170252263" lon="20.011688144973533"><ele>711.1666666666667</ele><time>2026-05-06T09:39:55Z</time></trkpt><trkpt lat="49.69347390611944" lon="20.0115855229446"><ele>718.0</ele><time>2026-05-06T09:40:29.999Z</time></trkpt><trkpt lat="49.69343150255657" lon="20.01141939169431"><ele>720.8333333333334</ele><time>2026-05-06T09:40:31.999Z</time></trkpt><trkpt lat="49.69340031629841" lon="20.011299833476357"><ele>723.6666666666667</ele><time>2026-05-06T09:40:33.999Z</time></trkpt><trkpt lat="49.69330147983688" lon="20.01114361339408"><ele>726.5</ele><time>2026-05-06T09:40:35.999Z</time></trkpt><trkpt lat="49.69323863683095" lon="20.011108398663445"><ele>729.3333333333334</ele><time>2026-05-06T09:40:36.999Z</time></trkpt><trkpt lat="49.6931697280052" lon="20.011055646896445"><ele>732.1666666666666</ele><time>2026-05-06T09:40:37.999Z</time></trkpt><trkpt lat="49.69322669126413" lon="20.010984296454865"><ele>735.0</ele><time>2026-05-06T09:40:45.999Z</time></trkpt><trkpt lat="49.693294494562466" lon="20.010950890315605"><ele>735.0</ele><time>2026-05-06T09:43:05.999Z</time></trkpt><trkpt lat="49.69335032081899" lon="20.01088960962486"><ele>735.0</ele><time>2026-05-06T09:43:09.999Z</time></trkpt><trkpt lat="49.69337688282013" lon="20.01079734237746"><ele>735.0</ele><time>2026-05-06T09:43:14.999Z</time></trkpt><trkpt lat="49.693409443805486" lon="20.01068397101657"><ele>735.0</ele><time>2026-05-06T09:43:30.999Z</time></trkpt><trkpt lat="49.69347743638693" lon="20.010616809536835"><ele>735.0</ele><time>2026-05-06T09:43:33.999Z</time></trkpt><trkpt lat="49.69352108277471" lon="20.010533132890448"><ele>735.0</ele><time>2026-05-06T09:43:39.998Z</time></trkpt><trkpt lat="49.6935452528214" lon="20.01043710481551"><ele>735.0</ele><time>2026-05-06T09:43:44.998Z</time></trkpt><trkpt lat="49.69356886492358" lon="20.01033988892488"><ele>738.8333333333334</ele><time>2026-05-06T09:44:03Z</time></trkpt><trkpt lat="49.69351191262032" lon="20.010292893482628"><ele>742.6666666666666</ele><time>2026-05-06T09:44:05Z</time></trkpt><trkpt lat="49.693580639780414" lon="20.010315445791676"><ele>746.5</ele><time>2026-05-06T09:45:17.999Z</time></trkpt><trkpt lat="49.69350295539631" lon="20.010253925276203"><ele>750.3333333333333</ele><time>2026-05-06T09:45:21.999Z</time></trkpt><trkpt lat="49.693409998771735" lon="20.010280307819784"><ele>754.1666666666666</ele><time>2026-05-06T09:46:40Z</time></trkpt><trkpt lat="49.69341450540014" lon="20.01016397810852"><ele>758.0</ele><time>2026-05-06T09:49:58.998Z</time></trkpt><trkpt lat="49.69340657877153" lon="20.01006440919791"><ele>758.0</ele><time>2026-05-06T09:50:03.998Z</time></trkpt><trkpt lat="49.69345222774751" lon="20.009932989244014"><ele>758.0</ele><time>2026-05-06T09:50:40Z</time></trkpt><trkpt lat="49.6933836580424" lon="20.009961756928043"><ele>758.0</ele><time>2026-05-06T09:50:44Z</time></trkpt><trkpt lat="49.69334914998436" lon="20.010056158982035"><ele>758.0</ele><time>2026-05-06T09:50:57Z</time></trkpt><trkpt lat="49.69336272609314" lon="20.009958337639606"><ele>758.0</ele><time>2026-05-06T09:53:47.999Z</time></trkpt><trkpt lat="49.6932995782717" lon="20.009870314187676"><ele>758.0</ele><time>2026-05-06T09:54:31.998Z</time></trkpt><trkpt lat="49.6933021305428" lon="20.00997008408871"><ele>758.0000000000001</ele><time>2026-05-06T09:55:33.999Z</time></trkpt><trkpt lat="49.69325196540093" lon="20.010035822047353"><ele>758.0</ele><time>2026-05-06T09:56:20.998Z</time></trkpt><trkpt lat="49.693313847445054" lon="20.01006597584932"><ele>758.0</ele><time>2026-05-06T09:57:20.999Z</time></trkpt><trkpt lat="49.693366288884505" lon="20.01013962129767"><ele>758.0</ele><time>2026-05-06T09:58:03.999Z</time></trkpt><trkpt lat="49.693310354044435" lon="20.010079193222055"><ele>758.0</ele><time>2026-05-06T09:58:20.998Z</time></trkpt><trkpt lat="49.69331393325047" lon="20.00998129038137"><ele>758.0000000000001</ele><time>2026-05-06T10:04:37.999Z</time></trkpt><trkpt lat="49.693279280534234" lon="20.00988019037099"><ele>758.0</ele><time>2026-05-06T10:04:40.999Z</time></trkpt><trkpt lat="49.693273182244944" lon="20.009759483859337"><ele>762.0</ele><time>2026-05-06T10:04:46.999Z</time></trkpt><trkpt lat="49.69331069875962" lon="20.009667962159867"><ele>766.0</ele><time>2026-05-06T10:05:16Z</time></trkpt><trkpt lat="49.69336678391553" lon="20.009559077430605"><ele>770.0</ele><time>2026-05-06T10:05:21Z</time></trkpt><trkpt lat="49.69343184755253" lon="20.009521665503247"><ele>774.0</ele><time>2026-05-06T10:05:28Z</time></trkpt><trkpt lat="49.69347304878006" lon="20.009447164890076"><ele>778.0000000000001</ele><time>2026-05-06T10:06:42.999Z</time></trkpt><trkpt lat="49.69354035134775" lon="20.00936065889281"><ele>782.0</ele><time>2026-05-06T10:06:46.999Z</time></trkpt><trkpt lat="49.69354343207291" lon="20.00925297446366"><ele>781.9999999999999</ele><time>2026-05-06T10:06:50.999Z</time></trkpt><trkpt lat="49.69346245334982" lon="20.009221740275517"><ele>782.0</ele><time>2026-05-06T10:06:57.999Z</time></trkpt><trkpt lat="49.6934051016947" lon="20.00926209000503"><ele>782.0</ele><time>2026-05-06T10:07:00.998Z</time></trkpt><trkpt lat="49.6933398639108" lon="20.009300968005757"><ele>782.0</ele><time>2026-05-06T10:07:03.998Z</time></trkpt><trkpt lat="49.69325333724197" lon="20.009352162666612"><ele>782.0</ele><time>2026-05-06T10:07:05.998Z</time></trkpt><trkpt lat="49.69320889392872" lon="20.009433449743195"><ele>781.9999999999999</ele><time>2026-05-06T10:07:19Z</time></trkpt><trkpt lat="49.6931420625217" lon="20.009429023390034"><ele>782.0</ele><time>2026-05-06T10:07:24Z</time></trkpt><trkpt lat="49.69308691093146" lon="20.009502866000616"><ele>782.0000000000001</ele><time>2026-05-06T10:07:31Z</time></trkpt><trkpt lat="49.69303940176953" lon="20.00961811712525"><ele>782.0</ele><time>2026-05-06T10:07:33Z</time></trkpt><trkpt lat="49.69307730605801" lon="20.009711273578574"><ele>782.0</ele><time>2026-05-06T10:07:38Z</time></trkpt><trkpt lat="49.69305119485837" lon="20.009803796320924"><ele>782.0</ele><time>2026-05-06T10:07:45Z</time></trkpt><trkpt lat="49.69300477831017" lon="20.009870380135045"><ele>782.0000000000001</ele><time>2026-05-06T10:07:48Z</time></trkpt><trkpt lat="49.692959184489894" lon="20.00976802982332"><ele>782.0</ele><time>2026-05-06T10:07:59.999Z</time></trkpt><trkpt lat="49.69298050767577" lon="20.009647230924447"><ele>782.0000000000001</ele><time>2026-05-06T10:08:04.999Z</time></trkpt><trkpt lat="49.69299628522129" lon="20.009513576128374"><ele>782.0</ele><time>2026-05-06T10:08:10.999Z</time></trkpt><trkpt lat="49.6930103026729" lon="20.00941141825612"><ele>782.0</ele><time>2026-05-06T10:08:16.999Z</time></trkpt><trkpt lat="49.6930857072136" lon="20.00932699068629"><ele>782.0</ele><time>2026-05-06T10:08:55.999Z</time></trkpt><trkpt lat="49.69306426587795" lon="20.009232125117116"><ele>782.0000000000001</ele><time>2026-05-06T10:09:02.998Z</time></trkpt><trkpt lat="49.693127072065614" lon="20.00917350740403"><ele>782.0</ele><time>2026-05-06T10:09:19Z</time></trkpt><trkpt lat="49.69313645769832" lon="20.00904832689492"><ele>786.5000000000001</ele><time>2026-05-06T10:09:23Z</time></trkpt><trkpt lat="49.693146094629775" lon="20.00891313245934"><ele>791.0</ele><time>2026-05-06T10:09:25Z</time></trkpt><trkpt lat="49.69311297459636" lon="20.008795775873633"><ele>795.5</ele><time>2026-05-06T10:09:51Z</time></trkpt><trkpt lat="49.69304063203143" lon="20.008736418045245"><ele>800.0</ele><time>2026-05-06T10:09:54Z</time></trkpt><trkpt lat="49.69296425855739" lon="20.00874984654791"><ele>804.5000000000001</ele><time>2026-05-06T10:09:58Z</time></trkpt><trkpt lat="49.69301767133727" lon="20.0086630256238"><ele>809.0</ele><time>2026-05-06T10:10:54.999Z</time></trkpt><trkpt lat="49.69305835865777" lon="20.008549500633613"><ele>809.0000000000001</ele><time>2026-05-06T10:10:57.999Z</time></trkpt><trkpt lat="49.692983309939294" lon="20.008517882896122"><ele>809.0</ele><time>2026-05-06T10:11:13.998Z</time></trkpt><trkpt lat="49.692919018663744" lon="20.008501745708546"><ele>809.0</ele><time>2026-05-06T10:11:16.998Z</time></trkpt><trkpt lat="49.69283807324789" lon="20.0085449475784"><ele>809.0</ele><time>2026-05-06T10:11:37Z</time></trkpt><trkpt lat="49.6927781475192" lon="20.008674138277758"><ele>809.0000000000001</ele><time>2026-05-06T10:12:11.999Z</time></trkpt><trkpt lat="49.69274741368503" lon="20.008800054453804"><ele>809.0</ele><time>2026-05-06T10:12:36.999Z</time></trkpt><trkpt lat="49.692683164005274" lon="20.008855032553207"><ele>811.5714285714286</ele><time>2026-05-06T10:13:06.998Z</time></trkpt><trkpt lat="49.69260983676559" lon="20.008912056945423"><ele>814.1428571428571</ele><time>2026-05-06T10:13:14.998Z</time></trkpt><trkpt lat="49.69259417112107" lon="20.009007255286654"><ele>816.7142857142858</ele><time>2026-05-06T10:13:33Z</time></trkpt><trkpt lat="49.692578980575455" lon="20.00910711116504"><ele>819.2857142857142</ele><time>2026-05-06T10:13:41Z</time></trkpt><trkpt lat="49.69253849222656" lon="20.009213098544965"><ele>821.8571428571428</ele><time>2026-05-06T10:13:49Z</time></trkpt><trkpt lat="49.692491140307794" lon="20.009281575937337"><ele>824.4285714285714</ele><time>2026-05-06T10:13:59Z</time></trkpt><trkpt lat="49.69246329132838" lon="20.009373267219857"><ele>827.0</ele><time>2026-05-06T10:14:17.999Z</time></trkpt><trkpt lat="49.69243363043931" lon="20.009483287838552"><ele>827.0</ele><time>2026-05-06T10:15:34Z</time></trkpt><trkpt lat="49.69240799836957" lon="20.009573302299916"><ele>827.0</ele><time>2026-05-06T10:16:43.999Z</time></trkpt><trkpt lat="49.692433493234304" lon="20.009680764087467"><ele>827.0</ele><time>2026-05-06T10:17:07.999Z</time></trkpt><trkpt lat="49.6923983042335" lon="20.00979016966013"><ele>827.0</ele><time>2026-05-06T10:17:14.998Z</time></trkpt><trkpt lat="49.69235198576295" lon="20.009878179245675"><ele>827.0</ele><time>2026-05-06T10:17:17.998Z</time></trkpt><trkpt lat="49.692305985574684" lon="20.009949424870452"><ele>827.0</ele><time>2026-05-06T10:17:32.998Z</time></trkpt><trkpt lat="49.69232792039778" lon="20.010041175904433"><ele>827.0</ele><time>2026-05-06T10:17:40Z</time></trkpt><trkpt lat="49.69230600783697" lon="20.01014438283097"><ele>824.7142857142858</ele><time>2026-05-06T10:17:44Z</time></trkpt><trkpt lat="49.69232129300713" lon="20.0102641319927"><ele>822.4285714285713</ele><time>2026-05-06T10:17:58Z</time></trkpt><trkpt lat="49.69231821914854" lon="20.01036873901501"><ele>820.1428571428571</ele><time>2026-05-06T10:18:05Z</time></trkpt><trkpt lat="49.69232155823851" lon="20.01047893497909"><ele>817.8571428571429</ele><time>2026-05-06T10:18:24.999Z</time></trkpt><trkpt lat="49.69227917425389" lon="20.01057008839032"><ele>815.5714285714287</ele><time>2026-05-06T10:18:35.999Z</time></trkpt><trkpt lat="49.6922590625116" lon="20.01068966177447"><ele>813.2857142857142</ele><time>2026-05-06T10:19:03.999Z</time></trkpt><trkpt lat="49.69223435657648" lon="20.0107968678544"><ele>811.0</ele><time>2026-05-06T10:19:13.999Z</time></trkpt><trkpt lat="49.692213732614235" lon="20.010905636770282"><ele>808.0</ele><time>2026-05-06T10:19:23.998Z</time></trkpt><trkpt lat="49.69219719334706" lon="20.011006038248148"><ele>805.0</ele><time>2026-05-06T10:19:42.998Z</time></trkpt><trkpt lat="49.69219476149537" lon="20.011122180192036"><ele>802.0</ele><time>2026-05-06T10:19:48Z</time></trkpt><trkpt lat="49.692163921991714" lon="20.011217733250508"><ele>799.0</ele><time>2026-05-06T10:19:58Z</time></trkpt><trkpt lat="49.69213091455275" lon="20.011302656612028"><ele>796.0</ele><time>2026-05-06T10:20:14Z</time></trkpt><trkpt lat="49.692119576479435" lon="20.011403347012422"><ele>793.0</ele><time>2026-05-06T10:20:55.999Z</time></trkpt><trkpt lat="49.69205973655978" lon="20.011490730944015"><ele>790.0</ele><time>2026-05-06T10:20:58.999Z</time></trkpt><trkpt lat="49.69197766369321" lon="20.011532375932585"><ele>798.1666666666666</ele><time>2026-05-06T10:21:02.999Z</time></trkpt><trkpt lat="49.691901166118804" lon="20.011562664531784"><ele>806.3333333333333</ele><time>2026-05-06T10:21:05.999Z</time></trkpt><trkpt lat="49.691813415990566" lon="20.0115481145521"><ele>814.5</ele><time>2026-05-06T10:21:08.999Z</time></trkpt><trkpt lat="49.69174971039401" lon="20.01156967193401"><ele>822.6666666666667</ele><time>2026-05-06T10:21:10.999Z</time></trkpt><trkpt lat="49.69172545124409" lon="20.011442547865155"><ele>830.8333333333334</ele><time>2026-05-06T10:21:19.999Z</time></trkpt><trkpt lat="49.69175998209865" lon="20.01131069957229"><ele>839.0</ele><time>2026-05-06T10:21:31.998Z</time></trkpt><trkpt lat="49.69174961449191" lon="20.01117994933651"><ele>839.0</ele><time>2026-05-06T10:21:34.998Z</time></trkpt><trkpt lat="49.69175577424619" lon="20.011065325276256"><ele>839.0</ele><time>2026-05-06T10:21:37.998Z</time></trkpt><trkpt lat="49.69176266641466" lon="20.010938335130728"><ele>839.0</ele><time>2026-05-06T10:21:41.998Z</time></trkpt><trkpt lat="49.691777384972866" lon="20.010836709280934"><ele>839.0</ele><time>2026-05-06T10:21:43.998Z</time></trkpt><trkpt lat="49.69181800005009" lon="20.010734852648895"><ele>839.0</ele><time>2026-05-06T10:21:45.998Z</time></trkpt><trkpt lat="49.691864426815" lon="20.010630963891256"><ele>839.0</ele><time>2026-05-06T10:21:48.998Z</time></trkpt><trkpt lat="49.69191406313771" lon="20.010570095255055"><ele>839.0</ele><time>2026-05-06T10:23:19.999Z</time></trkpt><trkpt lat="49.69184941200105" lon="20.010574727108196"><ele>842.3333333333334</ele><time>2026-05-06T10:24:14Z</time></trkpt><trkpt lat="49.69189004575469" lon="20.010474903682212"><ele>845.6666666666667</ele><time>2026-05-06T10:28:43Z</time></trkpt><trkpt lat="49.69188656696812" lon="20.010364850884883"><ele>849.0</ele><time>2026-05-06T10:28:45Z</time></trkpt><trkpt lat="49.69191046184415" lon="20.010272764580993"><ele>852.3333333333333</ele><time>2026-05-06T10:29:01.999Z</time></trkpt><trkpt lat="49.69191439186273" lon="20.010171848993675"><ele>855.6666666666666</ele><time>2026-05-06T10:29:04.999Z</time></trkpt><trkpt lat="49.691882241591024" lon="20.010042995167556"><ele>859.0</ele><time>2026-05-06T10:29:08.999Z</time></trkpt><trkpt lat="49.69185660257446" lon="20.009894463975822"><ele>858.9999999999999</ele><time>2026-05-06T10:29:11.999Z</time></trkpt><trkpt lat="49.69183012892876" lon="20.00980047198159"><ele>859.0</ele><time>2026-05-06T10:29:14.999Z</time></trkpt><trkpt lat="49.69185641291315" lon="20.009683335804333"><ele>859.0</ele><time>2026-05-06T10:29:19.999Z</time></trkpt><trkpt lat="49.69178664937942" lon="20.009729576621286"><ele>859.0</ele><time>2026-05-06T10:29:28.999Z</time></trkpt><trkpt lat="49.69173253890671" lon="20.00978029691706"><ele>859.0</ele><time>2026-05-06T10:29:30.999Z</time></trkpt><trkpt lat="49.69168042769847" lon="20.009866759453068"><ele>858.9999999999999</ele><time>2026-05-06T10:29:33.999Z</time></trkpt><trkpt lat="49.69163381445413" lon="20.0099488663398"><ele>859.0</ele><time>2026-05-06T10:29:35.999Z</time></trkpt><trkpt lat="49.69158881651289" lon="20.01004513728642"><ele>858.9999999999999</ele><time>2026-05-06T10:29:39.999Z</time></trkpt><trkpt lat="49.69154864148827" lon="20.010137205720827"><ele>859.0</ele><time>2026-05-06T10:29:42.999Z</time></trkpt><trkpt lat="49.691470453070025" lon="20.010225104668425"><ele>859.0</ele><time>2026-05-06T10:29:44.999Z</time></trkpt><trkpt lat="49.69138160333874" lon="20.010236777000898"><ele>859.0</ele><time>2026-05-06T10:29:46.998Z</time></trkpt><trkpt lat="49.69144323397246" lon="20.010205832454353"><ele>858.9999999999999</ele><time>2026-05-06T10:29:49.998Z</time></trkpt><trkpt lat="49.69138340993791" lon="20.010251886534167"><ele>859.0</ele><time>2026-05-06T10:30:24Z</time></trkpt><trkpt lat="49.69131917967427" lon="20.010232231744656"><ele>858.9999999999999</ele><time>2026-05-06T10:30:30Z</time></trkpt><trkpt lat="49.691279223630566" lon="20.01013245943375"><ele>859.0</ele><time>2026-05-06T10:31:45.999Z</time></trkpt><trkpt lat="49.69120899701942" lon="20.010158385069236"><ele>859.0</ele><time>2026-05-06T10:32:02.998Z</time></trkpt><trkpt lat="49.691152106585385" lon="20.01021277604769"><ele>859.0</ele><time>2026-05-06T10:32:21Z</time></trkpt><trkpt lat="49.69116296096199" lon="20.01033370958071"><ele>859.0</ele><time>2026-05-06T10:32:26Z</time></trkpt><trkpt lat="49.691138481263195" lon="20.010424025324674"><ele>858.9999999999999</ele><time>2026-05-06T10:32:29Z</time></trkpt><trkpt lat="49.691179627997236" lon="20.010333976345382"><ele>859.0</ele><time>2026-05-06T10:33:27.999Z</time></trkpt><trkpt lat="49.6911681240756" lon="20.010191835990966"><ele>858.9999999999999</ele><time>2026-05-06T10:33:29.999Z</time></trkpt><trkpt lat="49.69113255718181" lon="20.01009853012282"><ele>859.0</ele><time>2026-05-06T10:33:30.999Z</time></trkpt><trkpt lat="49.69114699362055" lon="20.009977261412764"><ele>859.0</ele><time>2026-05-06T10:33:33.999Z</time></trkpt><trkpt lat="49.691090190724395" lon="20.009930736853867"><ele>859.0</ele><time>2026-05-06T10:33:37.999Z</time></trkpt><trkpt lat="49.69102336159023" lon="20.009993633517485"><ele>858.9999999999999</ele><time>2026-05-06T10:33:49.999Z</time></trkpt><trkpt lat="49.690969545527025" lon="20.009900222285896"><ele>859.0</ele><time>2026-05-06T10:33:58.999Z</time></trkpt><trkpt lat="49.69095289953233" lon="20.009784591489424"><ele>867.7142857142857</ele><time>2026-05-06T10:34:01.998Z</time></trkpt><trkpt lat="49.690937695494405" lon="20.009679803042744"><ele>876.4285714285713</ele><time>2026-05-06T10:34:04.998Z</time></trkpt><trkpt lat="49.69087598280357" lon="20.00970009801997"><ele>885.1428571428571</ele><time>2026-05-06T10:34:33Z</time></trkpt><trkpt lat="49.6908101905418" lon="20.00971343215849"><ele>893.8571428571428</ele><time>2026-05-06T10:35:12.999Z</time></trkpt><trkpt lat="49.69073972581258" lon="20.009721681059677"><ele>902.5714285714286</ele><time>2026-05-06T10:35:52.999Z</time></trkpt><trkpt lat="49.69080758024175" lon="20.009706278263184"><ele>911.2857142857141</ele><time>2026-05-06T10:36:05.999Z</time></trkpt><trkpt lat="49.690740187216726" lon="20.009734002483725"><ele>919.9999999999999</ele><time>2026-05-06T10:36:34Z</time></trkpt><trkpt lat="49.690680403767125" lon="20.009689829850494"><ele>919.9999999999999</ele><time>2026-05-06T10:36:36Z</time></trkpt><trkpt lat="49.690626821713295" lon="20.009638292220586"><ele>920.0</ele><time>2026-05-06T10:36:40Z</time></trkpt><trkpt lat="49.69055399153598" lon="20.009652461987066"><ele>919.9999999999999</ele><time>2026-05-06T10:36:48Z</time></trkpt><trkpt lat="49.690493700293004" lon="20.009691034636006"><ele>919.9999999999999</ele><time>2026-05-06T10:36:53Z</time></trkpt><trkpt lat="49.690418930115875" lon="20.009644139470126"><ele>920.0</ele><time>2026-05-06T10:36:56Z</time></trkpt><trkpt lat="49.69034127984129" lon="20.00959179648449"><ele>919.9999999999999</ele><time>2026-05-06T10:37:00Z</time></trkpt><trkpt lat="49.690276301817065" lon="20.009553210517094"><ele>919.9999999999999</ele><time>2026-05-06T10:37:03Z</time></trkpt><trkpt lat="49.69021550998893" lon="20.009468764033283"><ele>923.7142857142856</ele><time>2026-05-06T10:37:06Z</time></trkpt><trkpt lat="49.690134144801604" lon="20.00942232800204"><ele>927.4285714285713</ele><time>2026-05-06T10:37:10Z</time></trkpt><trkpt lat="49.69007225626828" lon="20.009452045932015"><ele>931.1428571428571</ele><time>2026-05-06T10:40:25.998Z</time></trkpt><trkpt lat="49.69000906041842" lon="20.00943824539358"><ele>934.8571428571428</ele><time>2026-05-06T10:40:33.998Z</time></trkpt><trkpt lat="49.690036045564625" lon="20.009337955236834"><ele>938.5714285714284</ele><time>2026-05-06T10:40:41.998Z</time></trkpt><trkpt lat="49.6900202591205" lon="20.009234305050004"><ele>942.2857142857143</ele><time>2026-05-06T10:40:47Z</time></trkpt><trkpt lat="49.68996046363196" lon="20.00919667951038"><ele>946.0</ele><time>2026-05-06T10:40:51Z</time></trkpt><trkpt lat="49.6898803367113" lon="20.009145301257128"><ele>945.9999999999999</ele><time>2026-05-06T10:40:56Z</time></trkpt><trkpt lat="49.68981044846897" lon="20.009146199563922"><ele>946.0</ele><time>2026-05-06T10:40:58Z</time></trkpt><trkpt lat="49.689746577663605" lon="20.00916033431909"><ele>946.0</ele><time>2026-05-06T10:41:00Z</time></trkpt><trkpt lat="49.68967333877557" lon="20.00914426264597"><ele>946.0</ele><time>2026-05-06T10:41:03Z</time></trkpt><trkpt lat="49.68960052700033" lon="20.009096946229185"><ele>945.9999999999999</ele><time>2026-05-06T10:41:05Z</time></trkpt><trkpt lat="49.68952084983594" lon="20.009093229705826"><ele>946.0</ele><time>2026-05-06T10:41:08Z</time></trkpt><trkpt lat="49.68944214926222" lon="20.009135631810356"><ele>946.0</ele><time>2026-05-06T10:41:11Z</time></trkpt><trkpt lat="49.68936426156636" lon="20.009167920944044"><ele>946.0</ele><time>2026-05-06T10:41:15Z</time></trkpt><trkpt lat="49.689322726218116" lon="20.009266399105833"><ele>946.0</ele><time>2026-05-06T10:41:19Z</time></trkpt><trkpt lat="49.68927295896304" lon="20.009346038027083"><ele>946.0</ele><time>2026-05-06T10:41:22.999Z</time></trkpt><trkpt lat="49.68930480734201" lon="20.009255988170565"><ele>946.0</ele><time>2026-05-06T10:41:49.999Z</time></trkpt><trkpt lat="49.68936013671516" lon="20.009161936674968"><ele>946.0</ele><time>2026-05-06T10:41:52.999Z</time></trkpt><trkpt lat="49.68942930441045" lon="20.00914578467647"><ele>946.0</ele><time>2026-05-06T10:41:54.999Z</time></trkpt><trkpt lat="49.68950390211624" lon="20.009103413434225"><ele>946.0</ele><time>2026-05-06T10:41:57.999Z</time></trkpt><trkpt lat="49.68957795749714" lon="20.009079846612966"><ele>946.0</ele><time>2026-05-06T10:42:01.999Z</time></trkpt><trkpt lat="49.689650328825394" lon="20.00910716534228"><ele>946.0</ele><time>2026-05-06T10:42:04.999Z</time></trkpt><trkpt lat="49.68971485906792" lon="20.009157955719765"><ele>946.0</ele><time>2026-05-06T10:42:07.999Z</time></trkpt><trkpt lat="49.68975198832074" lon="20.009239630664908"><ele>946.0</ele><time>2026-05-06T10:42:10.999Z</time></trkpt><trkpt lat="49.68979397485284" lon="20.00931312322103"><ele>946.0</ele><time>2026-05-06T10:42:37.998Z</time></trkpt><trkpt lat="49.68985436756463" lon="20.00926981873838"><ele>946.0</ele><time>2026-05-06T10:42:42.998Z</time></trkpt><trkpt lat="49.68991358637204" lon="20.00919647195818"><ele>946.1428571428571</ele><time>2026-05-06T10:42:45.998Z</time></trkpt><trkpt lat="49.6899768981439" lon="20.00922624705599"><ele>946.2857142857142</ele><time>2026-05-06T10:42:57Z</time></trkpt><trkpt lat="49.69002023086499" lon="20.009316601538906"><ele>946.4285714285713</ele><time>2026-05-06T10:43:07Z</time></trkpt><trkpt lat="49.68999675759431" lon="20.009440705920966"><ele>946.5714285714286</ele><time>2026-05-06T10:43:28Z</time></trkpt><trkpt lat="49.69006188811729" lon="20.009446481099875"><ele>946.7142857142856</ele><time>2026-05-06T10:43:40.999Z</time></trkpt><trkpt lat="49.69013282270719" lon="20.00942650085983"><ele>946.8571428571428</ele><time>2026-05-06T10:43:48.999Z</time></trkpt><trkpt lat="49.690192041935234" lon="20.009475846258695"><ele>947.0</ele><time>2026-05-06T10:44:00.999Z</time></trkpt><trkpt lat="49.690260494133206" lon="20.009561017106115"><ele>943.1428571428571</ele><time>2026-05-06T10:44:06.999Z</time></trkpt><trkpt lat="49.69032844202424" lon="20.00963113699461"><ele>939.2857142857142</ele><time>2026-05-06T10:44:09.999Z</time></trkpt><trkpt lat="49.69039511949099" lon="20.00966180341991"><ele>935.4285714285713</ele><time>2026-05-06T10:44:13.999Z</time></trkpt><trkpt lat="49.69045890664124" lon="20.009688806544776"><ele>931.5714285714284</ele><time>2026-05-06T10:44:16.999Z</time></trkpt><trkpt lat="49.690523635201174" lon="20.00968128139797"><ele>927.7142857142857</ele><time>2026-05-06T10:44:23.999Z</time></trkpt><trkpt lat="49.69057451480157" lon="20.009622789125984"><ele>923.8571428571427</ele><time>2026-05-06T10:44:29.999Z</time></trkpt><trkpt lat="49.69063899257151" lon="20.009658920643965"><ele>919.9999999999999</ele><time>2026-05-06T10:44:35.998Z</time></trkpt><trkpt lat="49.69069849734617" lon="20.00971396233432"><ele>919.9999999999999</ele><time>2026-05-06T10:44:38.998Z</time></trkpt><trkpt lat="49.69076047093618" lon="20.00976070000275"><ele>920.0</ele><time>2026-05-06T10:44:41.998Z</time></trkpt><trkpt lat="49.690821368042954" lon="20.009796884619615"><ele>919.9999999999999</ele><time>2026-05-06T10:44:44.998Z</time></trkpt><trkpt lat="49.69089884534003" lon="20.00980976026404"><ele>919.9999999999999</ele><time>2026-05-06T10:44:50.998Z</time></trkpt><trkpt lat="49.690955494016436" lon="20.009856071371175"><ele>920.0</ele><time>2026-05-06T10:44:53.998Z</time></trkpt><trkpt lat="49.69096483337141" lon="20.009967571600342"><ele>919.9999999999999</ele><time>2026-05-06T10:45:02Z</time></trkpt><trkpt lat="49.69103313493187" lon="20.00998621629273"><ele>919.9999999999999</ele><time>2026-05-06T10:45:18Z</time></trkpt><trkpt lat="49.69108940026568" lon="20.009941713490534"><ele>911.2857142857141</ele><time>2026-05-06T10:45:20Z</time></trkpt><trkpt lat="49.691152173731986" lon="20.010005750904725"><ele>902.5714285714286</ele><time>2026-05-06T10:45:50.999Z</time></trkpt><trkpt lat="49.69113201431847" lon="20.010123676232915"><ele>893.8571428571428</ele><time>2026-05-06T10:45:55.999Z</time></trkpt><trkpt lat="49.691176719428974" lon="20.0101945956904"><ele>885.1428571428571</ele><time>2026-05-06T10:46:01.999Z</time></trkpt><trkpt lat="49.69125187552859" lon="20.010152802219576"><ele>876.4285714285713</ele><time>2026-05-06T10:46:18.999Z</time></trkpt><trkpt lat="49.69130749905223" lon="20.01022348054545"><ele>867.7142857142857</ele><time>2026-05-06T10:46:22.999Z</time></trkpt><trkpt lat="49.69136970737623" lon="20.010263849927057"><ele>859.0</ele><time>2026-05-06T10:46:26.999Z</time></trkpt><trkpt lat="49.69145165851551" lon="20.01023429954987"><ele>858.9999999999999</ele><time>2026-05-06T10:46:31.999Z</time></trkpt><trkpt lat="49.69150969972523" lon="20.010185079175397"><ele>859.0</ele><time>2026-05-06T10:46:34.999Z</time></trkpt><trkpt lat="49.69153976005467" lon="20.010098381717565"><ele>859.0</ele><time>2026-05-06T10:46:36.999Z</time></trkpt><trkpt lat="49.69161166675525" lon="20.0100528040439"><ele>859.0</ele><time>2026-05-06T10:46:53.998Z</time></trkpt><trkpt lat="49.69165863155378" lon="20.009961311425577"><ele>859.0</ele><time>2026-05-06T10:47:02Z</time></trkpt><trkpt lat="49.69169191820179" lon="20.009878660102597"><ele>858.9999999999999</ele><time>2026-05-06T10:47:11Z</time></trkpt><trkpt lat="49.691749738697716" lon="20.009776856430182"><ele>859.0</ele><time>2026-05-06T10:47:16Z</time></trkpt><trkpt lat="49.69182843608572" lon="20.00972527683981"><ele>858.9999999999999</ele><time>2026-05-06T10:47:20Z</time></trkpt><trkpt lat="49.691852193186726" lon="20.009828325060898"><ele>859.0</ele><time>2026-05-06T10:47:46Z</time></trkpt><trkpt lat="49.691866622157214" lon="20.00994247246407"><ele>859.0</ele><time>2026-05-06T10:47:49.999Z</time></trkpt><trkpt lat="49.6919040685028" lon="20.010070392668105"><ele>859.0</ele><time>2026-05-06T10:47:52.999Z</time></trkpt><trkpt lat="49.691898403835054" lon="20.010203195427554"><ele>858.9999999999999</ele><time>2026-05-06T10:47:55.999Z</time></trkpt><trkpt lat="49.691867026550604" lon="20.01030143310265"><ele>859.0</ele><time>2026-05-06T10:47:58.999Z</time></trkpt><trkpt lat="49.691841875419875" lon="20.01039134497856"><ele>858.9999999999999</ele><time>2026-05-06T10:48:01.999Z</time></trkpt><trkpt lat="49.69183572391631" lon="20.010518036750653"><ele>859.0</ele><time>2026-05-06T10:48:03.999Z</time></trkpt><trkpt lat="49.69181405621281" lon="20.010639809460233"><ele>859.0</ele><time>2026-05-06T10:48:05.999Z</time></trkpt><trkpt lat="49.691802906862755" lon="20.010748224001123"><ele>859.0</ele><time>2026-05-06T10:48:07.999Z</time></trkpt><trkpt lat="49.691757147254435" lon="20.01082108804356"><ele>859.0</ele><time>2026-05-06T10:48:13.999Z</time></trkpt><trkpt lat="49.6917348349232" lon="20.010931037682347"><ele>858.9999999999999</ele><time>2026-05-06T10:48:25.999Z</time></trkpt><trkpt lat="49.69173340075171" lon="20.01104522666958"><ele>859.0</ele><time>2026-05-06T10:48:29.999Z</time></trkpt><trkpt lat="49.69172753092986" lon="20.011152783271083"><ele>855.6666666666666</ele><time>2026-05-06T10:48:33.999Z</time></trkpt><trkpt lat="49.69173688325364" lon="20.011307910439072"><ele>852.3333333333333</ele><time>2026-05-06T10:48:36.999Z</time></trkpt><trkpt lat="49.69175266481308" lon="20.011408285860334"><ele>849.0</ele><time>2026-05-06T10:48:45.998Z</time></trkpt><trkpt lat="49.69182337551477" lon="20.011426393376706"><ele>845.6666666666667</ele><time>2026-05-06T10:49:02.998Z</time></trkpt><trkpt lat="49.69189341790621" lon="20.011411641004926"><ele>842.3333333333334</ele><time>2026-05-06T10:49:08Z</time></trkpt><trkpt lat="49.69196564857654" lon="20.01146547435358"><ele>839.0</ele><time>2026-05-06T10:49:20Z</time></trkpt><trkpt lat="49.692011669287474" lon="20.011569117004296"><ele>829.4285714285714</ele><time>2026-05-06T10:49:24Z</time></trkpt><trkpt lat="49.692010491150214" lon="20.011682468371266"><ele>819.8571428571429</ele><time>2026-05-06T10:49:31Z</time></trkpt><trkpt lat="49.69203171546992" lon="20.011800825280393"><ele>810.2857142857143</ele><time>2026-05-06T10:49:36Z</time></trkpt><trkpt lat="49.692011910161355" lon="20.011937993349324"><ele>800.7142857142858</ele><time>2026-05-06T10:49:40Z</time></trkpt><trkpt lat="49.691987415397584" lon="20.01204478256436"><ele>791.1428571428571</ele><time>2026-05-06T10:49:44Z</time></trkpt><trkpt lat="49.6919447809541" lon="20.01212721400091"><ele>781.5714285714287</ele><time>2026-05-06T10:49:47Z</time></trkpt><trkpt lat="49.69198903959493" lon="20.012197079607965"><ele>772.0</ele><time>2026-05-06T10:49:49.999Z</time></trkpt><trkpt lat="49.69199796531556" lon="20.01230457823044"><ele>772.0000000000001</ele><time>2026-05-06T10:49:51.999Z</time></trkpt><trkpt lat="49.692037420696934" lon="20.012404538502754"><ele>772.0</ele><time>2026-05-06T10:49:54.999Z</time></trkpt><trkpt lat="49.692082609356106" lon="20.012490568940265"><ele>772.0</ele><time>2026-05-06T10:49:57.999Z</time></trkpt><trkpt lat="49.69215230936388" lon="20.012526853257945"><ele>772.0</ele><time>2026-05-06T10:50:00.999Z</time></trkpt><trkpt lat="49.69222106153315" lon="20.012609005048215"><ele>772.0</ele><time>2026-05-06T10:50:04.999Z</time></trkpt><trkpt lat="49.692237850103844" lon="20.012707019982237"><ele>772.0000000000001</ele><time>2026-05-06T10:50:42.999Z</time></trkpt><trkpt lat="49.69226048549569" lon="20.01279785468389"><ele>772.0</ele><time>2026-05-06T10:50:45.999Z</time></trkpt><trkpt lat="49.692329459965535" lon="20.012865422455537"><ele>768.8571428571429</ele><time>2026-05-06T10:50:47.998Z</time></trkpt><trkpt lat="49.692395358132565" lon="20.012907762044534"><ele>765.7142857142858</ele><time>2026-05-06T10:50:50.998Z</time></trkpt><trkpt lat="49.69243919216693" lon="20.012986023055937"><ele>762.5714285714287</ele><time>2026-05-06T10:50:53.998Z</time></trkpt><trkpt lat="49.69245199234245" lon="20.01309689672866"><ele>759.4285714285714</ele><time>2026-05-06T10:50:55.998Z</time></trkpt><trkpt lat="49.69246157143942" lon="20.01321358964957"><ele>756.2857142857142</ele><time>2026-05-06T10:50:57.998Z</time></trkpt><trkpt lat="49.69253097165549" lon="20.01327556548625"><ele>753.1428571428572</ele><time>2026-05-06T10:50:59.998Z</time></trkpt><trkpt lat="49.69260384599869" lon="20.013289763799005"><ele>750.0</ele><time>2026-05-06T10:51:01.998Z</time></trkpt><trkpt lat="49.69264773474313" lon="20.013381691171965"><ele>745.8333333333334</ele><time>2026-05-06T10:51:03.998Z</time></trkpt><trkpt lat="49.6927098400607" lon="20.013447827836462"><ele>741.6666666666666</ele><time>2026-05-06T10:51:06.998Z</time></trkpt><trkpt lat="49.69278347642505" lon="20.01350945279523"><ele>737.5</ele><time>2026-05-06T10:51:09.998Z</time></trkpt><trkpt lat="49.69286403583115" lon="20.013553671996924"><ele>733.3333333333333</ele><time>2026-05-06T10:51:11.998Z</time></trkpt><trkpt lat="49.69291564302578" lon="20.013670951971353"><ele>729.1666666666666</ele><time>2026-05-06T10:51:15Z</time></trkpt><trkpt lat="49.6929551084928" lon="20.013785796040736"><ele>725.0</ele><time>2026-05-06T10:51:17Z</time></trkpt><trkpt lat="49.69299903264758" lon="20.013911463094548"><ele>719.8333333333333</ele><time>2026-05-06T10:51:20Z</time></trkpt><trkpt lat="49.69305312166752" lon="20.01396455852589"><ele>714.6666666666666</ele><time>2026-05-06T10:51:22Z</time></trkpt><trkpt lat="49.69311211624799" lon="20.014031389180477"><ele>709.5</ele><time>2026-05-06T10:51:26Z</time></trkpt><trkpt lat="49.69318713995847" lon="20.014077782958122"><ele>704.3333333333334</ele><time>2026-05-06T10:51:28Z</time></trkpt><trkpt lat="49.69326502716305" lon="20.01412367587606"><ele>699.1666666666667</ele><time>2026-05-06T10:51:31Z</time></trkpt><trkpt lat="49.6933613136426" lon="20.014068140814114"><ele>694.0</ele><time>2026-05-06T10:51:35Z</time></trkpt><trkpt lat="49.693438405390246" lon="20.014057652496863"><ele>694.0</ele><time>2026-05-06T10:51:37Z</time></trkpt><trkpt lat="49.693503245348346" lon="20.01402705780689"><ele>694.0</ele><time>2026-05-06T10:51:39Z</time></trkpt><trkpt lat="49.69358189166862" lon="20.014097160987088"><ele>694.0</ele><time>2026-05-06T10:51:42Z</time></trkpt><trkpt lat="49.6936181585074" lon="20.01418314457913"><ele>694.0</ele><time>2026-05-06T10:52:09.999Z</time></trkpt><trkpt lat="49.693674106101156" lon="20.014242871237737"><ele>694.0</ele><time>2026-05-06T10:52:13.999Z</time></trkpt><trkpt lat="49.69369346975708" lon="20.014352568034948"><ele>694.0</ele><time>2026-05-06T10:52:16.999Z</time></trkpt><trkpt lat="49.693700924872665" lon="20.014477239634868"><ele>694.0</ele><time>2026-05-06T10:52:18.999Z</time></trkpt><trkpt lat="49.69375098637226" lon="20.01454913363982"><ele>686.3333333333334</ele><time>2026-05-06T10:52:20.999Z</time></trkpt><trkpt lat="49.69380475942147" lon="20.014653925736916"><ele>678.6666666666667</ele><time>2026-05-06T10:52:22.999Z</time></trkpt><trkpt lat="49.69380794734341" lon="20.01477054530457"><ele>671.0</ele><time>2026-05-06T10:52:24.999Z</time></trkpt><trkpt lat="49.69380997165838" lon="20.014879680275197"><ele>663.3333333333334</ele><time>2026-05-06T10:52:27.999Z</time></trkpt><trkpt lat="49.69376809486807" lon="20.01496484091145"><ele>655.6666666666666</ele><time>2026-05-06T10:52:34.999Z</time></trkpt><trkpt lat="49.693786482455096" lon="20.01508699544374"><ele>648.0</ele><time>2026-05-06T10:52:36.999Z</time></trkpt><trkpt lat="49.69383038464717" lon="20.015211023354528"><ele>646.8333333333334</ele><time>2026-05-06T10:52:38.999Z</time></trkpt><trkpt lat="49.69388916340579" lon="20.01532900212067"><ele>645.6666666666666</ele><time>2026-05-06T10:52:41.999Z</time></trkpt><trkpt lat="49.69395254496329" lon="20.015403031767416"><ele>644.5</ele><time>2026-05-06T10:52:43.999Z</time></trkpt><trkpt lat="49.69402900359483" lon="20.015502614581045"><ele>643.3333333333333</ele><time>2026-05-06T10:52:45.999Z</time></trkpt><trkpt lat="49.69408888105846" lon="20.01562699864675"><ele>642.1666666666666</ele><time>2026-05-06T10:52:47.999Z</time></trkpt><trkpt lat="49.694083718086" lon="20.015725319160854"><ele>641.0</ele><time>2026-05-06T10:52:49.999Z</time></trkpt><trkpt lat="49.69409495359347" lon="20.01583909526693"><ele>638.3333333333333</ele><time>2026-05-06T10:52:51.999Z</time></trkpt><trkpt lat="49.69412159851433" lon="20.015936312115766"><ele>635.6666666666666</ele><time>2026-05-06T10:52:53.998Z</time></trkpt><trkpt lat="49.69410164853401" lon="20.01609563289291"><ele>633.0</ele><time>2026-05-06T10:52:56.998Z</time></trkpt><trkpt lat="49.694111635995526" lon="20.01622893908478"><ele>630.3333333333334</ele><time>2026-05-06T10:52:58.998Z</time></trkpt><trkpt lat="49.69407916567819" lon="20.016315700955786"><ele>627.6666666666667</ele><time>2026-05-06T10:53:00.998Z</time></trkpt><trkpt lat="49.69405812139716" lon="20.01641487751509"><ele>625.0</ele><time>2026-05-06T10:53:02.998Z</time></trkpt><trkpt lat="49.69399923298041" lon="20.016455347690897"><ele>625.0</ele><time>2026-05-06T10:53:11.998Z</time></trkpt><trkpt lat="49.69397059791404" lon="20.016556390565615"><ele>625.0</ele><time>2026-05-06T10:53:26Z</time></trkpt><trkpt lat="49.693942794800634" lon="20.016703149666004"><ele>625.0</ele><time>2026-05-06T10:53:29Z</time></trkpt><trkpt lat="49.69393714379752" lon="20.016824216141192"><ele>625.0</ele><time>2026-05-06T10:53:31Z</time></trkpt><trkpt lat="49.69392829986633" lon="20.016931161402688"><ele>625.0</ele><time>2026-05-06T10:53:33Z</time></trkpt><trkpt lat="49.69391243331175" lon="20.017043888752703"><ele>625.0</ele><time>2026-05-06T10:53:36Z</time></trkpt><trkpt lat="49.69392962751901" lon="20.01715849457618"><ele>621.4</ele><time>2026-05-06T10:53:38Z</time></trkpt><trkpt lat="49.69393177733926" lon="20.017270389833463"><ele>617.8</ele><time>2026-05-06T10:53:40Z</time></trkpt><trkpt lat="49.693947150267235" lon="20.01742394519893"><ele>614.2</ele><time>2026-05-06T10:53:42Z</time></trkpt><trkpt lat="49.69391851721201" lon="20.017585331480216"><ele>610.6</ele><time>2026-05-06T10:53:44Z</time></trkpt><trkpt lat="49.69387234654753" lon="20.017726127356084"><ele>607.0</ele><time>2026-05-06T10:53:46Z</time></trkpt><trkpt lat="49.69383645074177" lon="20.01785395834176"><ele>603.0</ele><time>2026-05-06T10:53:48Z</time></trkpt><trkpt lat="49.693802574992105" lon="20.01797135950813"><ele>599.0</ele><time>2026-05-06T10:53:50Z</time></trkpt><trkpt lat="49.69375695317626" lon="20.018045578991686"><ele>595.0</ele><time>2026-05-06T10:53:52Z</time></trkpt><trkpt lat="49.693713539293014" lon="20.018121441876673"><ele>591.0</ele><time>2026-05-06T10:53:54Z</time></trkpt><trkpt lat="49.69364052766778" lon="20.01821255396683"><ele>587.0</ele><time>2026-05-06T10:53:57Z</time></trkpt><trkpt lat="49.69367411232212" lon="20.018338683014143"><ele>583.0</ele><time>2026-05-06T10:54:01Z</time></trkpt><trkpt lat="49.69369141006889" lon="20.018481751602973"><ele>579.3333333333334</ele><time>2026-05-06T10:54:03.999Z</time></trkpt><trkpt lat="49.693727129095166" lon="20.018583151432246"><ele>575.6666666666667</ele><time>2026-05-06T10:54:05.999Z</time></trkpt><trkpt lat="49.693763916886326" lon="20.01870377559426"><ele>572.0</ele><time>2026-05-06T10:54:07.999Z</time></trkpt><trkpt lat="49.69377318141983" lon="20.01881761962698"><ele>568.3333333333334</ele><time>2026-05-06T10:54:09.999Z</time></trkpt><trkpt lat="49.69378602305817" lon="20.01891690640564"><ele>564.6666666666666</ele><time>2026-05-06T10:54:11.999Z</time></trkpt><trkpt lat="49.693786816793796" lon="20.019031099257592"><ele>561.0</ele><time>2026-05-06T10:54:13.999Z</time></trkpt><trkpt lat="49.69380204768988" lon="20.019145116130694"><ele>558.1666666666666</ele><time>2026-05-06T10:54:15.999Z</time></trkpt><trkpt lat="49.69380627701477" lon="20.01928125089491"><ele>555.3333333333334</ele><time>2026-05-06T10:54:18.999Z</time></trkpt><trkpt lat="49.69381548622037" lon="20.01942257375618"><ele>552.5</ele><time>2026-05-06T10:54:21.999Z</time></trkpt><trkpt lat="49.693836844260495" lon="20.01953198828096"><ele>549.6666666666667</ele><time>2026-05-06T10:54:23.999Z</time></trkpt><trkpt lat="49.69383130465581" lon="20.019660460595034"><ele>546.8333333333334</ele><time>2026-05-06T10:54:25.999Z</time></trkpt><trkpt lat="49.693809967522775" lon="20.019773297067992"><ele>544.0</ele><time>2026-05-06T10:54:27.999Z</time></trkpt><trkpt lat="49.69376560322928" lon="20.01991118754999"><ele>544.4</ele><time>2026-05-06T10:54:29.999Z</time></trkpt><trkpt lat="49.69370603381493" lon="20.020021181883784"><ele>544.8</ele><time>2026-05-06T10:54:31.999Z</time></trkpt><trkpt lat="49.69363249016041" lon="20.020095849045394"><ele>545.2</ele><time>2026-05-06T10:54:33.999Z</time></trkpt><trkpt lat="49.69354969420907" lon="20.020177981348475"><ele>545.6</ele><time>2026-05-06T10:54:35.999Z</time></trkpt><trkpt lat="49.693468108946654" lon="20.020276760902377"><ele>546.0</ele><time>2026-05-06T10:54:37.999Z</time></trkpt><trkpt lat="49.69340629328352" lon="20.020353781224248"><ele>546.0</ele><time>2026-05-06T10:54:39.999Z</time></trkpt><trkpt lat="49.693355081347335" lon="20.020417806393887"><ele>546.0</ele><time>2026-05-06T10:54:41.999Z</time></trkpt><trkpt lat="49.69329006626039" lon="20.020459620804203"><ele>546.0</ele><time>2026-05-06T10:54:43.999Z</time></trkpt><trkpt lat="49.693212532596355" lon="20.0204639341731"><ele>546.0</ele><time>2026-05-06T10:54:45.999Z</time></trkpt><trkpt lat="49.69315068138962" lon="20.020440203625775"><ele>546.0</ele><time>2026-05-06T10:54:46.999Z</time></trkpt><trkpt lat="49.69309017312357" lon="20.02039274608632"><ele>546.0</ele><time>2026-05-06T10:54:49.999Z</time></trkpt><trkpt lat="49.693117715115164" lon="20.02048502525177"><ele>546.0</ele><time>2026-05-06T10:54:52.999Z</time></trkpt><trkpt lat="49.693086221455985" lon="20.020600809370055"><ele>546.0</ele><time>2026-05-06T10:54:55.999Z</time></trkpt><trkpt lat="49.693030362101474" lon="20.020711121240932"><ele>546.0</ele><time>2026-05-06T10:54:57.999Z</time></trkpt><trkpt lat="49.69292413580573" lon="20.02083148252124"><ele>546.0</ele><time>2026-05-06T10:54:59.999Z</time></trkpt><trkpt lat="49.692840969215126" lon="20.02095990156748"><ele>546.0</ele><time>2026-05-06T10:55:01.998Z</time></trkpt><trkpt lat="49.69283234913656" lon="20.02107237806943"><ele>546.0</ele><time>2026-05-06T10:55:03.998Z</time></trkpt><trkpt lat="49.69274657366969" lon="20.021123993880952"><ele>547.6</ele><time>2026-05-06T10:55:05.998Z</time></trkpt><trkpt lat="49.692657001758135" lon="20.02118881568654"><ele>549.2</ele><time>2026-05-06T10:55:07.998Z</time></trkpt><trkpt lat="49.692549731492534" lon="20.0212638410582"><ele>550.8</ele><time>2026-05-06T10:55:09.998Z</time></trkpt><trkpt lat="49.69244140854271" lon="20.02129466069697"><ele>552.4</ele><time>2026-05-06T10:55:11.998Z</time></trkpt><trkpt lat="49.692332836847115" lon="20.021301472466476"><ele>554.0</ele><time>2026-05-06T10:55:13.998Z</time></trkpt><trkpt lat="49.69225415117462" lon="20.021336699766888"><ele>554.0</ele><time>2026-05-06T10:55:16.998Z</time></trkpt><trkpt lat="49.69231596730144" lon="20.02137453083386"><ele>554.0</ele><time>2026-05-06T10:55:38Z</time></trkpt><trkpt lat="49.69221357561575" lon="20.021385907229067"><ele>554.0</ele><time>2026-05-06T10:56:55.999Z</time></trkpt><trkpt lat="49.69212342776828" lon="20.021430719265442"><ele>554.0</ele><time>2026-05-06T10:56:57.999Z</time></trkpt><trkpt lat="49.69202555967848" lon="20.02145633162144"><ele>554.0</ele><time>2026-05-06T10:56:59.999Z</time></trkpt><trkpt lat="49.69192361027086" lon="20.021505116325972"><ele>555.3333333333333</ele><time>2026-05-06T10:57:01.999Z</time></trkpt><trkpt lat="49.69185967365803" lon="20.021522219039152"><ele>556.6666666666666</ele><time>2026-05-06T10:57:02.999Z</time></trkpt><trkpt lat="49.69174390932428" lon="20.021531195189393"><ele>558.0</ele><time>2026-05-06T10:57:04.998Z</time></trkpt><trkpt lat="49.69167577871756" lon="20.02154473000759"><ele>559.3333333333334</ele><time>2026-05-06T10:57:05.998Z</time></trkpt><trkpt lat="49.69161276955859" lon="20.021584328046956"><ele>560.6666666666667</ele><time>2026-05-06T10:57:06.998Z</time></trkpt><trkpt lat="49.69152288539634" lon="20.021643271117934"><ele>562.0</ele><time>2026-05-06T10:57:08.998Z</time></trkpt><trkpt lat="49.69145686225559" lon="20.021678653896515"><ele>562.0</ele><time>2026-05-06T10:57:10.998Z</time></trkpt><trkpt lat="49.6913975744489" lon="20.0217156876797"><ele>562.0</ele><time>2026-05-06T10:57:13.998Z</time></trkpt><trkpt lat="49.69130468246993" lon="20.02177044744702"><ele>562.0</ele><time>2026-05-06T10:57:15.998Z</time></trkpt><trkpt lat="49.691219343647425" lon="20.02182236753287"><ele>562.0</ele><time>2026-05-06T10:57:17.998Z</time></trkpt><trkpt lat="49.69115382343615" lon="20.02187867260441"><ele>562.0</ele><time>2026-05-06T10:57:19.998Z</time></trkpt><trkpt lat="49.69107479651264" lon="20.021941009834748"><ele>562.0</ele><time>2026-05-06T10:57:21.998Z</time></trkpt><trkpt lat="49.690989615621184" lon="20.021927550376475"><ele>567.0</ele><time>2026-05-06T10:57:23.998Z</time></trkpt><trkpt lat="49.69089808713302" lon="20.021926771344955"><ele>572.0</ele><time>2026-05-06T10:57:25.998Z</time></trkpt><trkpt lat="49.69078616195815" lon="20.02192791533055"><ele>577.0</ele><time>2026-05-06T10:57:28.998Z</time></trkpt><trkpt lat="49.69072601095825" lon="20.021960151771207"><ele>582.0</ele><time>2026-05-06T10:57:32Z</time></trkpt><trkpt lat="49.69066928858193" lon="20.022004025008293"><ele>587.0</ele><time>2026-05-06T10:57:45Z</time></trkpt><trkpt lat="49.690576153544775" lon="20.022009785415182"><ele>592.0</ele><time>2026-05-06T10:57:48Z</time></trkpt><trkpt lat="49.690509855597725" lon="20.022028899899592"><ele>592.0</ele><time>2026-05-06T10:57:49Z</time></trkpt><trkpt lat="49.690434216918725" lon="20.022033612276473"><ele>592.0</ele><time>2026-05-06T10:57:50Z</time></trkpt><trkpt lat="49.69036631893071" lon="20.022026452750172"><ele>592.0</ele><time>2026-05-06T10:57:51Z</time></trkpt><trkpt lat="49.690301577012406" lon="20.02200875322567"><ele>592.0</ele><time>2026-05-06T10:57:52Z</time></trkpt><trkpt lat="49.690194651111526" lon="20.022019270345307"><ele>592.0</ele><time>2026-05-06T10:57:54Z</time></trkpt><trkpt lat="49.690147119677775" lon="20.02194047752606"><ele>592.0</ele><time>2026-05-06T10:57:56Z</time></trkpt><trkpt lat="49.69007730008109" lon="20.02191556578394"><ele>598.5</ele><time>2026-05-06T10:58:01Z</time></trkpt><trkpt lat="49.689975645287554" lon="20.021972036621175"><ele>605.0</ele><time>2026-05-06T10:58:04Z</time></trkpt><trkpt lat="49.68989648671559" lon="20.021967275983588"><ele>611.5</ele><time>2026-05-06T10:58:06Z</time></trkpt><trkpt lat="49.68982183773836" lon="20.02194704253897"><ele>618.0</ele><time>2026-05-06T10:58:08Z</time></trkpt><trkpt lat="49.68973580254703" lon="20.021925159058686"><ele>624.5</ele><time>2026-05-06T10:58:25.999Z</time></trkpt><trkpt lat="49.68966195807413" lon="20.021939987418627"><ele>631.0</ele><time>2026-05-06T10:58:27.999Z</time></trkpt><trkpt lat="49.689587114991035" lon="20.021918541398342"><ele>631.0</ele><time>2026-05-06T10:58:28.999Z</time></trkpt><trkpt lat="49.689457880120784" lon="20.021892027562536"><ele>631.0</ele><time>2026-05-06T10:58:30.999Z</time></trkpt><trkpt lat="49.689382054131514" lon="20.021793656327322"><ele>631.0</ele><time>2026-05-06T10:58:32.999Z</time></trkpt><trkpt lat="49.68935696133945" lon="20.02170164585565"><ele>631.0</ele><time>2026-05-06T10:58:34.999Z</time></trkpt><trkpt lat="49.689295173280605" lon="20.021554394272954"><ele>631.0</ele><time>2026-05-06T10:58:37.999Z</time></trkpt><trkpt lat="49.68929373938279" lon="20.02144145310203"><ele>634.1666666666667</ele><time>2026-05-06T10:58:55.999Z</time></trkpt><trkpt lat="49.689323191337046" lon="20.02133991898735"><ele>637.3333333333334</ele><time>2026-05-06T10:58:59.999Z</time></trkpt><trkpt lat="49.68936224436372" lon="20.021254863980552"><ele>640.5</ele><time>2026-05-06T10:59:06.999Z</time></trkpt><trkpt lat="49.68942060944512" lon="20.02120715724301"><ele>643.6666666666666</ele><time>2026-05-06T10:59:10.998Z</time></trkpt><trkpt lat="49.689477581896604" lon="20.021152579616615"><ele>646.8333333333333</ele><time>2026-05-06T10:59:26.998Z</time></trkpt><trkpt lat="49.68938179149073" lon="20.021204828233607"><ele>650.0</ele><time>2026-05-06T10:59:38Z</time></trkpt><trkpt lat="49.689292885243454" lon="20.02119096700651"><ele>655.3333333333333</ele><time>2026-05-06T10:59:41Z</time></trkpt><trkpt lat="49.68920843580724" lon="20.021198918312777"><ele>660.6666666666666</ele><time>2026-05-06T10:59:43Z</time></trkpt><trkpt lat="49.68909637196577" lon="20.02115359220145"><ele>666.0</ele><time>2026-05-06T11:00:03Z</time></trkpt><trkpt lat="49.6890274566446" lon="20.02115148684182"><ele>671.3333333333334</ele><time>2026-05-06T11:00:05Z</time></trkpt><trkpt lat="49.68900247476859" lon="20.02104488442514"><ele>676.6666666666667</ele><time>2026-05-06T11:00:10Z</time></trkpt><trkpt lat="49.68895077001084" lon="20.02098772211536"><ele>682.0</ele><time>2026-05-06T11:00:16Z</time></trkpt><trkpt lat="49.688890849622126" lon="20.02104664849302"><ele>682.0</ele><time>2026-05-06T11:01:01.999Z</time></trkpt><trkpt lat="49.68890216434943" lon="20.020932731385862"><ele>682.0</ele><time>2026-05-06T11:01:16.998Z</time></trkpt><trkpt lat="49.68889975607323" lon="20.020834022222406"><ele>682.0</ele><time>2026-05-06T11:01:19.998Z</time></trkpt><trkpt lat="49.6889041263567" lon="20.020729664886236"><ele>682.0</ele><time>2026-05-06T11:01:22.998Z</time></trkpt><trkpt lat="49.68893252346675" lon="20.02063994736075"><ele>682.0</ele><time>2026-05-06T11:02:10Z</time></trkpt><trkpt lat="49.68886890843622" lon="20.02064327954862"><ele>682.0</ele><time>2026-05-06T11:02:30.999Z</time></trkpt><trkpt lat="49.6887979265062" lon="20.020661116502225"><ele>682.0</ele><time>2026-05-06T11:02:45.999Z</time></trkpt><trkpt lat="49.68879877096532" lon="20.020560403421854"><ele>685.4285714285714</ele><time>2026-05-06T11:03:42.998Z</time></trkpt><trkpt lat="49.68882379818732" lon="20.020457397046187"><ele>688.8571428571429</ele><time>2026-05-06T11:03:48Z</time></trkpt><trkpt lat="49.68876116443043" lon="20.020519722271136"><ele>692.2857142857142</ele><time>2026-05-06T11:05:44.998Z</time></trkpt><trkpt lat="49.68868633298861" lon="20.020464091877823"><ele>695.7142857142858</ele><time>2026-05-06T11:07:18.999Z</time></trkpt><trkpt lat="49.68863576398927" lon="20.020391232075195"><ele>699.1428571428572</ele><time>2026-05-06T11:07:23.999Z</time></trkpt><trkpt lat="49.68860018606297" lon="20.020478518194594"><ele>702.5714285714286</ele><time>2026-05-06T11:09:01.999Z</time></trkpt><trkpt lat="49.68861166712707" lon="20.020355878644793"><ele>706.0</ele><time>2026-05-06T11:10:04.998Z</time></trkpt><trkpt lat="49.68857628083168" lon="20.020272744421796"><ele>712.1428571428571</ele><time>2026-05-06T11:10:20Z</time></trkpt><trkpt lat="49.68851944092391" lon="20.02032034767324"><ele>718.2857142857143</ele><time>2026-05-06T11:10:28Z</time></trkpt><trkpt lat="49.688457052105875" lon="20.02040631908759"><ele>724.4285714285714</ele><time>2026-05-06T11:10:50.999Z</time></trkpt><trkpt lat="49.688432326898905" lon="20.020310983791557"><ele>730.5714285714286</ele><time>2026-05-06T11:11:17.999Z</time></trkpt><trkpt lat="49.68847192336198" lon="20.02022941615051"><ele>736.7142857142858</ele><time>2026-05-06T11:11:35.999Z</time></trkpt><trkpt lat="49.68846343172597" lon="20.020126936091877"><ele>742.8571428571429</ele><time>2026-05-06T11:11:40.999Z</time></trkpt><trkpt lat="49.6884643275393" lon="20.020020263339045"><ele>749.0</ele><time>2026-05-06T11:12:09.998Z</time></trkpt><trkpt lat="49.688429537143904" lon="20.02010411106718"><ele>749.0</ele><time>2026-05-06T11:12:21Z</time></trkpt><trkpt lat="49.688376682816546" lon="20.020167017658576"><ele>749.0</ele><time>2026-05-06T11:12:29Z</time></trkpt><trkpt lat="49.688341133590896" lon="20.020078101624925"><ele>749.0</ele><time>2026-05-06T11:12:32Z</time></trkpt><trkpt lat="49.68835644018236" lon="20.019983236093662"><ele>749.0</ele><time>2026-05-06T11:12:37Z</time></trkpt><trkpt lat="49.68833394852974" lon="20.019889149438605"><ele>749.0</ele><time>2026-05-06T11:13:32.999Z</time></trkpt><trkpt lat="49.68827588082102" lon="20.01999487133808"><ele>749.0</ele><time>2026-05-06T11:15:46.999Z</time></trkpt><trkpt lat="49.68834968578971" lon="20.01997101411508"><ele>749.0</ele><time>2026-05-06T11:17:14.999Z</time></trkpt><trkpt lat="49.6883043432999" lon="20.019874152592713"><ele>749.0</ele><time>2026-05-06T11:18:18.998Z</time></trkpt><trkpt lat="49.68831070061287" lon="20.01997190879843"><ele>749.0</ele><time>2026-05-06T11:19:41.999Z</time></trkpt><trkpt lat="49.68832302977844" lon="20.02006880357913"><ele>749.0</ele><time>2026-05-06T11:19:50.999Z</time></trkpt><trkpt lat="49.68838605444746" lon="20.020109135270623"><ele>749.0</ele><time>2026-05-06T11:20:01.999Z</time></trkpt><trkpt lat="49.68843538859563" lon="20.02004197335182"><ele>749.0</ele><time>2026-05-06T11:20:08.998Z</time></trkpt><trkpt lat="49.68850073226647" lon="20.019992724573147"><ele>749.0</ele><time>2026-05-06T11:20:15.998Z</time></trkpt><trkpt lat="49.68855263090996" lon="20.01992620000199"><ele>749.0</ele><time>2026-05-06T11:20:21.998Z</time></trkpt><trkpt lat="49.68860412081976" lon="20.019863779173534"><ele>746.0</ele><time>2026-05-06T11:20:46Z</time></trkpt><trkpt lat="49.68863636380942" lon="20.01977428291401"><ele>743.0</ele><time>2026-05-06T11:21:12Z</time></trkpt><trkpt lat="49.68866332934729" lon="20.019675520135483"><ele>740.0</ele><time>2026-05-06T11:21:33.999Z</time></trkpt><trkpt lat="49.688734809230574" lon="20.01973456058417"><ele>737.0</ele><time>2026-05-06T11:25:52.999Z</time></trkpt><trkpt lat="49.688803682414246" lon="20.019752393028412"><ele>734.0</ele><time>2026-05-06T11:26:01.999Z</time></trkpt><trkpt lat="49.688863352910595" lon="20.019795581293263"><ele>731.0</ele><time>2026-05-06T11:26:09.999Z</time></trkpt><trkpt lat="49.68892795658494" lon="20.019810729198557"><ele>728.0</ele><time>2026-05-06T11:26:17.999Z</time></trkpt><trkpt lat="49.6889859042858" lon="20.019741500838684"><ele>728.0</ele><time>2026-05-06T11:26:29.999Z</time></trkpt><trkpt lat="49.68902654940584" lon="20.01965971007727"><ele>728.0</ele><time>2026-05-06T11:26:43.998Z</time></trkpt><trkpt lat="49.68903480180242" lon="20.01955975197133"><ele>728.0</ele><time>2026-05-06T11:26:46.998Z</time></trkpt><trkpt lat="49.6889933795392" lon="20.019472410740864"><ele>728.0</ele><time>2026-05-06T11:26:52.998Z</time></trkpt><trkpt lat="49.68899372545877" lon="20.01936287243811"><ele>728.0</ele><time>2026-05-06T11:26:56Z</time></trkpt><trkpt lat="49.68901056242892" lon="20.01924567478053"><ele>728.0</ele><time>2026-05-06T11:27:03Z</time></trkpt><trkpt lat="49.689030139675275" lon="20.01912233042841"><ele>728.0</ele><time>2026-05-06T11:27:08Z</time></trkpt><trkpt lat="49.689043391613296" lon="20.019005865795897"><ele>729.8333333333333</ele><time>2026-05-06T11:27:10Z</time></trkpt><trkpt lat="49.6890079445409" lon="20.018901742414464"><ele>731.6666666666666</ele><time>2026-05-06T11:27:13Z</time></trkpt><trkpt lat="49.68897562256099" lon="20.018777405366333"><ele>733.5</ele><time>2026-05-06T11:27:17Z</time></trkpt><trkpt lat="49.68900257868145" lon="20.018653170646214"><ele>735.3333333333334</ele><time>2026-05-06T11:27:20Z</time></trkpt><trkpt lat="49.689024551169666" lon="20.01855219332901"><ele>737.1666666666667</ele><time>2026-05-06T11:27:23Z</time></trkpt><trkpt lat="49.688995144109505" lon="20.018453927002465"><ele>739.0</ele><time>2026-05-06T11:27:27Z</time></trkpt><trkpt lat="49.68899799405293" lon="20.018306450530464"><ele>740.4285714285714</ele><time>2026-05-06T11:29:03Z</time></trkpt><trkpt lat="49.68897482795069" lon="20.018212967624894"><ele>741.8571428571429</ele><time>2026-05-06T11:29:05Z</time></trkpt><trkpt lat="49.68890033485556" lon="20.01820671359711"><ele>743.2857142857142</ele><time>2026-05-06T11:29:08Z</time></trkpt><trkpt lat="49.68886635525645" lon="20.018111896447163"><ele>744.7142857142858</ele><time>2026-05-06T11:29:37Z</time></trkpt><trkpt lat="49.688869208153505" lon="20.018010754466246"><ele>746.1428571428571</ele><time>2026-05-06T11:29:40Z</time></trkpt><trkpt lat="49.68888101622411" lon="20.017892780980596"><ele>747.5714285714286</ele><time>2026-05-06T11:29:42.999Z</time></trkpt><trkpt lat="49.68888814483625" lon="20.017781725225255"><ele>749.0</ele><time>2026-05-06T11:29:47.999Z</time></trkpt><trkpt lat="49.68889961856617" lon="20.017641394134944"><ele>749.0</ele><time>2026-05-06T11:30:16.999Z</time></trkpt><trkpt lat="49.68885450629714" lon="20.017545689957938"><ele>749.0</ele><time>2026-05-06T11:30:18.999Z</time></trkpt><trkpt lat="49.68878606978281" lon="20.01755833657908"><ele>749.0</ele><time>2026-05-06T11:30:40.998Z</time></trkpt><trkpt lat="49.68872872451322" lon="20.017514178415272"><ele>749.0</ele><time>2026-05-06T11:31:38Z</time></trkpt><trkpt lat="49.68870133367946" lon="20.01740602191662"><ele>749.0</ele><time>2026-05-06T11:39:49Z</time></trkpt><trkpt lat="49.6886398191713" lon="20.01737492227602"><ele>749.0</ele><time>2026-05-06T11:39:53Z</time></trkpt><trkpt lat="49.68860894642965" lon="20.017497925019153"><ele>749.0</ele><time>2026-05-06T11:40:35.999Z</time></trkpt><trkpt lat="49.688564630203366" lon="20.01763296601105"><ele>757.6666666666666</ele><time>2026-05-06T11:40:38.999Z</time></trkpt><trkpt lat="49.688500447660715" lon="20.0176633637398"><ele>766.3333333333333</ele><time>2026-05-06T11:42:23.999Z</time></trkpt><trkpt lat="49.68842171622664" lon="20.017606074927652"><ele>775.0</ele><time>2026-05-06T11:44:15Z</time></trkpt><trkpt lat="49.68835602715593" lon="20.01751080270016"><ele>783.6666666666666</ele><time>2026-05-06T11:48:04Z</time></trkpt><trkpt lat="49.688377190772705" lon="20.017414575878675"><ele>792.3333333333334</ele><time>2026-05-06T11:48:24Z</time></trkpt><trkpt lat="49.688371367919146" lon="20.01731589853026"><ele>801.0</ele><time>2026-05-06T11:48:28Z</time></trkpt><trkpt lat="49.68836511737489" lon="20.017183599479594"><ele>801.0</ele><time>2026-05-06T11:48:58.999Z</time></trkpt><trkpt lat="49.688296994824306" lon="20.01716419852158"><ele>801.0</ele><time>2026-05-06T11:49:01.999Z</time></trkpt><trkpt lat="49.688253344335735" lon="20.017234486104407"><ele>801.0</ele><time>2026-05-06T11:49:21.999Z</time></trkpt><trkpt lat="49.688242466039334" lon="20.017339621132923"><ele>801.0</ele><time>2026-05-06T11:50:43Z</time></trkpt><trkpt lat="49.68819527829502" lon="20.017426344667864"><ele>801.0</ele><time>2026-05-06T11:53:15.999Z</time></trkpt><trkpt lat="49.68813352252489" lon="20.017463581970762"><ele>801.0</ele><time>2026-05-06T11:53:20.999Z</time></trkpt><trkpt lat="49.68809129869941" lon="20.017546731915836"><ele>801.0</ele><time>2026-05-06T11:53:31.999Z</time></trkpt><trkpt lat="49.68813436045568" lon="20.017632299728724"><ele>803.1666666666666</ele><time>2026-05-06T11:53:46.998Z</time></trkpt><trkpt lat="49.68813008844408" lon="20.017482895349314"><ele>805.3333333333333</ele><time>2026-05-06T11:54:43Z</time></trkpt><trkpt lat="49.68803961097827" lon="20.01742290645293"><ele>807.5</ele><time>2026-05-06T11:54:45Z</time></trkpt><trkpt lat="49.688075021441044" lon="20.01733188216551"><ele>809.6666666666666</ele><time>2026-05-06T11:57:36.999Z</time></trkpt><trkpt lat="49.68798053084511" lon="20.017346962381563"><ele>811.8333333333333</ele><time>2026-05-06T11:58:33Z</time></trkpt><trkpt lat="49.68797459368686" lon="20.017247579002913"><ele>814.0</ele><time>2026-05-06T11:58:42Z</time></trkpt><trkpt lat="49.68794776284508" lon="20.017116317992823"><ele>814.0000000000001</ele><time>2026-05-06T11:59:04Z</time></trkpt><trkpt lat="49.68788406120387" lon="20.017023630518732"><ele>814.0</ele><time>2026-05-06T11:59:06Z</time></trkpt><trkpt lat="49.68783194818964" lon="20.016951478301454"><ele>814.0</ele><time>2026-05-06T11:59:08.999Z</time></trkpt><trkpt lat="49.687777970829956" lon="20.017022551300034"><ele>814.0</ele><time>2026-05-06T11:59:16.999Z</time></trkpt><trkpt lat="49.6877400447665" lon="20.017102491099344"><ele>814.0</ele><time>2026-05-06T11:59:18.999Z</time></trkpt><trkpt lat="49.68771619754444" lon="20.017210593426253"><ele>814.0000000000001</ele><time>2026-05-06T11:59:23.999Z</time></trkpt><trkpt lat="49.6876582520556" lon="20.01729345622776"><ele>814.0</ele><time>2026-05-06T11:59:26.999Z</time></trkpt><trkpt lat="49.6876122213614" lon="20.017373249468168"><ele>821.1666666666666</ele><time>2026-05-06T11:59:59.999Z</time></trkpt><trkpt lat="49.68754970084362" lon="20.017417004486678"><ele>828.3333333333333</ele><time>2026-05-06T12:00:05.998Z</time></trkpt><trkpt lat="49.68749668994405" lon="20.017495911692382"><ele>835.5</ele><time>2026-05-06T12:00:12.998Z</time></trkpt><trkpt lat="49.687419001775055" lon="20.017517806715006"><ele>842.6666666666667</ele><time>2026-05-06T12:00:15.998Z</time></trkpt><trkpt lat="49.68733592861299" lon="20.01749395468329"><ele>849.8333333333334</ele><time>2026-05-06T12:00:17.998Z</time></trkpt><trkpt lat="49.6872590398728" lon="20.01747140718606"><ele>857.0</ele><time>2026-05-06T12:00:19.998Z</time></trkpt><trkpt lat="49.687328988024966" lon="20.01751848887009"><ele>857.0000000000001</ele><time>2026-05-06T12:01:30.999Z</time></trkpt><trkpt lat="49.687404359366234" lon="20.017525004536576"><ele>857.0</ele><time>2026-05-06T12:01:34.999Z</time></trkpt><trkpt lat="49.68736728297818" lon="20.017626269323472"><ele>857.0</ele><time>2026-05-06T12:02:32.998Z</time></trkpt><trkpt lat="49.68732799479266" lon="20.017708035952996"><ele>857.0</ele><time>2026-05-06T12:02:39Z</time></trkpt><trkpt lat="49.68730556388576" lon="20.01759258132227"><ele>857.0000000000001</ele><time>2026-05-06T12:03:35.999Z</time></trkpt><trkpt lat="49.68725084592372" lon="20.017472246682352"><ele>857.0</ele><time>2026-05-06T12:03:37.999Z</time></trkpt><trkpt lat="49.687151802330696" lon="20.017411354127432"><ele>858.8333333333334</ele><time>2026-05-06T12:03:39.999Z</time></trkpt><trkpt lat="49.68709427505671" lon="20.017282034265204"><ele>860.6666666666667</ele><time>2026-05-06T12:03:42.999Z</time></trkpt><trkpt lat="49.68705830695007" lon="20.017171798189302"><ele>862.5</ele><time>2026-05-06T12:03:45.999Z</time></trkpt><trkpt lat="49.687007155275495" lon="20.017110087264097"><ele>864.3333333333333</ele><time>2026-05-06T12:04:24.998Z</time></trkpt><trkpt lat="49.687008011599744" lon="20.016996584628817"><ele>866.1666666666666</ele><time>2026-05-06T12:04:28.998Z</time></trkpt><trkpt lat="49.68694371816122" lon="20.016910929161657"><ele>868.0</ele><time>2026-05-06T12:04:33.998Z</time></trkpt><trkpt lat="49.68690894163518" lon="20.016776397901726"><ele>872.4999999999999</ele><time>2026-05-06T12:04:54Z</time></trkpt><trkpt lat="49.686843365794665" lon="20.01674880538028"><ele>877.0</ele><time>2026-05-06T12:05:02Z</time></trkpt><trkpt lat="49.68678795516365" lon="20.016682191749453"><ele>881.5</ele><time>2026-05-06T12:07:18Z</time></trkpt><trkpt lat="49.68677171817968" lon="20.016582493259794"><ele>886.0</ele><time>2026-05-06T12:08:43.998Z</time></trkpt><trkpt lat="49.68684321488832" lon="20.01660263766268"><ele>890.4999999999999</ele><time>2026-05-06T12:09:01Z</time></trkpt><trkpt lat="49.68676863285" lon="20.0166600467314"><ele>895.0</ele><time>2026-05-06T12:09:13Z</time></trkpt><trkpt lat="49.68691552034775" lon="20.01666763573876"><ele>894.9999999999999</ele><time>2026-05-06T12:09:59.999Z</time></trkpt><trkpt lat="49.68682584298579" lon="20.01666355392772"><ele>895.0</ele><time>2026-05-06T12:10:11.999Z</time></trkpt><trkpt lat="49.68676972339369" lon="20.0165618799396"><ele>895.0</ele><time>2026-05-06T12:10:18.999Z</time></trkpt><trkpt lat="49.68679098890313" lon="20.016436357539387"><ele>895.0</ele><time>2026-05-06T12:10:23.999Z</time></trkpt><trkpt lat="49.68680129407253" lon="20.016323262711303"><ele>894.9999999999999</ele><time>2026-05-06T12:10:25.998Z</time></trkpt><trkpt lat="49.686819196574675" lon="20.01617555872733"><ele>895.0</ele><time>2026-05-06T12:10:28.998Z</time></trkpt><trkpt lat="49.68683043612637" lon="20.01604388414201"><ele>895.1666666666666</ele><time>2026-05-06T12:10:31.998Z</time></trkpt><trkpt lat="49.686818244784014" lon="20.015927088143588"><ele>895.3333333333333</ele><time>2026-05-06T12:10:34.998Z</time></trkpt><trkpt lat="49.68680752179029" lon="20.015815119174526"><ele>895.5</ele><time>2026-05-06T12:10:35.998Z</time></trkpt><trkpt lat="49.68681856126786" lon="20.01570243079409"><ele>895.6666666666667</ele><time>2026-05-06T12:10:36.998Z</time></trkpt><trkpt lat="49.686857538056465" lon="20.015556299247827"><ele>895.8333333333334</ele><time>2026-05-06T12:10:38.998Z</time></trkpt><trkpt lat="49.68687456573221" lon="20.015407830291412"><ele>896.0</ele><time>2026-05-06T12:10:40.998Z</time></trkpt><trkpt lat="49.686847534245885" lon="20.01529730586816"><ele>897.0</ele><time>2026-05-06T12:10:41.998Z</time></trkpt><trkpt lat="49.68683380519648" lon="20.01519174729618"><ele>897.9999999999999</ele><time>2026-05-06T12:10:42.998Z</time></trkpt><trkpt lat="49.68683978437998" lon="20.015051712476676"><ele>898.9999999999999</ele><time>2026-05-06T12:10:45.998Z</time></trkpt><trkpt lat="49.68687158478024" lon="20.01495436574422"><ele>900.0</ele><time>2026-05-06T12:10:47.998Z</time></trkpt><trkpt lat="49.68692992652942" lon="20.01481049367558"><ele>901.0</ele><time>2026-05-06T12:10:49.998Z</time></trkpt><trkpt lat="49.68692884155659" lon="20.014608887239152"><ele>901.6666666666666</ele><time>2026-05-06T12:10:51.998Z</time></trkpt><trkpt lat="49.68696354508645" lon="20.014525669469986"><ele>902.3333333333333</ele><time>2026-05-06T12:10:53.998Z</time></trkpt><trkpt lat="49.68700553640507" lon="20.014394073117046"><ele>903.0</ele><time>2026-05-06T12:10:55.998Z</time></trkpt><trkpt lat="49.687066706440014" lon="20.014281890038422"><ele>903.6666666666667</ele><time>2026-05-06T12:10:58.998Z</time></trkpt><trkpt lat="49.68707411429493" lon="20.014164535249645"><ele>904.3333333333334</ele><time>2026-05-06T12:11:01Z</time></trkpt><trkpt lat="49.6870713713337" lon="20.01404687897849"><ele>905.0</ele><time>2026-05-06T12:11:04Z</time></trkpt><trkpt lat="49.68710683976581" lon="20.013947341726155"><ele>908.8333333333334</ele><time>2026-05-06T12:11:08Z</time></trkpt><trkpt lat="49.687076494706936" lon="20.01382483698232"><ele>912.6666666666667</ele><time>2026-05-06T12:11:12Z</time></trkpt><trkpt lat="49.68708792218328" lon="20.01372031823309"><ele>916.5</ele><time>2026-05-06T12:11:15Z</time></trkpt><trkpt lat="49.68716089870746" lon="20.013659009154637"><ele>920.3333333333333</ele><time>2026-05-06T12:11:19Z</time></trkpt><trkpt lat="49.68716164804636" lon="20.013540532021082"><ele>924.1666666666666</ele><time>2026-05-06T12:11:21Z</time></trkpt><trkpt lat="49.68721072447646" lon="20.013432619979795"><ele>928.0</ele><time>2026-05-06T12:11:24Z</time></trkpt><trkpt lat="49.6872319761111" lon="20.013326345907675"><ele>930.3333333333333</ele><time>2026-05-06T12:11:26Z</time></trkpt><trkpt lat="49.68726679392193" lon="20.013215815531595"><ele>932.6666666666666</ele><time>2026-05-06T12:11:28Z</time></trkpt><trkpt lat="49.687263486128536" lon="20.013118215440137"><ele>935.0</ele><time>2026-05-06T12:11:31Z</time></trkpt><trkpt lat="49.68729497971876" lon="20.013000847362612"><ele>937.3333333333333</ele><time>2026-05-06T12:11:35.999Z</time></trkpt><trkpt lat="49.68732935646484" lon="20.012906559726332"><ele>939.6666666666666</ele><time>2026-05-06T12:11:39.999Z</time></trkpt><trkpt lat="49.68736007588438" lon="20.012777568438274"><ele>942.0</ele><time>2026-05-06T12:11:44.999Z</time></trkpt><trkpt lat="49.68735936873809" lon="20.01266353708783"><ele>942.0</ele><time>2026-05-06T12:11:46.999Z</time></trkpt><trkpt lat="49.68735667760916" lon="20.012561532461657"><ele>942.0</ele><time>2026-05-06T12:11:48.999Z</time></trkpt><trkpt lat="49.687413539762396" lon="20.012416060304794"><ele>942.0</ele><time>2026-05-06T12:11:51.999Z</time></trkpt><trkpt lat="49.68745295576405" lon="20.012337575780045"><ele>942.0</ele><time>2026-05-06T12:11:53.999Z</time></trkpt><trkpt lat="49.6874651735191" lon="20.012241833281596"><ele>942.0</ele><time>2026-05-06T12:11:55.999Z</time></trkpt><trkpt lat="49.68749983597629" lon="20.01215526290093"><ele>942.0</ele><time>2026-05-06T12:11:59.999Z</time></trkpt><trkpt lat="49.68757616593683" lon="20.012056172706195"><ele>943.3333333333334</ele><time>2026-05-06T12:12:03.999Z</time></trkpt><trkpt lat="49.687643083167586" lon="20.01202287447306"><ele>944.6666666666667</ele><time>2026-05-06T12:12:08.999Z</time></trkpt><trkpt lat="49.68765554202334" lon="20.01191298451201"><ele>946.0</ele><time>2026-05-06T12:12:18.999Z</time></trkpt><trkpt lat="49.68769425396904" lon="20.011790786731613"><ele>947.3333333333334</ele><time>2026-05-06T12:12:21.999Z</time></trkpt><trkpt lat="49.687718760042316" lon="20.011687720267894"><ele>948.6666666666667</ele><time>2026-05-06T12:12:24.999Z</time></trkpt><trkpt lat="49.687793923013984" lon="20.01159219060407"><ele>950.0</ele><time>2026-05-06T12:12:26.999Z</time></trkpt><trkpt lat="49.687883776709015" lon="20.011498073224843"><ele>953.0000000000001</ele><time>2026-05-06T12:12:28.999Z</time></trkpt><trkpt lat="49.68793136937419" lon="20.011396543790497"><ele>956.0</ele><time>2026-05-06T12:12:30.999Z</time></trkpt><trkpt lat="49.687950920847776" lon="20.01126682034179"><ele>959.0</ele><time>2026-05-06T12:12:32.998Z</time></trkpt><trkpt lat="49.68799912903224" lon="20.011161970195598"><ele>962.0</ele><time>2026-05-06T12:12:35.998Z</time></trkpt><trkpt lat="49.688031822941106" lon="20.011062498607675"><ele>965.0000000000001</ele><time>2026-05-06T12:12:37.998Z</time></trkpt><trkpt lat="49.68810220331039" lon="20.01094083152825"><ele>968.0</ele><time>2026-05-06T12:12:39.998Z</time></trkpt><trkpt lat="49.68815263221761" lon="20.01084125478782"><ele>968.6666666666667</ele><time>2026-05-06T12:12:41.998Z</time></trkpt><trkpt lat="49.68820889924879" lon="20.010713210498242"><ele>969.3333333333334</ele><time>2026-05-06T12:12:43.998Z</time></trkpt><trkpt lat="49.6882566295807" lon="20.010599031741695"><ele>970.0</ele><time>2026-05-06T12:12:45.998Z</time></trkpt><trkpt lat="49.68830181709646" lon="20.010514660383087"><ele>970.6666666666667</ele><time>2026-05-06T12:12:47.998Z</time></trkpt><trkpt lat="49.688355612766614" lon="20.010452159696836"><ele>971.3333333333334</ele><time>2026-05-06T12:12:49.998Z</time></trkpt><trkpt lat="49.68842360660081" lon="20.01035673516282"><ele>972.0</ele><time>2026-05-06T12:12:51.998Z</time></trkpt><trkpt lat="49.68848450098396" lon="20.01024199890078"><ele>972.0</ele><time>2026-05-06T12:12:53.998Z</time></trkpt><trkpt lat="49.68853932592041" lon="20.010174927488805"><ele>972.0</ele><time>2026-05-06T12:12:55.998Z</time></trkpt><trkpt lat="49.688604658240706" lon="20.010196082601396"><ele>972.0</ele><time>2026-05-06T12:13:03.998Z</time></trkpt><trkpt lat="49.688653440794525" lon="20.01011591522589"><ele>972.0</ele><time>2026-05-06T12:13:07Z</time></trkpt><trkpt lat="49.6886984445575" lon="20.010004124298593"><ele>972.0</ele><time>2026-05-06T12:13:11Z</time></trkpt><trkpt lat="49.68875784204121" lon="20.009896987319767"><ele>972.0</ele><time>2026-05-06T12:13:14Z</time></trkpt><trkpt lat="49.68881316980265" lon="20.00978698376331"><ele>970.1666666666666</ele><time>2026-05-06T12:13:16Z</time></trkpt><trkpt lat="49.68886515514319" lon="20.009708867926683"><ele>968.3333333333333</ele><time>2026-05-06T12:13:18Z</time></trkpt><trkpt lat="49.68892027381247" lon="20.0096283952292"><ele>966.5</ele><time>2026-05-06T12:13:20Z</time></trkpt><trkpt lat="49.68899192014724" lon="20.00958176206594"><ele>964.6666666666666</ele><time>2026-05-06T12:13:22Z</time></trkpt><trkpt lat="49.68906299476286" lon="20.00954419485088"><ele>962.8333333333333</ele><time>2026-05-06T12:13:24Z</time></trkpt><trkpt lat="49.68914109602498" lon="20.00950933440037"><ele>961.0</ele><time>2026-05-06T12:13:27Z</time></trkpt><trkpt lat="49.689222815020344" lon="20.009426808099587"><ele>960.9999999999999</ele><time>2026-05-06T12:13:29Z</time></trkpt><trkpt lat="49.68928604762715" lon="20.009320634913998"><ele>961.0</ele><time>2026-05-06T12:13:32Z</time></trkpt><trkpt lat="49.68933617498533" lon="20.00921603909236"><ele>961.0</ele><time>2026-05-06T12:13:34Z</time></trkpt><trkpt lat="49.68937996992948" lon="20.009119521418153"><ele>961.0</ele><time>2026-05-06T12:13:37Z</time></trkpt><trkpt lat="49.689472001616494" lon="20.00909578348122"><ele>960.9999999999999</ele><time>2026-05-06T12:13:39.999Z</time></trkpt><trkpt lat="49.689552950852864" lon="20.009079345285453"><ele>961.0</ele><time>2026-05-06T12:13:42.999Z</time></trkpt><trkpt lat="49.68962365384613" lon="20.00907684912125"><ele>958.4999999999999</ele><time>2026-05-06T12:13:45.999Z</time></trkpt><trkpt lat="49.68966312972986" lon="20.00896737166583"><ele>956.0</ele><time>2026-05-06T12:13:48.999Z</time></trkpt><trkpt lat="49.68976004353475" lon="20.0088905473965"><ele>953.5</ele><time>2026-05-06T12:13:51.999Z</time></trkpt><trkpt lat="49.68984142805758" lon="20.00889659883865"><ele>951.0</ele><time>2026-05-06T12:13:53.999Z</time></trkpt><trkpt lat="49.689893118961606" lon="20.008839860752946"><ele>948.4999999999999</ele><time>2026-05-06T12:13:55.999Z</time></trkpt><trkpt lat="49.689957648675644" lon="20.00879517529269"><ele>946.0</ele><time>2026-05-06T12:13:57.999Z</time></trkpt><trkpt lat="49.69001933589724" lon="20.00870043929741"><ele>945.9999999999999</ele><time>2026-05-06T12:14:00.999Z</time></trkpt><trkpt lat="49.690074042235175" lon="20.008642975243102"><ele>946.0</ele><time>2026-05-06T12:14:03.999Z</time></trkpt><trkpt lat="49.69013221279906" lon="20.008532248669084"><ele>946.0</ele><time>2026-05-06T12:14:07.999Z</time></trkpt><trkpt lat="49.69019996816832" lon="20.008452387215172"><ele>946.0</ele><time>2026-05-06T12:14:11.999Z</time></trkpt><trkpt lat="49.69022991236091" lon="20.008347431807792"><ele>945.9999999999999</ele><time>2026-05-06T12:14:15.999Z</time></trkpt><trkpt lat="49.69029586623609" lon="20.008343789295942"><ele>946.0</ele><time>2026-05-06T12:14:21.999Z</time></trkpt><trkpt lat="49.6903646145192" lon="20.008285084080324"><ele>942.8333333333333</ele><time>2026-05-06T12:14:28.999Z</time></trkpt><trkpt lat="49.69043392856688" lon="20.00827362694825"><ele>939.6666666666666</ele><time>2026-05-06T12:14:34.999Z</time></trkpt><trkpt lat="49.690497482822074" lon="20.008248922189136"><ele>936.5</ele><time>2026-05-06T12:14:38.999Z</time></trkpt><trkpt lat="49.690556962748694" lon="20.00815607872454"><ele>933.3333333333333</ele><time>2026-05-06T12:14:42.998Z</time></trkpt><trkpt lat="49.69062593584009" lon="20.008048199933626"><ele>930.1666666666666</ele><time>2026-05-06T12:14:45.998Z</time></trkpt><trkpt lat="49.69069837961959" lon="20.008021559706723"><ele>927.0</ele><time>2026-05-06T12:14:47.998Z</time></trkpt><trkpt lat="49.69076951481983" lon="20.00796591671647"><ele>927.0</ele><time>2026-05-06T12:14:50.998Z</time></trkpt><trkpt lat="49.69083570668841" lon="20.00787731161797"><ele>927.0</ele><time>2026-05-06T12:14:55.998Z</time></trkpt><trkpt lat="49.69089332124691" lon="20.007813031626398"><ele>927.0</ele><time>2026-05-06T12:14:58.998Z</time></trkpt><trkpt lat="49.690957456110574" lon="20.007751814579766"><ele>927.0</ele><time>2026-05-06T12:15:01.998Z</time></trkpt><trkpt lat="49.691025576685355" lon="20.007648709480886"><ele>927.0</ele><time>2026-05-06T12:15:04.998Z</time></trkpt><trkpt lat="49.69103811956035" lon="20.007528806414513"><ele>927.0</ele><time>2026-05-06T12:15:07.998Z</time></trkpt><trkpt lat="49.691070035159306" lon="20.00743253372732"><ele>922.2857142857141</ele><time>2026-05-06T12:15:10.998Z</time></trkpt><trkpt lat="49.69113574872212" lon="20.00742935786053"><ele>917.5714285714286</ele><time>2026-05-06T12:15:16Z</time></trkpt><trkpt lat="49.69120878262155" lon="20.007463254193407"><ele>912.8571428571428</ele><time>2026-05-06T12:15:31Z</time></trkpt><trkpt lat="49.69128186880329" lon="20.007494839897525"><ele>908.1428571428571</ele><time>2026-05-06T12:15:35Z</time></trkpt><trkpt lat="49.691350062374276" lon="20.007547579648396"><ele>903.4285714285713</ele><time>2026-05-06T12:15:38Z</time></trkpt><trkpt lat="49.69142744223692" lon="20.007611288018218"><ele>898.7142857142857</ele><time>2026-05-06T12:15:40Z</time></trkpt><trkpt lat="49.69149464889364" lon="20.00759877359814"><ele>894.0</ele><time>2026-05-06T12:15:42Z</time></trkpt><trkpt lat="49.69157733507589" lon="20.007554277143445"><ele>893.1666666666666</ele><time>2026-05-06T12:15:45Z</time></trkpt><trkpt lat="49.691656268251826" lon="20.007466146364578"><ele>892.3333333333333</ele><time>2026-05-06T12:15:47Z</time></trkpt><trkpt lat="49.69171180394285" lon="20.0074120204967"><ele>891.5</ele><time>2026-05-06T12:15:50.999Z</time></trkpt><trkpt lat="49.69179915225037" lon="20.007429176670417"><ele>890.6666666666666</ele><time>2026-05-06T12:15:54.999Z</time></trkpt><trkpt lat="49.69187872520966" lon="20.007425219750324"><ele>889.8333333333333</ele><time>2026-05-06T12:15:56.999Z</time></trkpt><trkpt lat="49.691934738667214" lon="20.007366129495942"><ele>889.0</ele><time>2026-05-06T12:15:59.999Z</time></trkpt><trkpt lat="49.69200211451876" lon="20.00738336413548"><ele>884.8571428571429</ele><time>2026-05-06T12:16:03.999Z</time></trkpt><trkpt lat="49.692071347402496" lon="20.007364566624474"><ele>880.7142857142858</ele><time>2026-05-06T12:16:07.999Z</time></trkpt><trkpt lat="49.692134332519124" lon="20.00735807528784"><ele>876.5714285714286</ele><time>2026-05-06T12:16:12.999Z</time></trkpt><trkpt lat="49.69219476432431" lon="20.007329080943016"><ele>872.4285714285714</ele><time>2026-05-06T12:16:31.999Z</time></trkpt><trkpt lat="49.69227407376428" lon="20.007361887023674"><ele>868.2857142857143</ele><time>2026-05-06T12:16:35.999Z</time></trkpt><trkpt lat="49.69233776244185" lon="20.00736770369103"><ele>864.1428571428571</ele><time>2026-05-06T12:16:37.999Z</time></trkpt><trkpt lat="49.69241674779248" lon="20.007393142613108"><ele>860.0</ele><time>2026-05-06T12:16:40.999Z</time></trkpt><trkpt lat="49.69248957120086" lon="20.007352948071638"><ele>860.0</ele><time>2026-05-06T12:16:43.999Z</time></trkpt><trkpt lat="49.692589026080675" lon="20.007355030864506"><ele>860.0</ele><time>2026-05-06T12:16:47.999Z</time></trkpt><trkpt lat="49.692651553313134" lon="20.007387013134245"><ele>860.0</ele><time>2026-05-06T12:16:51.999Z</time></trkpt><trkpt lat="49.69271035930322" lon="20.007317871862497"><ele>860.0</ele><time>2026-05-06T12:16:55.998Z</time></trkpt><trkpt lat="49.69274168980743" lon="20.0072245036435"><ele>860.0</ele><time>2026-05-06T12:17:04.998Z</time></trkpt><trkpt lat="49.692816398111276" lon="20.007218381314587"><ele>860.0</ele><time>2026-05-06T12:17:09.998Z</time></trkpt><trkpt lat="49.69287624713556" lon="20.007263351012345"><ele>860.0</ele><time>2026-05-06T12:17:14.998Z</time></trkpt><trkpt lat="49.69293830624239" lon="20.0072865897722"><ele>854.0000000000001</ele><time>2026-05-06T12:17:19Z</time></trkpt><trkpt lat="49.69301492547566" lon="20.007329099395953"><ele>848.0</ele><time>2026-05-06T12:17:25Z</time></trkpt><trkpt lat="49.69308899404101" lon="20.00738186498362"><ele>842.0</ele><time>2026-05-06T12:17:30Z</time></trkpt><trkpt lat="49.69315001830777" lon="20.007461448198185"><ele>836.0</ele><time>2026-05-06T12:17:34Z</time></trkpt><trkpt lat="49.693221990032534" lon="20.007518185418434"><ele>830.0000000000001</ele><time>2026-05-06T12:17:37Z</time></trkpt><trkpt lat="49.69329833000345" lon="20.007568359606772"><ele>824.0</ele><time>2026-05-06T12:17:41Z</time></trkpt><trkpt lat="49.6933616799497" lon="20.007590967845143"><ele>823.8333333333334</ele><time>2026-05-06T12:17:45Z</time></trkpt><trkpt lat="49.69343516770868" lon="20.0075979593641"><ele>823.6666666666667</ele><time>2026-05-06T12:17:48Z</time></trkpt><trkpt lat="49.693506664360534" lon="20.007641826071378"><ele>823.5</ele><time>2026-05-06T12:17:51Z</time></trkpt><trkpt lat="49.69359316268677" lon="20.007647070312583"><ele>823.3333333333333</ele><time>2026-05-06T12:17:54Z</time></trkpt><trkpt lat="49.69365848168917" lon="20.00766666349528"><ele>823.1666666666666</ele><time>2026-05-06T12:17:57Z</time></trkpt><trkpt lat="49.69376155292785" lon="20.00770668127305"><ele>823.0</ele><time>2026-05-06T12:17:59Z</time></trkpt><trkpt lat="49.69383637193029" lon="20.00775726865252"><ele>818.1666666666666</ele><time>2026-05-06T12:18:00.999Z</time></trkpt><trkpt lat="49.69375246198401" lon="20.007716116680864"><ele>813.3333333333333</ele><time>2026-05-06T12:19:17.998Z</time></trkpt><trkpt lat="49.69385281922703" lon="20.007706138843027"><ele>808.5</ele><time>2026-05-06T12:20:08.999Z</time></trkpt><trkpt lat="49.693920972241614" lon="20.00772667878389"><ele>803.6666666666667</ele><time>2026-05-06T12:20:15.999Z</time></trkpt><trkpt lat="49.69399068455589" lon="20.00777217987859"><ele>798.8333333333334</ele><time>2026-05-06T12:20:17.999Z</time></trkpt><trkpt lat="49.69408331355085" lon="20.007821163569687"><ele>794.0</ele><time>2026-05-06T12:20:19.999Z</time></trkpt><trkpt lat="49.69418229496474" lon="20.007832700601544"><ele>794.0000000000001</ele><time>2026-05-06T12:20:23.999Z</time></trkpt><trkpt lat="49.69424727544919" lon="20.00785741089113"><ele>794.0</ele><time>2026-05-06T12:20:25.999Z</time></trkpt><trkpt lat="49.694327765666095" lon="20.00786413541073"><ele>794.0</ele><time>2026-05-06T12:20:28.999Z</time></trkpt><trkpt lat="49.694396729436896" lon="20.007900826668298"><ele>794.0</ele><time>2026-05-06T12:20:30.999Z</time></trkpt><trkpt lat="49.69448418530067" lon="20.007931329147972"><ele>794.0000000000001</ele><time>2026-05-06T12:20:34.999Z</time></trkpt><trkpt lat="49.694555044184675" lon="20.007947219059005"><ele>794.0</ele><time>2026-05-06T12:20:36.999Z</time></trkpt><trkpt lat="49.694622308871416" lon="20.008004200559853"><ele>790.5000000000001</ele><time>2026-05-06T12:20:38.999Z</time></trkpt><trkpt lat="49.69469371417281" lon="20.008046991164946"><ele>787.0</ele><time>2026-05-06T12:20:40.999Z</time></trkpt><trkpt lat="49.694738424478935" lon="20.008118415645882"><ele>783.5</ele><time>2026-05-06T12:20:42.999Z</time></trkpt><trkpt lat="49.69479590071354" lon="20.008161481481647"><ele>780.0</ele><time>2026-05-06T12:20:44.999Z</time></trkpt><trkpt lat="49.69485709088677" lon="20.008189323197954"><ele>776.5000000000001</ele><time>2026-05-06T12:20:46.999Z</time></trkpt><trkpt lat="49.69494963472505" lon="20.008278537147255"><ele>773.0</ele><time>2026-05-06T12:20:49.999Z</time></trkpt><trkpt lat="49.69502005910867" lon="20.008244939589495"><ele>773.0000000000001</ele><time>2026-05-06T12:20:51.999Z</time></trkpt><trkpt lat="49.695115841957886" lon="20.008250572513745"><ele>773.0</ele><time>2026-05-06T12:20:54.999Z</time></trkpt><trkpt lat="49.69517903416486" lon="20.008260284273213"><ele>773.0</ele><time>2026-05-06T12:20:56.999Z</time></trkpt><trkpt lat="49.69526356128175" lon="20.008308327272783"><ele>773.0</ele><time>2026-05-06T12:20:58.999Z</time></trkpt><trkpt lat="49.69535849673284" lon="20.008355390208816"><ele>773.0000000000001</ele><time>2026-05-06T12:21:00.999Z</time></trkpt><trkpt lat="49.69542454445284" lon="20.00835104271263"><ele>773.0</ele><time>2026-05-06T12:21:03.999Z</time></trkpt><trkpt lat="49.695507673021034" lon="20.00834348433378"><ele>773.5000000000001</ele><time>2026-05-06T12:21:07.999Z</time></trkpt><trkpt lat="49.69558482214451" lon="20.008312150174348"><ele>774.0</ele><time>2026-05-06T12:21:09.998Z</time></trkpt><trkpt lat="49.69565349354503" lon="20.00835109984262"><ele>774.5</ele><time>2026-05-06T12:21:12.998Z</time></trkpt><trkpt lat="49.69572180128513" lon="20.008322407171548"><ele>775.0</ele><time>2026-05-06T12:21:14.998Z</time></trkpt><trkpt lat="49.69578912111234" lon="20.008330408561818"><ele>775.5000000000001</ele><time>2026-05-06T12:21:17.998Z</time></trkpt><trkpt lat="49.695833928698505" lon="20.008247441979087"><ele>776.0</ele><time>2026-05-06T12:21:23.998Z</time></trkpt><trkpt lat="49.69580415653234" lon="20.008090795204442"><ele>774.4285714285714</ele><time>2026-05-06T12:21:28.998Z</time></trkpt><trkpt lat="49.69580590496659" lon="20.007986881922665"><ele>772.8571428571429</ele><time>2026-05-06T12:21:33Z</time></trkpt><trkpt lat="49.69579894336669" lon="20.007879424267927"><ele>771.2857142857143</ele><time>2026-05-06T12:21:37Z</time></trkpt><trkpt lat="49.69580315284593" lon="20.007715908341552"><ele>769.7142857142858</ele><time>2026-05-06T12:21:40Z</time></trkpt><trkpt lat="49.695786175442805" lon="20.007613124454302"><ele>768.1428571428571</ele><time>2026-05-06T12:21:42Z</time></trkpt><trkpt lat="49.69577695918015" lon="20.007502341284464"><ele>766.5714285714287</ele><time>2026-05-06T12:21:44Z</time></trkpt><trkpt lat="49.6957910492124" lon="20.0074060814868"><ele>765.0</ele><time>2026-05-06T12:21:47Z</time></trkpt><trkpt lat="49.69572514299654" lon="20.007282673734757"><ele>762.1428571428572</ele><time>2026-05-06T12:21:49Z</time></trkpt><trkpt lat="49.69570999340669" lon="20.007184784963115"><ele>759.2857142857143</ele><time>2026-05-06T12:21:52Z</time></trkpt><trkpt lat="49.69570050712305" lon="20.007075771354863"><ele>756.4285714285714</ele><time>2026-05-06T12:21:55Z</time></trkpt><trkpt lat="49.69569125533829" lon="20.006974221922455"><ele>753.5714285714287</ele><time>2026-05-06T12:21:57Z</time></trkpt><trkpt lat="49.69570097471622" lon="20.006877397270493"><ele>750.7142857142857</ele><time>2026-05-06T12:22:00Z</time></trkpt><trkpt lat="49.69570936967705" lon="20.00673850399782"><ele>747.8571428571429</ele><time>2026-05-06T12:22:02Z</time></trkpt><trkpt lat="49.695711100288335" lon="20.006633922507575"><ele>745.0</ele><time>2026-05-06T12:22:04Z</time></trkpt><trkpt lat="49.69562873158642" lon="20.006537515243355"><ele>741.8333333333334</ele><time>2026-05-06T12:22:06Z</time></trkpt><trkpt lat="49.69555235444328" lon="20.006458466862934"><ele>738.6666666666667</ele><time>2026-05-06T12:22:08Z</time></trkpt><trkpt lat="49.69548337063803" lon="20.006369417278833"><ele>735.5</ele><time>2026-05-06T12:22:12Z</time></trkpt><trkpt lat="49.69545918252609" lon="20.006267711098236"><ele>732.3333333333334</ele><time>2026-05-06T12:22:15.999Z</time></trkpt><trkpt lat="49.69548901079258" lon="20.006161751126406"><ele>729.1666666666666</ele><time>2026-05-06T12:22:18.999Z</time></trkpt><trkpt lat="49.69553647360597" lon="20.006065740959702"><ele>726.0</ele><time>2026-05-06T12:22:21.999Z</time></trkpt><trkpt lat="49.695608095190266" lon="20.00599792419296"><ele>726.0</ele><time>2026-05-06T12:22:23.999Z</time></trkpt><trkpt lat="49.6957005500161" lon="20.005835249785708"><ele>726.0</ele><time>2026-05-06T12:22:25.999Z</time></trkpt><trkpt lat="49.6957717675743" lon="20.005793931326906"><ele>726.0</ele><time>2026-05-06T12:22:27.999Z</time></trkpt><trkpt lat="49.695839892408436" lon="20.00576021954764"><ele>726.0</ele><time>2026-05-06T12:22:29.999Z</time></trkpt><trkpt lat="49.695918765628306" lon="20.005663750283894"><ele>726.0</ele><time>2026-05-06T12:22:33.999Z</time></trkpt><trkpt lat="49.69594169625969" lon="20.005572100210824"><ele>723.5</ele><time>2026-05-06T12:22:35.999Z</time></trkpt><trkpt lat="49.69601290848458" lon="20.005476889719837"><ele>721.0</ele><time>2026-05-06T12:22:40.999Z</time></trkpt><trkpt lat="49.696031804849845" lon="20.005325272970328"><ele>718.5</ele><time>2026-05-06T12:22:43.999Z</time></trkpt><trkpt lat="49.69607677790024" lon="20.005215649239716"><ele>716.0</ele><time>2026-05-06T12:22:46.999Z</time></trkpt><trkpt lat="49.6961156290911" lon="20.005125565339462"><ele>713.5</ele><time>2026-05-06T12:22:49.999Z</time></trkpt><trkpt lat="49.696127912034044" lon="20.00502800170094"><ele>711.0</ele><time>2026-05-06T12:22:53.999Z</time></trkpt><trkpt lat="49.696177843196814" lon="20.004951212635753"><ele>707.1666666666666</ele><time>2026-05-06T12:22:57.999Z</time></trkpt><trkpt lat="49.69619076560997" lon="20.004840240820467"><ele>703.3333333333334</ele><time>2026-05-06T12:23:01.999Z</time></trkpt><trkpt lat="49.69621402828934" lon="20.00474474483672"><ele>699.5</ele><time>2026-05-06T12:23:04.999Z</time></trkpt><trkpt lat="49.69619218629719" lon="20.00463695841142"><ele>695.6666666666667</ele><time>2026-05-06T12:23:07.999Z</time></trkpt><trkpt lat="49.696187592232796" lon="20.0044890327728"><ele>691.8333333333334</ele><time>2026-05-06T12:23:10.999Z</time></trkpt><trkpt lat="49.69624030197713" lon="20.004382611851845"><ele>688.0</ele><time>2026-05-06T12:23:13.999Z</time></trkpt><trkpt lat="49.696217202407034" lon="20.004259081581203"><ele>684.6666666666667</ele><time>2026-05-06T12:23:16.998Z</time></trkpt><trkpt lat="49.696190299800875" lon="20.00415717523052"><ele>681.3333333333334</ele><time>2026-05-06T12:23:20.998Z</time></trkpt><trkpt lat="49.69617284317812" lon="20.004060062326566"><ele>678.0</ele><time>2026-05-06T12:23:22.998Z</time></trkpt><trkpt lat="49.69617007165505" lon="20.00393593074341"><ele>674.6666666666666</ele><time>2026-05-06T12:23:24.998Z</time></trkpt><trkpt lat="49.6962032463267" lon="20.0038458197427"><ele>671.3333333333333</ele><time>2026-05-06T12:23:26.998Z</time></trkpt><trkpt lat="49.69618720571989" lon="20.003727381202598"><ele>668.0</ele><time>2026-05-06T12:23:29.998Z</time></trkpt><trkpt lat="49.696266154711694" lon="20.003619591477822"><ele>668.0</ele><time>2026-05-06T12:23:31.998Z</time></trkpt><trkpt lat="49.6962404333113" lon="20.00352461526434"><ele>668.0</ele><time>2026-05-06T12:23:33.998Z</time></trkpt><trkpt lat="49.69622341351567" lon="20.00339729803856"><ele>668.0</ele><time>2026-05-06T12:23:37Z</time></trkpt><trkpt lat="49.696167284606645" lon="20.003324460279288"><ele>668.0</ele><time>2026-05-06T12:23:45Z</time></trkpt><trkpt lat="49.696204039955816" lon="20.003192559071802"><ele>668.0</ele><time>2026-05-06T12:24:12Z</time></trkpt><trkpt lat="49.69626478317702" lon="20.0032205694907"><ele>668.0</ele><time>2026-05-06T12:24:51.999Z</time></trkpt><trkpt lat="49.696316071763114" lon="20.003283891509657"><ele>668.0</ele><time>2026-05-06T12:24:58.999Z</time></trkpt><trkpt lat="49.69631410073458" lon="20.003161011568206"><ele>665.1428571428571</ele><time>2026-05-06T12:25:02.999Z</time></trkpt><trkpt lat="49.696276921946335" lon="20.003076981071924"><ele>662.2857142857143</ele><time>2026-05-06T12:25:05.999Z</time></trkpt><trkpt lat="49.6963024977296" lon="20.002955773828674"><ele>659.4285714285714</ele><time>2026-05-06T12:25:11.999Z</time></trkpt><trkpt lat="49.69632916757227" lon="20.00285541134151"><ele>656.5714285714286</ele><time>2026-05-06T12:25:17.999Z</time></trkpt><trkpt lat="49.696367651603836" lon="20.002764751783566"><ele>653.7142857142857</ele><time>2026-05-06T12:25:23.998Z</time></trkpt><trkpt lat="49.696428598817484" lon="20.00273224325255"><ele>650.8571428571429</ele><time>2026-05-06T12:25:27.998Z</time></trkpt><trkpt lat="49.69649204086063" lon="20.002688336516556"><ele>648.0</ele><time>2026-05-06T12:25:36.998Z</time></trkpt><trkpt lat="49.696549647553326" lon="20.002624992651757"><ele>648.0</ele><time>2026-05-06T12:25:45Z</time></trkpt><trkpt lat="49.69651640346582" lon="20.002539048301404"><ele>648.0</ele><time>2026-05-06T12:25:55Z</time></trkpt><trkpt lat="49.696598838118426" lon="20.002550266972563"><ele>648.0</ele><time>2026-05-06T12:26:19Z</time></trkpt><trkpt lat="49.69650286952558" lon="20.002568318776564"><ele>648.0</ele><time>2026-05-06T12:26:47.999Z</time></trkpt><trkpt lat="49.69643687840674" lon="20.002609852485257"><ele>648.0</ele><time>2026-05-06T12:26:49.999Z</time></trkpt><trkpt lat="49.696341457849165" lon="20.002670823317672"><ele>648.0</ele><time>2026-05-06T12:26:51.999Z</time></trkpt><trkpt lat="49.69624055803149" lon="20.002752922597193"><ele>648.0</ele><time>2026-05-06T12:26:53.999Z</time></trkpt><trkpt lat="49.696113770928285" lon="20.002757971385375"><ele>648.0</ele><time>2026-05-06T12:26:54.999Z</time></trkpt><trkpt lat="49.69601862731905" lon="20.002757615847845"><ele>648.0</ele><time>2026-05-06T12:26:56.999Z</time></trkpt><trkpt lat="49.69608718204814" lon="20.002754301618943"><ele>648.0</ele><time>2026-05-06T12:27:07.999Z</time></trkpt><trkpt lat="49.696017802338524" lon="20.002723151650233"><ele>648.0</ele><time>2026-05-06T12:27:10.999Z</time></trkpt><trkpt lat="49.69608731442919" lon="20.002794633011657"><ele>648.0</ele><time>2026-05-06T12:27:35.998Z</time></trkpt><trkpt lat="49.69617806872892" lon="20.00279497921625"><ele>648.0</ele><time>2026-05-06T12:27:37.998Z</time></trkpt><trkpt lat="49.69625947384179" lon="20.002762656204975"><ele>648.0</ele><time>2026-05-06T12:27:39.998Z</time></trkpt><trkpt lat="49.696328139723015" lon="20.002746177526976"><ele>648.0</ele><time>2026-05-06T12:27:41.998Z</time></trkpt><trkpt lat="49.69640785231505" lon="20.002699607524935"><ele>648.0</ele><time>2026-05-06T12:27:44.998Z</time></trkpt><trkpt lat="49.69646795259946" lon="20.002646581240786"><ele>648.0</ele><time>2026-05-06T12:27:48Z</time></trkpt><trkpt lat="49.696507785579364" lon="20.002569513254258"><ele>648.0</ele><time>2026-05-06T12:27:55Z</time></trkpt><trkpt lat="49.69647010126836" lon="20.002489519894613"><ele>648.0</ele><time>2026-05-06T12:28:14Z</time></trkpt><trkpt lat="49.6963715056615" lon="20.002503028282998"><ele>648.0</ele><time>2026-05-06T12:28:42.999Z</time></trkpt><trkpt lat="49.696292037012455" lon="20.002627602766427"><ele>648.0</ele><time>2026-05-06T12:28:45.999Z</time></trkpt><trkpt lat="49.69621896583611" lon="20.00266364508999"><ele>648.0</ele><time>2026-05-06T12:28:46.999Z</time></trkpt><trkpt lat="49.69613662625915" lon="20.00268855506995"><ele>648.0</ele><time>2026-05-06T12:28:47.999Z</time></trkpt><trkpt lat="49.69607707635519" lon="20.002735429136564"><ele>648.0</ele><time>2026-05-06T12:28:48.999Z</time></trkpt><trkpt lat="49.696015752179484" lon="20.002763763665186"><ele>648.0</ele><time>2026-05-06T12:28:49.999Z</time></trkpt><trkpt lat="49.695933155995775" lon="20.00276614868594"><ele>654.1666666666666</ele><time>2026-05-06T12:28:51.999Z</time></trkpt><trkpt lat="49.69584737551571" lon="20.00278049151459"><ele>660.3333333333334</ele><time>2026-05-06T12:28:53.999Z</time></trkpt><trkpt lat="49.69576104109484" lon="20.002789200071884"><ele>666.5</ele><time>2026-05-06T12:28:55.999Z</time></trkpt><trkpt lat="49.69566734469292" lon="20.002794990705617"><ele>672.6666666666667</ele><time>2026-05-06T12:28:57.999Z</time></trkpt><trkpt lat="49.69560463844659" lon="20.0027859476343"><ele>678.8333333333334</ele><time>2026-05-06T12:28:58.999Z</time></trkpt><trkpt lat="49.69551202875072" lon="20.002805692194837"><ele>685.0</ele><time>2026-05-06T12:28:59.999Z</time></trkpt><trkpt lat="49.69545024808629" lon="20.002832140192453"><ele>685.0</ele><time>2026-05-06T12:29:01.999Z</time></trkpt><trkpt lat="49.69538618387654" lon="20.002862737715635"><ele>685.0</ele><time>2026-05-06T12:29:02.999Z</time></trkpt><trkpt lat="49.695332263392416" lon="20.00280320386863"><ele>685.0</ele><time>2026-05-06T12:29:06.999Z</time></trkpt><trkpt lat="49.69539032651467" lon="20.002731979785892"><ele>685.0</ele><time>2026-05-06T12:30:08Z</time></trkpt><trkpt lat="49.69554364044315" lon="20.002736378143297"><ele>685.0</ele><time>2026-05-06T12:30:13Z</time></trkpt><trkpt lat="49.695483608948216" lon="20.002779197387884"><ele>685.0</ele><time>2026-05-06T12:30:17Z</time></trkpt><trkpt lat="49.69541224550724" lon="20.002799956982834"><ele>685.0</ele><time>2026-05-06T12:30:35Z</time></trkpt><trkpt lat="49.69537699247386" lon="20.002615141125833"><ele>685.0</ele><time>2026-05-06T12:31:07.999Z</time></trkpt><trkpt lat="49.695304417627895" lon="20.002535182778978"><ele>685.0</ele><time>2026-05-06T12:31:15.999Z</time></trkpt><trkpt lat="49.6953177546624" lon="20.002636008437758"><ele>685.0</ele><time>2026-05-06T12:31:29.999Z</time></trkpt><trkpt lat="49.695332298440654" lon="20.00275171910056"><ele>685.0</ele><time>2026-05-06T12:31:33.999Z</time></trkpt><trkpt lat="49.69538793604817" lon="20.002806289951916"><ele>685.0</ele><time>2026-05-06T12:31:37.999Z</time></trkpt><trkpt lat="49.69543706797191" lon="20.002889713093747"><ele>685.0</ele><time>2026-05-06T12:31:52.998Z</time></trkpt><trkpt lat="49.695529414450554" lon="20.00287274773664"><ele>685.0</ele><time>2026-05-06T12:31:56.998Z</time></trkpt><trkpt lat="49.695579499961724" lon="20.002805744580115"><ele>685.0</ele><time>2026-05-06T12:32:02Z</time></trkpt><trkpt lat="49.695659242253534" lon="20.00279385733436"><ele>685.0</ele><time>2026-05-06T12:32:07Z</time></trkpt><trkpt lat="49.695747723105065" lon="20.002766575366316"><ele>685.0</ele><time>2026-05-06T12:32:10Z</time></trkpt><trkpt lat="49.69582820494317" lon="20.002793090509275"><ele>685.0</ele><time>2026-05-06T12:32:15Z</time></trkpt><trkpt lat="49.69591904465084" lon="20.002789482343506"><ele>685.0</ele><time>2026-05-06T12:32:19Z</time></trkpt><trkpt lat="49.69599550634632" lon="20.00282268644"><ele>685.0</ele><time>2026-05-06T12:32:21Z</time></trkpt><trkpt lat="49.69611097157416" lon="20.002835313861798"><ele>685.0</ele><time>2026-05-06T12:32:26Z</time></trkpt><trkpt lat="49.696221654130625" lon="20.00281794061494"><ele>685.0</ele><time>2026-05-06T12:32:28Z</time></trkpt><trkpt lat="49.696312633271816" lon="20.002777190006373"><ele>685.0</ele><time>2026-05-06T12:32:30Z</time></trkpt><trkpt lat="49.69639503957288" lon="20.00277257509558"><ele>679.7142857142857</ele><time>2026-05-06T12:32:32Z</time></trkpt><trkpt lat="49.69645019304218" lon="20.002671843559582"><ele>674.4285714285714</ele><time>2026-05-06T12:32:35Z</time></trkpt><trkpt lat="49.696501838397396" lon="20.002599436254734"><ele>669.1428571428571</ele><time>2026-05-06T12:32:37Z</time></trkpt><trkpt lat="49.696542301205085" lon="20.00250858903941"><ele>663.8571428571429</ele><time>2026-05-06T12:32:41Z</time></trkpt><trkpt lat="49.69647208713527" lon="20.002497183726568"><ele>658.5714285714286</ele><time>2026-05-06T12:33:46.998Z</time></trkpt><trkpt lat="49.69648968092899" lon="20.002591481437864"><ele>653.2857142857143</ele><time>2026-05-06T12:35:39.999Z</time></trkpt><trkpt lat="49.696442486464534" lon="20.002524634271023"><ele>648.0</ele><time>2026-05-06T12:36:02.998Z</time></trkpt><trkpt lat="49.69651204460403" lon="20.002455177646148"><ele>648.0</ele><time>2026-05-06T12:36:21Z</time></trkpt><trkpt lat="49.696445717829036" lon="20.002473442060573"><ele>648.0</ele><time>2026-05-06T12:36:54Z</time></trkpt><trkpt lat="49.69640254665206" lon="20.002392746561192"><ele>648.0</ele><time>2026-05-06T12:38:29Z</time></trkpt><trkpt lat="49.696443873143444" lon="20.00247677556473"><ele>648.0</ele><time>2026-05-06T12:38:41Z</time></trkpt><trkpt lat="49.69651308594204" lon="20.002543336216846"><ele>648.0</ele><time>2026-05-06T12:39:43.999Z</time></trkpt><trkpt lat="49.69657563782595" lon="20.00251605345859"><ele>648.0</ele><time>2026-05-06T12:40:14.998Z</time></trkpt><trkpt lat="49.69653917524541" lon="20.002433742221413"><ele>648.0</ele><time>2026-05-06T12:40:56Z</time></trkpt><trkpt lat="49.6964758665274" lon="20.002395771395165"><ele>646.1666666666666</ele><time>2026-05-06T12:40:59Z</time></trkpt><trkpt lat="49.696473335961095" lon="20.002284600111857"><ele>644.3333333333334</ele><time>2026-05-06T12:41:05.999Z</time></trkpt><trkpt lat="49.696551559864425" lon="20.002225648055436"><ele>642.5</ele><time>2026-05-06T12:41:11.999Z</time></trkpt><trkpt lat="49.696621830741606" lon="20.00227009939916"><ele>640.6666666666667</ele><time>2026-05-06T12:41:17.999Z</time></trkpt><trkpt lat="49.696544029718446" lon="20.00224886092209"><ele>638.8333333333334</ele><time>2026-05-06T12:41:22.999Z</time></trkpt><trkpt lat="49.69647652329889" lon="20.00229439045542"><ele>637.0</ele><time>2026-05-06T12:41:24.999Z</time></trkpt><trkpt lat="49.696330562218904" lon="20.00225501817785"><ele>637.0</ele><time>2026-05-06T12:41:26.999Z</time></trkpt><trkpt lat="49.696265533315504" lon="20.002232599072556"><ele>637.0</ele><time>2026-05-06T12:41:27.999Z</time></trkpt><trkpt lat="49.69620233006128" lon="20.002216829619424"><ele>637.0</ele><time>2026-05-06T12:41:28.999Z</time></trkpt><trkpt lat="49.696101009198685" lon="20.002179243086072"><ele>637.0</ele><time>2026-05-06T12:41:30.999Z</time></trkpt><trkpt lat="49.69601010971473" lon="20.002187530460724"><ele>637.0</ele><time>2026-05-06T12:41:36.999Z</time></trkpt><trkpt lat="49.695933246239484" lon="20.002171905970084"><ele>637.0</ele><time>2026-05-06T12:41:37.999Z</time></trkpt><trkpt lat="49.695868466917126" lon="20.00213889270246"><ele>643.4285714285714</ele><time>2026-05-06T12:41:38.999Z</time></trkpt><trkpt lat="49.69593217257996" lon="20.002095617778796"><ele>649.8571428571429</ele><time>2026-05-06T12:41:43.999Z</time></trkpt><trkpt lat="49.69585947815253" lon="20.002029783827957"><ele>656.2857142857142</ele><time>2026-05-06T12:41:45.999Z</time></trkpt><trkpt lat="49.69582961057588" lon="20.001943195526803"><ele>662.7142857142858</ele><time>2026-05-06T12:41:49.999Z</time></trkpt><trkpt lat="49.69575424327427" lon="20.00194033013628"><ele>669.1428571428571</ele><time>2026-05-06T12:41:56.999Z</time></trkpt><trkpt lat="49.69567361745032" lon="20.00194112502178"><ele>675.5714285714286</ele><time>2026-05-06T12:41:59.999Z</time></trkpt><trkpt lat="49.695598955884634" lon="20.001952266448882"><ele>682.0</ele><time>2026-05-06T12:42:03.998Z</time></trkpt><trkpt lat="49.695692260947055" lon="20.00202873140047"><ele>682.0</ele><time>2026-05-06T12:42:40Z</time></trkpt><trkpt lat="49.695627405426706" lon="20.002068833564117"><ele>682.0</ele><time>2026-05-06T12:42:49Z</time></trkpt><trkpt lat="49.69557567807179" lon="20.00214713923249"><ele>682.0</ele><time>2026-05-06T12:43:15.999Z</time></trkpt><trkpt lat="49.695561452483624" lon="20.00227512028651"><ele>682.0</ele><time>2026-05-06T12:43:30.999Z</time></trkpt><trkpt lat="49.69551337521114" lon="20.00234478188133"><ele>682.0</ele><time>2026-05-06T12:43:32.999Z</time></trkpt><trkpt lat="49.69546375063341" lon="20.002434378075424"><ele>682.0</ele><time>2026-05-06T12:43:35.999Z</time></trkpt><trkpt lat="49.695401004474796" lon="20.002399097037035"><ele>682.0</ele><time>2026-05-06T12:43:39.999Z</time></trkpt><trkpt lat="49.69549113463821" lon="20.00244224096264"><ele>682.0</ele><time>2026-05-06T12:43:42.999Z</time></trkpt><trkpt lat="49.6955588724817" lon="20.002459458636164"><ele>682.0</ele><time>2026-05-06T12:43:45.999Z</time></trkpt><trkpt lat="49.69547398979969" lon="20.002455829116517"><ele>682.0</ele><time>2026-05-06T12:43:57.999Z</time></trkpt><trkpt lat="49.6954069467845" lon="20.002394399173077"><ele>682.0</ele><time>2026-05-06T12:44:01.998Z</time></trkpt><trkpt lat="49.69538672574963" lon="20.00229885923523"><ele>682.0</ele><time>2026-05-06T12:44:05.998Z</time></trkpt><trkpt lat="49.69538174540703" lon="20.00219894265288"><ele>682.0</ele><time>2026-05-06T12:44:07.998Z</time></trkpt><trkpt lat="49.69539242555925" lon="20.002089275627366"><ele>682.0</ele><time>2026-05-06T12:44:12.998Z</time></trkpt><trkpt lat="49.69533606706985" lon="20.001967311361348"><ele>682.0</ele><time>2026-05-06T12:44:18.998Z</time></trkpt><trkpt lat="49.69528531001265" lon="20.00188611002579"><ele>682.0</ele><time>2026-05-06T12:44:20.998Z</time></trkpt><trkpt lat="49.69526045410006" lon="20.001788126470085"><ele>682.0</ele><time>2026-05-06T12:44:23.998Z</time></trkpt><trkpt lat="49.69521715283936" lon="20.001710264902865"><ele>682.0</ele><time>2026-05-06T12:44:25.998Z</time></trkpt><trkpt lat="49.69513566901169" lon="20.001630546514274"><ele>682.0</ele><time>2026-05-06T12:44:27.998Z</time></trkpt><trkpt lat="49.69504044348527" lon="20.00163199948145"><ele>682.0</ele><time>2026-05-06T12:44:31.998Z</time></trkpt><trkpt lat="49.69496549970972" lon="20.001637984331015"><ele>688.4285714285714</ele><time>2026-05-06T12:44:35Z</time></trkpt><trkpt lat="49.69489672430109" lon="20.001686680977556"><ele>694.8571428571429</ele><time>2026-05-06T12:44:39Z</time></trkpt><trkpt lat="49.69483692036223" lon="20.001734302287367"><ele>701.2857142857142</ele><time>2026-05-06T12:44:41Z</time></trkpt><trkpt lat="49.69475701473177" lon="20.00175137567147"><ele>707.7142857142858</ele><time>2026-05-06T12:45:02Z</time></trkpt><trkpt lat="49.694697593665" lon="20.001791005314093"><ele>714.1428571428572</ele><time>2026-05-06T12:45:04Z</time></trkpt><trkpt lat="49.694686022337734" lon="20.00188877914799"><ele>720.5714285714286</ele><time>2026-05-06T12:45:11.999Z</time></trkpt><trkpt lat="49.694654062182344" lon="20.00197496069597"><ele>727.0</ele><time>2026-05-06T12:45:18.999Z</time></trkpt><trkpt lat="49.69459227130019" lon="20.002022997900404"><ele>727.0</ele><time>2026-05-06T12:45:23.999Z</time></trkpt><trkpt lat="49.69453018720924" lon="20.00199525551948"><ele>727.0</ele><time>2026-05-06T12:45:25.999Z</time></trkpt><trkpt lat="49.69454804716689" lon="20.00185889501521"><ele>727.0</ele><time>2026-05-06T12:46:04.999Z</time></trkpt><trkpt lat="49.694627895937224" lon="20.001880368353234"><ele>727.0</ele><time>2026-05-06T12:48:27.998Z</time></trkpt><trkpt lat="49.694616859679556" lon="20.00178122774752"><ele>727.0</ele><time>2026-05-06T12:48:29.998Z</time></trkpt><trkpt lat="49.69463803312322" lon="20.00168450502139"><ele>727.0</ele><time>2026-05-06T12:48:32.998Z</time></trkpt><trkpt lat="49.694579783435955" lon="20.001611506932644"><ele>727.0</ele><time>2026-05-06T12:48:34.998Z</time></trkpt><trkpt lat="49.694505795220216" lon="20.0015028835763"><ele>729.6</ele><time>2026-05-06T12:48:37.998Z</time></trkpt><trkpt lat="49.69441838551851" lon="20.001382132227977"><ele>732.2</ele><time>2026-05-06T12:48:39.998Z</time></trkpt><trkpt lat="49.69433420461822" lon="20.001267766531186"><ele>734.8</ele><time>2026-05-06T12:48:41.998Z</time></trkpt><trkpt lat="49.69426309843671" lon="20.00116674017643"><ele>737.4</ele><time>2026-05-06T12:48:42.998Z</time></trkpt><trkpt lat="49.69417207190956" lon="20.001072595336318"><ele>740.0</ele><time>2026-05-06T12:48:43.998Z</time></trkpt><trkpt lat="49.69407480982154" lon="20.000968395099484"><ele>740.0</ele><time>2026-05-06T12:48:44.998Z</time></trkpt><trkpt lat="49.693970220740994" lon="20.000916787369164"><ele>740.0</ele><time>2026-05-06T12:48:45.998Z</time></trkpt><trkpt lat="49.693862404727156" lon="20.000853459387592"><ele>740.0</ele><time>2026-05-06T12:48:47Z</time></trkpt><trkpt lat="49.69377667369025" lon="20.000796572613236"><ele>740.0</ele><time>2026-05-06T12:48:48Z</time></trkpt><trkpt lat="49.693725309760254" lon="20.000726335512887"><ele>740.0</ele><time>2026-05-06T12:48:49Z</time></trkpt><trkpt lat="49.69358632065227" lon="20.000636614055864"><ele>742.0</ele><time>2026-05-06T12:48:50Z</time></trkpt><trkpt lat="49.69352154979812" lon="20.00054976706854"><ele>744.0</ele><time>2026-05-06T12:48:51Z</time></trkpt><trkpt lat="49.69344375507243" lon="20.000503161938678"><ele>746.0</ele><time>2026-05-06T12:48:52Z</time></trkpt><trkpt lat="49.69348945165143" lon="20.000407990033565"><ele>748.0</ele><time>2026-05-06T12:48:57Z</time></trkpt><trkpt lat="49.69356676183054" lon="20.000368516878826"><ele>750.0</ele><time>2026-05-06T12:48:59Z</time></trkpt><trkpt lat="49.69363219511377" lon="20.000233200547488"><ele>752.0</ele><time>2026-05-06T12:49:02Z</time></trkpt><trkpt lat="49.6937082925812" lon="20.000243312581013"><ele>746.0</ele><time>2026-05-06T12:49:04Z</time></trkpt><trkpt lat="49.6937782723519" lon="20.000191055332593"><ele>740.0</ele><time>2026-05-06T12:49:07Z</time></trkpt><trkpt lat="49.693883304579884" lon="20.000189246147663"><ele>734.0</ele><time>2026-05-06T12:49:09Z</time></trkpt><trkpt lat="49.69396395351279" lon="20.00009951101932"><ele>728.0</ele><time>2026-05-06T12:49:11Z</time></trkpt><trkpt lat="49.69402693656316" lon="19.9999833251274"><ele>722.0</ele><time>2026-05-06T12:49:13Z</time></trkpt><trkpt lat="49.69409002641956" lon="19.99989266643231"><ele>722.0</ele><time>2026-05-06T12:49:15Z</time></trkpt><trkpt lat="49.69415327978538" lon="19.999848972549458"><ele>722.0</ele><time>2026-05-06T12:49:16Z</time></trkpt><trkpt lat="49.69419905060253" lon="19.999757415436004"><ele>722.0</ele><time>2026-05-06T12:49:19Z</time></trkpt><trkpt lat="49.694246722609215" lon="19.999652585593058"><ele>722.0</ele><time>2026-05-06T12:49:21Z</time></trkpt><trkpt lat="49.694287757859314" lon="19.999574057255145"><ele>722.0</ele><time>2026-05-06T12:49:25Z</time></trkpt><trkpt lat="49.69428115013316" lon="19.999470204759714"><ele>722.0</ele><time>2026-05-06T12:49:28Z</time></trkpt><trkpt lat="49.694325425059276" lon="19.9993526065543"><ele>722.0</ele><time>2026-05-06T12:49:30.999Z</time></trkpt><trkpt lat="49.69426484821543" lon="19.99945242848632"><ele>722.0</ele><time>2026-05-06T12:49:42.999Z</time></trkpt><trkpt lat="49.694232469270446" lon="19.999537461488593"><ele>722.0</ele><time>2026-05-06T12:49:45.999Z</time></trkpt><trkpt lat="49.69415970031207" lon="19.999580948528564"><ele>722.0</ele><time>2026-05-06T12:49:47.999Z</time></trkpt><trkpt lat="49.69406223261918" lon="19.99966272849381"><ele>722.0</ele><time>2026-05-06T12:49:51.999Z</time></trkpt><trkpt lat="49.69400015674327" lon="19.99974597187389"><ele>722.0</ele><time>2026-05-06T12:49:53.999Z</time></trkpt><trkpt lat="49.69392107690715" lon="19.999851062749386"><ele>722.0</ele><time>2026-05-06T12:49:56.999Z</time></trkpt><trkpt lat="49.69383734901311" lon="19.999921063524297"><ele>722.0</ele><time>2026-05-06T12:49:58.999Z</time></trkpt><trkpt lat="49.69380088372713" lon="20.000058956001165"><ele>722.0</ele><time>2026-05-06T12:50:00.999Z</time></trkpt><trkpt lat="49.69372795905598" lon="20.00009473210137"><ele>722.0</ele><time>2026-05-06T12:50:02.999Z</time></trkpt><trkpt lat="49.69365161866902" lon="20.00014288271958"><ele>722.0</ele><time>2026-05-06T12:50:08.999Z</time></trkpt><trkpt lat="49.693583372850256" lon="20.000180820504962"><ele>722.0</ele><time>2026-05-06T12:50:10.999Z</time></trkpt><trkpt lat="49.69350123891107" lon="20.00022940324364"><ele>722.0</ele><time>2026-05-06T12:50:13.999Z</time></trkpt><trkpt lat="49.69344080187623" lon="20.000273377310883"><ele>722.0</ele><time>2026-05-06T12:50:16.999Z</time></trkpt><trkpt lat="49.693437934299354" lon="20.00041595413001"><ele>722.0</ele><time>2026-05-06T12:50:19.999Z</time></trkpt><trkpt lat="49.693488043399405" lon="20.000523509605205"><ele>722.0</ele><time>2026-05-06T12:50:21.999Z</time></trkpt><trkpt lat="49.693586124091524" lon="20.00066149280852"><ele>722.0</ele><time>2026-05-06T12:50:24.999Z</time></trkpt><trkpt lat="49.69367772987695" lon="20.00075596192364"><ele>722.0</ele><time>2026-05-06T12:50:25.999Z</time></trkpt><trkpt lat="49.69376337482236" lon="20.000817585742343"><ele>725.6</ele><time>2026-05-06T12:50:26.998Z</time></trkpt><trkpt lat="49.69385836985169" lon="20.00087730104225"><ele>729.2</ele><time>2026-05-06T12:50:27.998Z</time></trkpt><trkpt lat="49.693922811071054" lon="20.00091040553055"><ele>732.8</ele><time>2026-05-06T12:50:28.998Z</time></trkpt><trkpt lat="49.693994098425" lon="20.000987826253585"><ele>736.4</ele><time>2026-05-06T12:50:29.998Z</time></trkpt><trkpt lat="49.69411689153078" lon="20.001137413525502"><ele>740.0</ele><time>2026-05-06T12:50:30.998Z</time></trkpt><trkpt lat="49.69423827747895" lon="20.001265261226802"><ele>740.0</ele><time>2026-05-06T12:50:31.998Z</time></trkpt><trkpt lat="49.694331167630935" lon="20.001403777641467"><ele>740.0</ele><time>2026-05-06T12:50:32.998Z</time></trkpt><trkpt lat="49.69442678855876" lon="20.00156262897806"><ele>740.0</ele><time>2026-05-06T12:50:33.998Z</time></trkpt><trkpt lat="49.694500839581934" lon="20.001734629570148"><ele>740.0</ele><time>2026-05-06T12:50:34.998Z</time></trkpt><trkpt lat="49.694548021687886" lon="20.001908679852704"><ele>737.75</ele><time>2026-05-06T12:50:35.998Z</time></trkpt><trkpt lat="49.694597186859454" lon="20.002009911405686"><ele>735.5</ele><time>2026-05-06T12:50:36.998Z</time></trkpt><trkpt lat="49.69462278276078" lon="20.00213421865383"><ele>733.25</ele><time>2026-05-06T12:50:37.998Z</time></trkpt><trkpt lat="49.694672046484555" lon="20.002350577576813"><ele>731.0</ele><time>2026-05-06T12:50:38.998Z</time></trkpt><trkpt lat="49.69468851689622" lon="20.002568579483636"><ele>731.0</ele><time>2026-05-06T12:50:39.998Z</time></trkpt><trkpt lat="49.6946955186484" lon="20.002761811875708"><ele>731.0</ele><time>2026-05-06T12:50:40.998Z</time></trkpt><trkpt lat="49.694697086148985" lon="20.002948175381647"><ele>731.0</ele><time>2026-05-06T12:50:41.998Z</time></trkpt><trkpt lat="49.69471544032502" lon="20.003092512681985"><ele>731.0</ele><time>2026-05-06T12:50:42.998Z</time></trkpt><trkpt lat="49.694727000873876" lon="20.00322056091038"><ele>731.0</ele><time>2026-05-06T12:50:43.998Z</time></trkpt><trkpt lat="49.694730845512694" lon="20.00333885398741"><ele>731.5</ele><time>2026-05-06T12:50:44.998Z</time></trkpt><trkpt lat="49.6947544809433" lon="20.003505209750575"><ele>732.0</ele><time>2026-05-06T12:50:45.998Z</time></trkpt><trkpt lat="49.69476168756286" lon="20.003718237098887"><ele>732.5</ele><time>2026-05-06T12:50:46.998Z</time></trkpt><trkpt lat="49.69478288486986" lon="20.003909097109798"><ele>733.0</ele><time>2026-05-06T12:50:47.998Z</time></trkpt><trkpt lat="49.69479449866436" lon="20.004076661163847"><ele>733.0</ele><time>2026-05-06T12:50:48.998Z</time></trkpt><trkpt lat="49.69476984384709" lon="20.004192285920137"><ele>733.0</ele><time>2026-05-06T12:50:49.998Z</time></trkpt><trkpt lat="49.69473196246347" lon="20.004336736741998"><ele>733.0</ele><time>2026-05-06T12:50:51.998Z</time></trkpt><trkpt lat="49.69473571886501" lon="20.00445823158861"><ele>733.0</ele><time>2026-05-06T12:50:54Z</time></trkpt><trkpt lat="49.69472252252697" lon="20.00431047043488"><ele>733.0</ele><time>2026-05-06T12:51:07Z</time></trkpt><trkpt lat="49.69472399573091" lon="20.00419275842397"><ele>733.0</ele><time>2026-05-06T12:51:08Z</time></trkpt><trkpt lat="49.69472210972484" lon="20.004053879072067"><ele>733.0</ele><time>2026-05-06T12:51:09Z</time></trkpt><trkpt lat="49.69472626340284" lon="20.003849922667158"><ele>733.0</ele><time>2026-05-06T12:51:11Z</time></trkpt><trkpt lat="49.69472479099595" lon="20.0036982946672"><ele>733.0</ele><time>2026-05-06T12:51:12Z</time></trkpt><trkpt lat="49.694701029741296" lon="20.003547102044102"><ele>733.0</ele><time>2026-05-06T12:51:13Z</time></trkpt><trkpt lat="49.69470450464176" lon="20.00329445981644"><ele>732.5</ele><time>2026-05-06T12:51:14Z</time></trkpt><trkpt lat="49.69468006452002" lon="20.00305615975713"><ele>732.0</ele><time>2026-05-06T12:51:15Z</time></trkpt><trkpt lat="49.69465993957864" lon="20.00285767961853"><ele>731.5</ele><time>2026-05-06T12:51:16Z</time></trkpt><trkpt lat="49.69463655137613" lon="20.002728227995078"><ele>731.0</ele><time>2026-05-06T12:51:17Z</time></trkpt><trkpt lat="49.69465945074808" lon="20.002549407169322"><ele>730.1999999999999</ele><time>2026-05-06T12:51:18Z</time></trkpt><trkpt lat="49.69464954145566" lon="20.00233289076686"><ele>729.4</ele><time>2026-05-06T12:51:19Z</time></trkpt><trkpt lat="49.6946268050468" lon="20.00215951029292"><ele>728.6</ele><time>2026-05-06T12:51:20Z</time></trkpt><trkpt lat="49.69461043344746" lon="20.00203812653847"><ele>727.8</ele><time>2026-05-06T12:51:21Z</time></trkpt><trkpt lat="49.69458570949573" lon="20.0019467827563"><ele>727.0</ele><time>2026-05-06T12:51:22Z</time></trkpt><trkpt lat="49.69463815788014" lon="20.002007742266123"><ele>727.0</ele><time>2026-05-06T12:54:35.999Z</time></trkpt><trkpt lat="49.69457730112909" lon="20.001957379770307"><ele>727.0</ele><time>2026-05-06T12:56:22.999Z</time></trkpt><trkpt lat="49.6946031480365" lon="20.001833856441426"><ele>727.0</ele><time>2026-05-06T12:56:46.998Z</time></trkpt><trkpt lat="49.69457158636827" lon="20.001919474836576"><ele>727.0</ele><time>2026-05-06T12:57:22Z</time></trkpt><trkpt lat="49.69449991208274" lon="20.001943157764416"><ele>727.0</ele><time>2026-05-06T12:58:06.999Z</time></trkpt><trkpt lat="49.69444823930017" lon="20.00187116217016"><ele>727.0</ele><time>2026-05-06T12:58:23.999Z</time></trkpt><trkpt lat="49.694516012239326" lon="20.001907363674192"><ele>727.0</ele><time>2026-05-06T12:58:30.999Z</time></trkpt><trkpt lat="49.694576597064696" lon="20.001989971619302"><ele>727.0</ele><time>2026-05-06T12:58:43.999Z</time></trkpt><trkpt lat="49.6945306514802" lon="20.00179114478522"><ele>727.0</ele><time>2026-05-06T13:02:40.999Z</time></trkpt><trkpt lat="49.69450096008811" lon="20.00168910031072"><ele>727.0</ele><time>2026-05-06T13:02:41.999Z</time></trkpt><trkpt lat="49.69444675676928" lon="20.001584154774008"><ele>727.0</ele><time>2026-05-06T13:02:42.999Z</time></trkpt><trkpt lat="49.6944015877203" lon="20.00147575885105"><ele>727.0</ele><time>2026-05-06T13:02:43.999Z</time></trkpt><trkpt lat="49.694356316608385" lon="20.00137298488572"><ele>729.1666666666667</ele><time>2026-05-06T13:02:44.999Z</time></trkpt><trkpt lat="49.69431220965973" lon="20.00128694761698"><ele>731.3333333333334</ele><time>2026-05-06T13:02:45.999Z</time></trkpt><trkpt lat="49.69427168046642" lon="20.001193325027444"><ele>733.5</ele><time>2026-05-06T13:02:46.999Z</time></trkpt><trkpt lat="49.694176166261556" lon="20.001075578678442"><ele>735.6666666666666</ele><time>2026-05-06T13:02:48.999Z</time></trkpt><trkpt lat="49.69410244273496" lon="20.001012809967527"><ele>737.8333333333333</ele><time>2026-05-06T13:02:49.999Z</time></trkpt><trkpt lat="49.69405318324393" lon="20.00094869699822"><ele>740.0</ele><time>2026-05-06T13:02:50.999Z</time></trkpt><trkpt lat="49.693989839079656" lon="20.00091264279238"><ele>740.0</ele><time>2026-05-06T13:02:51.999Z</time></trkpt><trkpt lat="49.6939389691164" lon="20.00084401913824"><ele>740.0</ele><time>2026-05-06T13:02:52.999Z</time></trkpt><trkpt lat="49.693880903655916" lon="20.000798766374785"><ele>740.0</ele><time>2026-05-06T13:02:53.999Z</time></trkpt><trkpt lat="49.69380659423471" lon="20.000780754132293"><ele>740.0</ele><time>2026-05-06T13:02:54.999Z</time></trkpt><trkpt lat="49.693725181889924" lon="20.000751588673136"><ele>740.0</ele><time>2026-05-06T13:02:55.999Z</time></trkpt><trkpt lat="49.693636212491946" lon="20.00066736937372"><ele>740.0</ele><time>2026-05-06T13:02:57.999Z</time></trkpt><trkpt lat="49.6935788161115" lon="20.0006247874244"><ele>742.4</ele><time>2026-05-06T13:03:01.999Z</time></trkpt><trkpt lat="49.693487634655696" lon="20.00054657222571"><ele>744.8</ele><time>2026-05-06T13:03:11.999Z</time></trkpt><trkpt lat="49.693450152526026" lon="20.000448632675273"><ele>747.2</ele><time>2026-05-06T13:03:13.999Z</time></trkpt><trkpt lat="49.6933640602281" lon="20.000275793177124"><ele>749.6</ele><time>2026-05-06T13:03:15.998Z</time></trkpt><trkpt lat="49.69330635148531" lon="20.000158757458664"><ele>752.0</ele><time>2026-05-06T13:03:17.998Z</time></trkpt><trkpt lat="49.693327444806975" lon="20.00004132001534"><ele>752.0</ele><time>2026-05-06T13:03:18.998Z</time></trkpt><trkpt lat="49.69335568516928" lon="19.999930927763735"><ele>752.0</ele><time>2026-05-06T13:03:19.998Z</time></trkpt><trkpt lat="49.69336987046671" lon="19.999820127329254"><ele>752.0</ele><time>2026-05-06T13:03:20.998Z</time></trkpt><trkpt lat="49.69341889384736" lon="19.999646597038293"><ele>752.0</ele><time>2026-05-06T13:03:22.998Z</time></trkpt><trkpt lat="49.69347053238002" lon="19.99954195798837"><ele>752.0</ele><time>2026-05-06T13:03:24.998Z</time></trkpt><trkpt lat="49.693512828900644" lon="19.999429935792847"><ele>752.0</ele><time>2026-05-06T13:03:26.998Z</time></trkpt><trkpt lat="49.69354482536308" lon="19.999308981363857"><ele>752.0</ele><time>2026-05-06T13:03:27.998Z</time></trkpt><trkpt lat="49.69356180759141" lon="19.999202290954216"><ele>752.0</ele><time>2026-05-06T13:03:29Z</time></trkpt><trkpt lat="49.69356304300196" lon="19.999085000331846"><ele>752.0</ele><time>2026-05-06T13:03:30Z</time></trkpt><trkpt lat="49.69357592894231" lon="19.99897472952717"><ele>752.0</ele><time>2026-05-06T13:03:31Z</time></trkpt><trkpt lat="49.693605776066434" lon="19.998847795166878"><ele>752.0</ele><time>2026-05-06T13:03:32Z</time></trkpt><trkpt lat="49.69361077135991" lon="19.998720749230674"><ele>752.0</ele><time>2026-05-06T13:03:33Z</time></trkpt><trkpt lat="49.69363621082821" lon="19.998611797305394"><ele>746.3333333333333</ele><time>2026-05-06T13:03:34Z</time></trkpt><trkpt lat="49.69367727330095" lon="19.998501227235334"><ele>740.6666666666666</ele><time>2026-05-06T13:03:35Z</time></trkpt><trkpt lat="49.69371029919385" lon="19.998372784942642"><ele>735.0</ele><time>2026-05-06T13:03:37Z</time></trkpt><trkpt lat="49.69372504384176" lon="19.998243982957135"><ele>729.3333333333334</ele><time>2026-05-06T13:03:38Z</time></trkpt><trkpt lat="49.69375077247551" lon="19.998143929216088"><ele>723.6666666666667</ele><time>2026-05-06T13:03:39Z</time></trkpt><trkpt lat="49.693802238593236" lon="19.99807334278996"><ele>718.0</ele><time>2026-05-06T13:03:40Z</time></trkpt><trkpt lat="49.693819550430796" lon="19.997874360632096"><ele>718.0</ele><time>2026-05-06T13:03:42Z</time></trkpt><trkpt lat="49.69381559914486" lon="19.997676298151443"><ele>718.0</ele><time>2026-05-06T13:03:44Z</time></trkpt><trkpt lat="49.693803402428415" lon="19.997568755736985"><ele>718.0</ele><time>2026-05-06T13:03:45Z</time></trkpt><trkpt lat="49.69381441675257" lon="19.997469373565803"><ele>718.0</ele><time>2026-05-06T13:03:46Z</time></trkpt><trkpt lat="49.69380268076755" lon="19.997366697599308"><ele>718.0</ele><time>2026-05-06T13:03:47Z</time></trkpt><trkpt lat="49.693824206071476" lon="19.997195791646433"><ele>718.0</ele><time>2026-05-06T13:03:49Z</time></trkpt><trkpt lat="49.693791312024445" lon="19.997049112070535"><ele>718.5999999999999</ele><time>2026-05-06T13:03:51Z</time></trkpt><trkpt lat="49.693819598900646" lon="19.99691318340799"><ele>719.1999999999999</ele><time>2026-05-06T13:03:53Z</time></trkpt><trkpt lat="49.69386919222105" lon="19.996805505994082"><ele>719.8</ele><time>2026-05-06T13:03:54Z</time></trkpt><trkpt lat="49.69395891253347" lon="19.996641433073194"><ele>720.4</ele><time>2026-05-06T13:03:56Z</time></trkpt><trkpt lat="49.69397673967788" lon="19.996517983636803"><ele>721.0</ele><time>2026-05-06T13:03:57Z</time></trkpt><trkpt lat="49.694001530588544" lon="19.996389085005493"><ele>722.3333333333334</ele><time>2026-05-06T13:03:58Z</time></trkpt><trkpt lat="49.69402588839118" lon="19.996289217454432"><ele>723.6666666666667</ele><time>2026-05-06T13:03:59Z</time></trkpt><trkpt lat="49.6940315677082" lon="19.99612449130763"><ele>725.0</ele><time>2026-05-06T13:04:01Z</time></trkpt><trkpt lat="49.69406176512509" lon="19.995972616504226"><ele>726.3333333333334</ele><time>2026-05-06T13:04:03Z</time></trkpt><trkpt lat="49.694098667716794" lon="19.995883604076088"><ele>727.6666666666666</ele><time>2026-05-06T13:04:04Z</time></trkpt><trkpt lat="49.694116682194675" lon="19.995781619127836"><ele>729.0</ele><time>2026-05-06T13:04:05Z</time></trkpt><trkpt lat="49.69413636674521" lon="19.99568584857481"><ele>729.6666666666666</ele><time>2026-05-06T13:04:06Z</time></trkpt><trkpt lat="49.694193716155354" lon="19.995528890504072"><ele>730.3333333333334</ele><time>2026-05-06T13:04:08Z</time></trkpt><trkpt lat="49.69423476809947" lon="19.99544599782224"><ele>731.0</ele><time>2026-05-06T13:04:09Z</time></trkpt><trkpt lat="49.69427289232553" lon="19.99535270533677"><ele>731.6666666666667</ele><time>2026-05-06T13:04:10Z</time></trkpt><trkpt lat="49.69432315288042" lon="19.99528331967523"><ele>732.3333333333334</ele><time>2026-05-06T13:04:11Z</time></trkpt><trkpt lat="49.69436508130881" lon="19.995201727494443"><ele>733.0</ele><time>2026-05-06T13:04:12Z</time></trkpt><trkpt lat="49.694414637588096" lon="19.995130179122565"><ele>733.0</ele><time>2026-05-06T13:04:13Z</time></trkpt><trkpt lat="49.694475983239144" lon="19.994990896296247"><ele>733.0</ele><time>2026-05-06T13:04:15Z</time></trkpt><trkpt lat="49.69451502295183" lon="19.994892761736892"><ele>733.0</ele><time>2026-05-06T13:04:17Z</time></trkpt><trkpt lat="49.69455096809337" lon="19.994779907585148"><ele>733.0</ele><time>2026-05-06T13:04:20.999Z</time></trkpt><trkpt lat="49.69460430552485" lon="19.99472145213716"><ele>733.0</ele><time>2026-05-06T13:04:23.999Z</time></trkpt><trkpt lat="49.69467570203949" lon="19.994585041962715"><ele>733.0</ele><time>2026-05-06T13:04:26.999Z</time></trkpt><trkpt lat="49.69475658279825" lon="19.99454276325219"><ele>733.0</ele><time>2026-05-06T13:04:27.999Z</time></trkpt><trkpt lat="49.69482160397865" lon="19.994467387348024"><ele>733.0</ele><time>2026-05-06T13:04:29.999Z</time></trkpt><trkpt lat="49.694865734177895" lon="19.99439117553997"><ele>733.0</ele><time>2026-05-06T13:04:30.999Z</time></trkpt><trkpt lat="49.694944996067946" lon="19.99430291245802"><ele>733.0</ele><time>2026-05-06T13:04:31.999Z</time></trkpt><trkpt lat="49.69498063264135" lon="19.994216049044372"><ele>733.0</ele><time>2026-05-06T13:04:32.999Z</time></trkpt><trkpt lat="49.695024254688725" lon="19.994084909730308"><ele>733.0</ele><time>2026-05-06T13:04:33.999Z</time></trkpt><trkpt lat="49.695034552301756" lon="19.993981373931856"><ele>732.2</ele><time>2026-05-06T13:04:34.999Z</time></trkpt><trkpt lat="49.695075760847644" lon="19.99383076594531"><ele>731.4</ele><time>2026-05-06T13:04:36.999Z</time></trkpt><trkpt lat="49.695133868746645" lon="19.993709044660854"><ele>730.6</ele><time>2026-05-06T13:04:38.999Z</time></trkpt><trkpt lat="49.69519384540277" lon="19.993638118516337"><ele>729.8000000000001</ele><time>2026-05-06T13:04:40.999Z</time></trkpt><trkpt lat="49.69525492892878" lon="19.993500891370896"><ele>729.0</ele><time>2026-05-06T13:04:42.999Z</time></trkpt><trkpt lat="49.69525775383587" lon="19.993313342352238"><ele>726.6</ele><time>2026-05-06T13:04:44.999Z</time></trkpt><trkpt lat="49.69529318307268" lon="19.99315354298914"><ele>724.2</ele><time>2026-05-06T13:04:46.999Z</time></trkpt><trkpt lat="49.6953163570889" lon="19.992983540635855"><ele>721.8000000000001</ele><time>2026-05-06T13:04:48.999Z</time></trkpt><trkpt lat="49.69534181930824" lon="19.992846865544596"><ele>719.4000000000001</ele><time>2026-05-06T13:04:49.999Z</time></trkpt><trkpt lat="49.69534944860781" lon="19.992706781885904"><ele>717.0</ele><time>2026-05-06T13:04:50.999Z</time></trkpt><trkpt lat="49.69535792714345" lon="19.9925813056147"><ele>716.6666666666666</ele><time>2026-05-06T13:04:51.999Z</time></trkpt><trkpt lat="49.69535587594828" lon="19.992440446050445"><ele>716.3333333333334</ele><time>2026-05-06T13:04:52.999Z</time></trkpt><trkpt lat="49.69535932618583" lon="19.992316478988762"><ele>716.0</ele><time>2026-05-06T13:04:53.999Z</time></trkpt><trkpt lat="49.69534953955349" lon="19.99217771022159"><ele>715.6666666666667</ele><time>2026-05-06T13:04:55.999Z</time></trkpt><trkpt lat="49.69534984861806" lon="19.99207654320069"><ele>715.3333333333334</ele><time>2026-05-06T13:05:01.999Z</time></trkpt><trkpt lat="49.69540276075441" lon="19.991990829696206"><ele>715.0</ele><time>2026-05-06T13:05:37Z</time></trkpt><trkpt lat="49.69544658801423" lon="19.99181343796757"><ele>715.0</ele><time>2026-05-06T13:05:39Z</time></trkpt><trkpt lat="49.69546806318202" lon="19.99163057135544"><ele>715.0</ele><time>2026-05-06T13:05:41Z</time></trkpt><trkpt lat="49.69552137834543" lon="19.991495794181404"><ele>715.0</ele><time>2026-05-06T13:05:43Z</time></trkpt><trkpt lat="49.69558758768501" lon="19.99135889876867"><ele>715.0</ele><time>2026-05-06T13:05:45Z</time></trkpt><trkpt lat="49.69562979953812" lon="19.991232665950758"><ele>715.0</ele><time>2026-05-06T13:05:46Z</time></trkpt><trkpt lat="49.695690400479016" lon="19.991085302624462"><ele>715.0</ele><time>2026-05-06T13:05:48Z</time></trkpt><trkpt lat="49.695714969681404" lon="19.990981586167756"><ele>715.0</ele><time>2026-05-06T13:05:49Z</time></trkpt><trkpt lat="49.695747357242205" lon="19.990882610265544"><ele>715.0</ele><time>2026-05-06T13:05:50Z</time></trkpt><trkpt lat="49.69578765827919" lon="19.990692443779157"><ele>715.0</ele><time>2026-05-06T13:05:52Z</time></trkpt><trkpt lat="49.69582553418622" lon="19.99059364466553"><ele>715.0</ele><time>2026-05-06T13:05:53Z</time></trkpt><trkpt lat="49.695854731017626" lon="19.990497674001404"><ele>715.0</ele><time>2026-05-06T13:05:54Z</time></trkpt><trkpt lat="49.695873965674956" lon="19.990400042339353"><ele>715.1666666666667</ele><time>2026-05-06T13:05:55Z</time></trkpt><trkpt lat="49.69590074210093" lon="19.990267716013403"><ele>715.3333333333334</ele><time>2026-05-06T13:05:57Z</time></trkpt><trkpt lat="49.69593771283801" lon="19.990147303069314"><ele>715.5</ele><time>2026-05-06T13:05:59Z</time></trkpt><trkpt lat="49.69596724341428" lon="19.99003683300385"><ele>715.6666666666666</ele><time>2026-05-06T13:06:01Z</time></trkpt><trkpt lat="49.69598077612807" lon="19.989904949425366"><ele>715.8333333333333</ele><time>2026-05-06T13:06:03Z</time></trkpt><trkpt lat="49.69601134278759" lon="19.98976083535438"><ele>716.0</ele><time>2026-05-06T13:06:05Z</time></trkpt><trkpt lat="49.69603275383851" lon="19.989613019898993"><ele>716.0</ele><time>2026-05-06T13:06:07Z</time></trkpt><trkpt lat="49.69603615456604" lon="19.989472743218798"><ele>716.0</ele><time>2026-05-06T13:06:09Z</time></trkpt><trkpt lat="49.69604452072273" lon="19.98933920842095"><ele>716.0</ele><time>2026-05-06T13:06:11Z</time></trkpt><trkpt lat="49.696063505535555" lon="19.989184236033886"><ele>716.0</ele><time>2026-05-06T13:06:13Z</time></trkpt><trkpt lat="49.69609139254666" lon="19.989018246160423"><ele>716.0</ele><time>2026-05-06T13:06:15Z</time></trkpt><trkpt lat="49.69613696333735" lon="19.98882191573365"><ele>711.4</ele><time>2026-05-06T13:06:18Z</time></trkpt><trkpt lat="49.696122331297175" lon="19.98867805136203"><ele>706.8</ele><time>2026-05-06T13:06:20Z</time></trkpt><trkpt lat="49.696122833945005" lon="19.98849899142945"><ele>702.1999999999999</ele><time>2026-05-06T13:06:21.999Z</time></trkpt><trkpt lat="49.69611753761693" lon="19.988338912109853"><ele>697.5999999999999</ele><time>2026-05-06T13:06:23.999Z</time></trkpt><trkpt lat="49.6961250746191" lon="19.988176640709238"><ele>693.0</ele><time>2026-05-06T13:06:25.999Z</time></trkpt><trkpt lat="49.69614183209012" lon="19.98807978741334"><ele>691.4</ele><time>2026-05-06T13:06:26.999Z</time></trkpt><trkpt lat="49.69618784506317" lon="19.98795281882426"><ele>689.8</ele><time>2026-05-06T13:06:28.999Z</time></trkpt><trkpt lat="49.696235778404066" lon="19.987787591392426"><ele>688.2</ele><time>2026-05-06T13:06:30.999Z</time></trkpt><trkpt lat="49.69628718397532" lon="19.987620881641988"><ele>686.6</ele><time>2026-05-06T13:06:32.999Z</time></trkpt><trkpt lat="49.696274860121974" lon="19.987465052178393"><ele>685.0</ele><time>2026-05-06T13:06:34.999Z</time></trkpt><trkpt lat="49.69624460623844" lon="19.987304699013833"><ele>682.0</ele><time>2026-05-06T13:06:36.999Z</time></trkpt><trkpt lat="49.6962268351502" lon="19.98710794781294"><ele>679.0</ele><time>2026-05-06T13:06:38.999Z</time></trkpt><trkpt lat="49.69623336643473" lon="19.98695389141072"><ele>676.0</ele><time>2026-05-06T13:06:40.999Z</time></trkpt><trkpt lat="49.69623113522427" lon="19.986852637680858"><ele>673.0</ele><time>2026-05-06T13:06:41.999Z</time></trkpt><trkpt lat="49.69621862026814" lon="19.986748409435215"><ele>670.0</ele><time>2026-05-06T13:06:42.999Z</time></trkpt><trkpt lat="49.69618090253007" lon="19.98661554791013"><ele>667.6666666666667</ele><time>2026-05-06T13:06:44.999Z</time></trkpt><trkpt lat="49.69617355978599" lon="19.98651674994915"><ele>665.3333333333334</ele><time>2026-05-06T13:06:45.999Z</time></trkpt><trkpt lat="49.69618140259181" lon="19.986382156586213"><ele>663.0</ele><time>2026-05-06T13:06:47.999Z</time></trkpt><trkpt lat="49.69624077967685" lon="19.986307910557514"><ele>660.6666666666666</ele><time>2026-05-06T13:06:51.999Z</time></trkpt><trkpt lat="49.6963271554004" lon="19.98628400242341"><ele>658.3333333333333</ele><time>2026-05-06T13:06:55.999Z</time></trkpt><trkpt lat="49.69639784377256" lon="19.986221993177956"><ele>656.0</ele><time>2026-05-06T13:07:00.999Z</time></trkpt><trkpt lat="49.69647499682475" lon="19.98619853376142"><ele>656.0</ele><time>2026-05-06T13:07:03.999Z</time></trkpt><trkpt lat="49.69655505371684" lon="19.986114556689593"><ele>656.0</ele><time>2026-05-06T13:07:06.999Z</time></trkpt><trkpt lat="49.69660907049219" lon="19.98606283866555"><ele>656.0</ele><time>2026-05-06T13:07:08.999Z</time></trkpt><trkpt lat="49.696664391490174" lon="19.986016142211774"><ele>656.0</ele><time>2026-05-06T13:07:11.999Z</time></trkpt><trkpt lat="49.69671539748661" lon="19.985953903184164"><ele>656.0</ele><time>2026-05-06T13:07:14.999Z</time></trkpt><trkpt lat="49.69675170754405" lon="19.985819807449868"><ele>656.0</ele><time>2026-05-06T13:07:17.999Z</time></trkpt><trkpt lat="49.69676438039186" lon="19.985687249517103"><ele>654.6666666666666</ele><time>2026-05-06T13:07:19.999Z</time></trkpt><trkpt lat="49.69682487842436" lon="19.9855986923486"><ele>653.3333333333333</ele><time>2026-05-06T13:07:21.999Z</time></trkpt><trkpt lat="49.69683927350545" lon="19.98547027651391"><ele>652.0</ele><time>2026-05-06T13:07:23.998Z</time></trkpt><trkpt lat="49.69687797922809" lon="19.98536547492815"><ele>650.6666666666666</ele><time>2026-05-06T13:07:25.998Z</time></trkpt><trkpt lat="49.69692003330757" lon="19.98525576790463"><ele>649.3333333333334</ele><time>2026-05-06T13:07:27.998Z</time></trkpt><trkpt lat="49.6969762336369" lon="19.985148368591226"><ele>648.0</ele><time>2026-05-06T13:07:29.998Z</time></trkpt><trkpt lat="49.69705815100007" lon="19.98504956840253"><ele>643.1666666666666</ele><time>2026-05-06T13:07:31.998Z</time></trkpt><trkpt lat="49.697156806430726" lon="19.984953925703596"><ele>638.3333333333334</ele><time>2026-05-06T13:07:33.998Z</time></trkpt><trkpt lat="49.69720165899665" lon="19.984879849388875"><ele>633.5</ele><time>2026-05-06T13:07:34.998Z</time></trkpt><trkpt lat="49.69725348312643" lon="19.984783902896464"><ele>628.6666666666667</ele><time>2026-05-06T13:07:36.998Z</time></trkpt><trkpt lat="49.69731551515828" lon="19.984737523379085"><ele>623.8333333333334</ele><time>2026-05-06T13:07:37.998Z</time></trkpt><trkpt lat="49.69741506224312" lon="19.984644393493387"><ele>619.0</ele><time>2026-05-06T13:07:39.998Z</time></trkpt><trkpt lat="49.69748567801282" lon="19.98454106289849"><ele>619.0</ele><time>2026-05-06T13:07:42Z</time></trkpt><trkpt lat="49.69752461276593" lon="19.98445442231145"><ele>619.0</ele><time>2026-05-06T13:07:43Z</time></trkpt><trkpt lat="49.69758867252384" lon="19.98427443271081"><ele>619.0</ele><time>2026-05-06T13:07:45Z</time></trkpt><trkpt lat="49.697647511932495" lon="19.98418670552524"><ele>619.0</ele><time>2026-05-06T13:07:46Z</time></trkpt><trkpt lat="49.697686330135326" lon="19.98410711235193"><ele>619.0</ele><time>2026-05-06T13:07:47Z</time></trkpt><trkpt lat="49.697718467087675" lon="19.984019001370353"><ele>619.0</ele><time>2026-05-06T13:07:48Z</time></trkpt><trkpt lat="49.69776521690076" lon="19.983935272807773"><ele>617.6666666666667</ele><time>2026-05-06T13:07:49Z</time></trkpt><trkpt lat="49.69780117420412" lon="19.983832577554445"><ele>616.3333333333334</ele><time>2026-05-06T13:07:51Z</time></trkpt><trkpt lat="49.69786321491111" lon="19.98372341967369"><ele>615.0</ele><time>2026-05-06T13:07:54Z</time></trkpt><trkpt lat="49.697882856655305" lon="19.98362364376058"><ele>613.6666666666666</ele><time>2026-05-06T13:07:55Z</time></trkpt><trkpt lat="49.697946134487026" lon="19.98350014836253"><ele>612.3333333333333</ele><time>2026-05-06T13:07:57Z</time></trkpt><trkpt lat="49.69799013191415" lon="19.983387448705425"><ele>611.0</ele><time>2026-05-06T13:07:59Z</time></trkpt><trkpt lat="49.698055121294246" lon="19.98330438802463"><ele>611.0</ele><time>2026-05-06T13:08:01Z</time></trkpt><trkpt lat="49.698150535372186" lon="19.98319607028373"><ele>611.0</ele><time>2026-05-06T13:08:04Z</time></trkpt><trkpt lat="49.698187066560756" lon="19.983061309227203"><ele>611.0</ele><time>2026-05-06T13:08:06Z</time></trkpt><trkpt lat="49.69822637208475" lon="19.9828932009091"><ele>611.0</ele><time>2026-05-06T13:08:08Z</time></trkpt><trkpt lat="49.69826506662719" lon="19.98274738200126"><ele>611.0</ele><time>2026-05-06T13:08:10Z</time></trkpt><trkpt lat="49.69832377534879" lon="19.982612022972997"><ele>610.6</ele><time>2026-05-06T13:08:12Z</time></trkpt><trkpt lat="49.69839476627724" lon="19.98250399584229"><ele>610.2</ele><time>2026-05-06T13:08:14Z</time></trkpt><trkpt lat="49.69848683110613" lon="19.982441632581438"><ele>609.8</ele><time>2026-05-06T13:08:16Z</time></trkpt><trkpt lat="49.69861243239201" lon="19.982401333466072"><ele>609.4</ele><time>2026-05-06T13:08:18Z</time></trkpt><trkpt lat="49.698674977045485" lon="19.982352250422007"><ele>609.0</ele><time>2026-05-06T13:08:20Z</time></trkpt><trkpt lat="49.698776065057366" lon="19.982323808130094"><ele>604.8</ele><time>2026-05-06T13:08:22Z</time></trkpt><trkpt lat="49.69886055861445" lon="19.982257869419218"><ele>600.5999999999999</ele><time>2026-05-06T13:08:24Z</time></trkpt><trkpt lat="49.69894939955784" lon="19.982120451307754"><ele>596.4</ele><time>2026-05-06T13:08:26.999Z</time></trkpt><trkpt lat="49.6990168020399" lon="19.982028465216047"><ele>592.1999999999999</ele><time>2026-05-06T13:08:29.999Z</time></trkpt><trkpt lat="49.69908071836275" lon="19.981955737075182"><ele>588.0</ele><time>2026-05-06T13:08:31.999Z</time></trkpt><trkpt lat="49.69915502739355" lon="19.9819097460805"><ele>588.0</ele><time>2026-05-06T13:08:33.999Z</time></trkpt><trkpt lat="49.69925333513305" lon="19.981889699826652"><ele>588.0</ele><time>2026-05-06T13:08:35.999Z</time></trkpt><trkpt lat="49.699356320278675" lon="19.981861567989156"><ele>588.0</ele><time>2026-05-06T13:08:37.999Z</time></trkpt><trkpt lat="49.6994260792858" lon="19.98189627057653"><ele>588.0</ele><time>2026-05-06T13:08:38.999Z</time></trkpt><trkpt lat="49.69949394818964" lon="19.98190506101066"><ele>588.0</ele><time>2026-05-06T13:08:40.999Z</time></trkpt><trkpt lat="49.69956350582049" lon="19.9818509944219"><ele>588.0</ele><time>2026-05-06T13:08:42.999Z</time></trkpt><trkpt lat="49.69961679820295" lon="19.981774087151503"><ele>585.0</ele><time>2026-05-06T13:08:43.999Z</time></trkpt><trkpt lat="49.69971116857669" lon="19.981712262377986"><ele>582.0</ele><time>2026-05-06T13:08:45.999Z</time></trkpt><trkpt lat="49.69977322069471" lon="19.981658004259543"><ele>579.0</ele><time>2026-05-06T13:08:46.999Z</time></trkpt><trkpt lat="49.69985698979383" lon="19.981595671264852"><ele>576.0</ele><time>2026-05-06T13:08:48.999Z</time></trkpt><trkpt lat="49.69995744011974" lon="19.981515729242727"><ele>573.0</ele><time>2026-05-06T13:08:50.999Z</time></trkpt><trkpt lat="49.70007780517859" lon="19.981455304136645"><ele>573.0</ele><time>2026-05-06T13:08:52.999Z</time></trkpt><trkpt lat="49.70013952764311" lon="19.981413287489342"><ele>573.0</ele><time>2026-05-06T13:08:53.999Z</time></trkpt><trkpt lat="49.70020288329077" lon="19.981382747529132"><ele>573.0</ele><time>2026-05-06T13:08:54.999Z</time></trkpt><trkpt lat="49.700271774548554" lon="19.981359320560127"><ele>573.0</ele><time>2026-05-06T13:08:55.999Z</time></trkpt><trkpt lat="49.70033946429928" lon="19.981336439221884"><ele>573.0</ele><time>2026-05-06T13:08:56.999Z</time></trkpt><trkpt lat="49.70040970790538" lon="19.981325593064827"><ele>573.0</ele><time>2026-05-06T13:08:57.999Z</time></trkpt><trkpt lat="49.70050916457872" lon="19.98131730538938"><ele>573.0</ele><time>2026-05-06T13:08:59.999Z</time></trkpt><trkpt lat="49.700625934496486" lon="19.981286368977973"><ele>572.0</ele><time>2026-05-06T13:09:01.999Z</time></trkpt><trkpt lat="49.700724154536545" lon="19.981261812862392"><ele>571.0</ele><time>2026-05-06T13:09:03.999Z</time></trkpt><trkpt lat="49.70082918901775" lon="19.98121669090851"><ele>570.0</ele><time>2026-05-06T13:09:05.999Z</time></trkpt><trkpt lat="49.70089858769564" lon="19.981223416066463"><ele>569.0</ele><time>2026-05-06T13:09:07.999Z</time></trkpt><trkpt lat="49.70097534192659" lon="19.981204252984607"><ele>568.0</ele><time>2026-05-06T13:09:09.999Z</time></trkpt><trkpt lat="49.701060032867865" lon="19.981159408776985"><ele>567.0</ele><time>2026-05-06T13:09:11.999Z</time></trkpt><trkpt lat="49.70112221668498" lon="19.98110358895349"><ele>566.8333333333334</ele><time>2026-05-06T13:09:13.999Z</time></trkpt><trkpt lat="49.70119059504392" lon="19.981015295601985"><ele>566.6666666666666</ele><time>2026-05-06T13:09:15.999Z</time></trkpt><trkpt lat="49.701261799963795" lon="19.980917658765847"><ele>566.5</ele><time>2026-05-06T13:09:17.999Z</time></trkpt><trkpt lat="49.701325156936335" lon="19.980881223139257"><ele>566.3333333333333</ele><time>2026-05-06T13:09:18.999Z</time></trkpt><trkpt lat="49.70139087972762" lon="19.980860617351745"><ele>566.1666666666666</ele><time>2026-05-06T13:09:19.999Z</time></trkpt><trkpt lat="49.70147992336271" lon="19.980842109546536"><ele>566.0</ele><time>2026-05-06T13:09:21.999Z</time></trkpt><trkpt lat="49.70157112157191" lon="19.980770210936047"><ele>564.6</ele><time>2026-05-06T13:09:22.999Z</time></trkpt><trkpt lat="49.70167239447898" lon="19.980715032994464"><ele>563.2</ele><time>2026-05-06T13:09:24.998Z</time></trkpt><trkpt lat="49.7017768637288" lon="19.980646700971676"><ele>561.8</ele><time>2026-05-06T13:09:26.998Z</time></trkpt><trkpt lat="49.70185815911949" lon="19.980621317672835"><ele>560.4</ele><time>2026-05-06T13:09:27.998Z</time></trkpt><trkpt lat="49.701935465302945" lon="19.98057213635459"><ele>559.0</ele><time>2026-05-06T13:09:29.998Z</time></trkpt><trkpt lat="49.702055455800476" lon="19.980532888482873"><ele>556.8333333333334</ele><time>2026-05-06T13:09:31.998Z</time></trkpt><trkpt lat="49.70211726620459" lon="19.98049860829208"><ele>554.6666666666667</ele><time>2026-05-06T13:09:32.998Z</time></trkpt><trkpt lat="49.70218918621281" lon="19.98045163149436"><ele>552.5</ele><time>2026-05-06T13:09:33.998Z</time></trkpt><trkpt lat="49.70225948601789" lon="19.980432610253956"><ele>550.3333333333334</ele><time>2026-05-06T13:09:34.998Z</time></trkpt><trkpt lat="49.70237302519902" lon="19.980398908606674"><ele>548.1666666666666</ele><time>2026-05-06T13:09:36.998Z</time></trkpt><trkpt lat="49.70245543026444" lon="19.980414975142498"><ele>546.0</ele><time>2026-05-06T13:09:38.998Z</time></trkpt><trkpt lat="49.702562707442084" lon="19.980426488199406"><ele>546.0</ele><time>2026-05-06T13:09:40.998Z</time></trkpt><trkpt lat="49.70267340740067" lon="19.980431421024857"><ele>546.0</ele><time>2026-05-06T13:09:42.998Z</time></trkpt><trkpt lat="49.70275141315531" lon="19.980459258190525"><ele>546.0</ele><time>2026-05-06T13:09:43.998Z</time></trkpt><trkpt lat="49.70286503609881" lon="19.98053534008965"><ele>546.0</ele><time>2026-05-06T13:09:45.998Z</time></trkpt><trkpt lat="49.70293668803859" lon="19.980559881636054"><ele>546.0</ele><time>2026-05-06T13:09:48Z</time></trkpt><trkpt lat="49.70301604940579" lon="19.980576656103995"><ele>543.2</ele><time>2026-05-06T13:10:23Z</time></trkpt><trkpt lat="49.70309370520291" lon="19.980618705187723"><ele>540.4000000000001</ele><time>2026-05-06T13:10:25Z</time></trkpt><trkpt lat="49.703205589046824" lon="19.980607318467964"><ele>537.6</ele><time>2026-05-06T13:10:27Z</time></trkpt><trkpt lat="49.70329414950417" lon="19.980555262314557"><ele>534.8000000000001</ele><time>2026-05-06T13:10:29Z</time></trkpt><trkpt lat="49.70339349174332" lon="19.980484767071513"><ele>532.0</ele><time>2026-05-06T13:10:30.999Z</time></trkpt><trkpt lat="49.70346050294524" lon="19.98044921572125"><ele>532.0</ele><time>2026-05-06T13:10:31.999Z</time></trkpt><trkpt lat="49.703533967812994" lon="19.980429107298857"><ele>532.0</ele><time>2026-05-06T13:10:32.999Z</time></trkpt><trkpt lat="49.703612898315995" lon="19.980429951534546"><ele>532.0</ele><time>2026-05-06T13:10:33.999Z</time></trkpt><trkpt lat="49.70368443382463" lon="19.980427350641698"><ele>532.0</ele><time>2026-05-06T13:10:34.999Z</time></trkpt><trkpt lat="49.70375535613727" lon="19.980420283244037"><ele>532.0</ele><time>2026-05-06T13:10:35.999Z</time></trkpt><trkpt lat="49.70382810473896" lon="19.98039906015585"><ele>532.0</ele><time>2026-05-06T13:10:36.999Z</time></trkpt><trkpt lat="49.703911052009396" lon="19.980371687254582"><ele>531.1428571428571</ele><time>2026-05-06T13:10:37.999Z</time></trkpt><trkpt lat="49.70398771253986" lon="19.980350283316252"><ele>530.2857142857142</ele><time>2026-05-06T13:10:38.999Z</time></trkpt><trkpt lat="49.70406019053495" lon="19.980317829918008"><ele>529.4285714285714</ele><time>2026-05-06T13:10:39.999Z</time></trkpt><trkpt lat="49.70412607935822" lon="19.980263466705576"><ele>528.5714285714286</ele><time>2026-05-06T13:10:40.999Z</time></trkpt><trkpt lat="49.70419029284073" lon="19.98021934324413"><ele>527.7142857142857</ele><time>2026-05-06T13:10:41.999Z</time></trkpt><trkpt lat="49.70425165290956" lon="19.980172073115092"><ele>526.8571428571429</ele><time>2026-05-06T13:10:42.999Z</time></trkpt><trkpt lat="49.70431017597711" lon="19.98011715925895"><ele>526.0</ele><time>2026-05-06T13:10:43.999Z</time></trkpt><trkpt lat="49.70439539754366" lon="19.980018798485293"><ele>524.0</ele><time>2026-05-06T13:10:45.999Z</time></trkpt><trkpt lat="49.7044562294952" lon="19.979960900810237"><ele>522.0</ele><time>2026-05-06T13:10:47.999Z</time></trkpt><trkpt lat="49.70454838765513" lon="19.97990067345486"><ele>520.0</ele><time>2026-05-06T13:10:49.999Z</time></trkpt><trkpt lat="49.70465601897314" lon="19.979894109629267"><ele>518.0</ele><time>2026-05-06T13:10:51.999Z</time></trkpt><trkpt lat="49.704750397547485" lon="19.979864629491104"><ele>516.0</ele><time>2026-05-06T13:10:53.999Z</time></trkpt><trkpt lat="49.704834933698834" lon="19.97982175412123"><ele>516.0</ele><time>2026-05-06T13:10:55.999Z</time></trkpt><trkpt lat="49.70492914400245" lon="19.97974188630611"><ele>516.0</ele><time>2026-05-06T13:10:57.999Z</time></trkpt><trkpt lat="49.70498773006271" lon="19.979704700545952"><ele>516.0</ele><time>2026-05-06T13:10:58.999Z</time></trkpt><trkpt lat="49.70510159825744" lon="19.979673073590327"><ele>516.0</ele><time>2026-05-06T13:11:00.999Z</time></trkpt><trkpt lat="49.70516484759892" lon="19.97965966109571"><ele>516.0</ele><time>2026-05-06T13:11:01.999Z</time></trkpt><trkpt lat="49.70522816411782" lon="19.97964530303714"><ele>516.0</ele><time>2026-05-06T13:11:02.999Z</time></trkpt><trkpt lat="49.70529349185185" lon="19.97961581839424"><ele>513.8</ele><time>2026-05-06T13:11:03.999Z</time></trkpt><trkpt lat="49.705353418019534" lon="19.97957831460588"><ele>511.6</ele><time>2026-05-06T13:11:04.999Z</time></trkpt><trkpt lat="49.70544964287461" lon="19.97950081103671"><ele>509.4</ele><time>2026-05-06T13:11:06.999Z</time></trkpt><trkpt lat="49.70555674957167" lon="19.979424924409408"><ele>507.2</ele><time>2026-05-06T13:11:08.999Z</time></trkpt><trkpt lat="49.70561601718502" lon="19.979391187889664"><ele>505.0</ele><time>2026-05-06T13:11:09.999Z</time></trkpt><trkpt lat="49.70572301888322" lon="19.97933164846407"><ele>505.0</ele><time>2026-05-06T13:11:11.999Z</time></trkpt><trkpt lat="49.70583012481104" lon="19.97924618477978"><ele>505.0</ele><time>2026-05-06T13:11:13.999Z</time></trkpt><trkpt lat="49.705927548732035" lon="19.979182125502447"><ele>505.0</ele><time>2026-05-06T13:11:15.999Z</time></trkpt><trkpt lat="49.70602270452479" lon="19.979139666687455"><ele>505.0</ele><time>2026-05-06T13:11:17.999Z</time></trkpt><trkpt lat="49.70612001756504" lon="19.979122166192845"><ele>505.0</ele><time>2026-05-06T13:11:19.999Z</time></trkpt><trkpt lat="49.7062270976396" lon="19.979202789174103"><ele>502.6</ele><time>2026-05-06T13:11:21.999Z</time></trkpt><trkpt lat="49.706336870332294" lon="19.979295972080163"><ele>500.2</ele><time>2026-05-06T13:11:23.999Z</time></trkpt><trkpt lat="49.706400045298665" lon="19.97932996520432"><ele>497.79999999999995</ele><time>2026-05-06T13:11:24.999Z</time></trkpt><trkpt lat="49.70652073327172" lon="19.9793398640512"><ele>495.4</ele><time>2026-05-06T13:11:26.999Z</time></trkpt><trkpt lat="49.706622935920116" lon="19.97933269253999"><ele>493.0</ele><time>2026-05-06T13:11:28.999Z</time></trkpt><trkpt lat="49.70668276229818" lon="19.979369767646837"><ele>493.00000000000006</ele><time>2026-05-06T13:11:30.998Z</time></trkpt><trkpt lat="49.7067549274604" lon="19.97934654471519"><ele>493.0</ele><time>2026-05-06T13:11:32.998Z</time></trkpt><trkpt lat="49.70683590259238" lon="19.979385549405055"><ele>493.0</ele><time>2026-05-06T13:11:34.998Z</time></trkpt><trkpt lat="49.706914127938674" lon="19.979481116690046"><ele>493.0</ele><time>2026-05-06T13:11:36.998Z</time></trkpt><trkpt lat="49.70702866965979" lon="19.979515719675234"><ele>493.00000000000006</ele><time>2026-05-06T13:11:38.998Z</time></trkpt><trkpt lat="49.7070916598117" lon="19.97949207353192"><ele>493.0</ele><time>2026-05-06T13:11:39.998Z</time></trkpt><trkpt lat="49.707186095021" lon="19.979460594388073"><ele>490.79999999999995</ele><time>2026-05-06T13:11:41.998Z</time></trkpt><trkpt lat="49.70728433837166" lon="19.979490036690535"><ele>488.59999999999997</ele><time>2026-05-06T13:11:43.998Z</time></trkpt><trkpt lat="49.707370969505945" lon="19.979559613777642"><ele>486.40000000000003</ele><time>2026-05-06T13:11:45.998Z</time></trkpt><trkpt lat="49.707470757659884" lon="19.9796326169323"><ele>484.20000000000005</ele><time>2026-05-06T13:11:47.998Z</time></trkpt><trkpt lat="49.70755697410836" lon="19.979711578582744"><ele>482.0</ele><time>2026-05-06T13:11:49.998Z</time></trkpt><trkpt lat="49.70763526460281" lon="19.979805943169772"><ele>482.0</ele><time>2026-05-06T13:11:51.998Z</time></trkpt><trkpt lat="49.70771391785763" lon="19.979891423858504"><ele>482.00000000000006</ele><time>2026-05-06T13:11:54Z</time></trkpt><trkpt lat="49.70779392342133" lon="19.97997994386128"><ele>482.00000000000006</ele><time>2026-05-06T13:11:56Z</time></trkpt><trkpt lat="49.70787284098922" lon="19.98004868103451"><ele>482.0</ele><time>2026-05-06T13:11:58Z</time></trkpt><trkpt lat="49.70794444834296" lon="19.980084321435715"><ele>482.0</ele><time>2026-05-06T13:12:00Z</time></trkpt><trkpt lat="49.708032487447184" lon="19.980050578711325"><ele>480.16666666666663</ele><time>2026-05-06T13:12:03Z</time></trkpt><trkpt lat="49.70807841371414" lon="19.979937797630825"><ele>478.3333333333333</ele><time>2026-05-06T13:12:05Z</time></trkpt><trkpt lat="49.70811601216816" lon="19.979840319611927"><ele>476.5</ele><time>2026-05-06T13:12:11Z</time></trkpt><trkpt lat="49.70814535459241" lon="19.979743849284038"><ele>474.66666666666663</ele><time>2026-05-06T13:12:13Z</time></trkpt><trkpt lat="49.70817653408769" lon="19.979653411303232"><ele>472.8333333333333</ele><time>2026-05-06T13:12:15Z</time></trkpt><trkpt lat="49.708244159880415" lon="19.979545238368726"><ele>471.0</ele><time>2026-05-06T13:12:17Z</time></trkpt><trkpt lat="49.70827364857241" lon="19.97942555777425"><ele>471.0</ele><time>2026-05-06T13:12:19Z</time></trkpt><trkpt lat="49.70831128072412" lon="19.979326597888356"><ele>471.0</ele><time>2026-05-06T13:12:21Z</time></trkpt><trkpt lat="49.7083407540776" lon="19.979232930253588"><ele>471.0</ele><time>2026-05-06T13:12:23Z</time></trkpt><trkpt lat="49.70838674941779" lon="19.97913824619059"><ele>471.0</ele><time>2026-05-06T13:12:25Z</time></trkpt><trkpt lat="49.70842883849201" lon="19.979051842831034"><ele>471.0</ele><time>2026-05-06T13:12:27Z</time></trkpt><trkpt lat="49.708473589002" lon="19.978934376445206"><ele>471.0</ele><time>2026-05-06T13:12:29Z</time></trkpt><trkpt lat="49.708518538098424" lon="19.978796103784678"><ele>469.6</ele><time>2026-05-06T13:12:31Z</time></trkpt><trkpt lat="49.70856214048544" lon="19.978657911899887"><ele>468.20000000000005</ele><time>2026-05-06T13:12:33Z</time></trkpt><trkpt lat="49.708604450224556" lon="19.978531094742557"><ele>466.79999999999995</ele><time>2026-05-06T13:12:35Z</time></trkpt><trkpt lat="49.70864672679225" lon="19.97841650826687"><ele>465.4</ele><time>2026-05-06T13:12:36.999Z</time></trkpt><trkpt lat="49.70869703357596" lon="19.978308766386597"><ele>464.0</ele><time>2026-05-06T13:12:38.999Z</time></trkpt><trkpt lat="49.70876225358186" lon="19.97816633779658"><ele>459.2</ele><time>2026-05-06T13:12:41.999Z</time></trkpt><trkpt lat="49.70880466866553" lon="19.9780483510974"><ele>454.4</ele><time>2026-05-06T13:12:43.999Z</time></trkpt><trkpt lat="49.70884755110191" lon="19.977917690373953"><ele>449.6</ele><time>2026-05-06T13:12:45.999Z</time></trkpt><trkpt lat="49.708873870825144" lon="19.977804798121216"><ele>444.8</ele><time>2026-05-06T13:12:47.999Z</time></trkpt><trkpt lat="49.70891962255182" lon="19.977717377524943"><ele>440.0</ele><time>2026-05-06T13:12:48.999Z</time></trkpt><trkpt lat="49.708983033559065" lon="19.97756457367447"><ele>437.6</ele><time>2026-05-06T13:12:50.999Z</time></trkpt><trkpt lat="49.709051668451785" lon="19.977433118346998"><ele>435.2</ele><time>2026-05-06T13:12:52.999Z</time></trkpt><trkpt lat="49.709118822315396" lon="19.977295000245917"><ele>432.79999999999995</ele><time>2026-05-06T13:12:54.999Z</time></trkpt><trkpt lat="49.70918158540419" lon="19.977160641207565"><ele>430.4</ele><time>2026-05-06T13:12:56.999Z</time></trkpt><trkpt lat="49.70920775368579" lon="19.977013678033487"><ele>428.0</ele><time>2026-05-06T13:12:58.999Z</time></trkpt><trkpt lat="49.709239272962996" lon="19.976847645624975"><ele>428.0</ele><time>2026-05-06T13:13:00.999Z</time></trkpt><trkpt lat="49.709296293758364" lon="19.976695541627834"><ele>427.99999999999994</ele><time>2026-05-06T13:13:02.999Z</time></trkpt><trkpt lat="49.70933177784901" lon="19.97656506565555"><ele>427.99999999999994</ele><time>2026-05-06T13:13:04.999Z</time></trkpt><trkpt lat="49.70937605497482" lon="19.976471926409356"><ele>428.0</ele><time>2026-05-06T13:13:06.999Z</time></trkpt><trkpt lat="49.70946811075437" lon="19.976380695242472"><ele>428.0</ele><time>2026-05-06T13:13:08.999Z</time></trkpt><trkpt lat="49.70955381101159" lon="19.976278374867476"><ele>423.8333333333333</ele><time>2026-05-06T13:13:10.999Z</time></trkpt><trkpt lat="49.709618622124" lon="19.97624710139016"><ele>419.66666666666663</ele><time>2026-05-06T13:13:11.999Z</time></trkpt><trkpt lat="49.7097016944334" lon="19.976176423926322"><ele>415.5</ele><time>2026-05-06T13:13:13.999Z</time></trkpt><trkpt lat="49.709793785191785" lon="19.976104751385563"><ele>411.33333333333337</ele><time>2026-05-06T13:13:15.999Z</time></trkpt><trkpt lat="49.70986646565026" lon="19.976021699896265"><ele>407.1666666666667</ele><time>2026-05-06T13:13:17.999Z</time></trkpt><trkpt lat="49.70994250232145" lon="19.97593969916227"><ele>403.0</ele><time>2026-05-06T13:13:19.999Z</time></trkpt><trkpt lat="49.710001775223475" lon="19.975848561292576"><ele>401.83333333333337</ele><time>2026-05-06T13:13:21.999Z</time></trkpt><trkpt lat="49.71005542200893" lon="19.975775287579868"><ele>400.6666666666667</ele><time>2026-05-06T13:13:23.999Z</time></trkpt><trkpt lat="49.71009978537223" lon="19.97567958792032"><ele>399.5</ele><time>2026-05-06T13:13:25.999Z</time></trkpt><trkpt lat="49.71013772958483" lon="19.97557810523023"><ele>398.33333333333337</ele><time>2026-05-06T13:13:27.999Z</time></trkpt><trkpt lat="49.7101791058934" lon="19.975457162449267"><ele>397.1666666666667</ele><time>2026-05-06T13:13:29.999Z</time></trkpt><trkpt lat="49.710219685480006" lon="19.975379953989346"><ele>396.0</ele><time>2026-05-06T13:13:30.999Z</time></trkpt><trkpt lat="49.71030491514418" lon="19.975273404252192"><ele>394.3333333333333</ele><time>2026-05-06T13:13:32.999Z</time></trkpt><trkpt lat="49.71041587196302" lon="19.975279192276766"><ele>392.66666666666663</ele><time>2026-05-06T13:13:34.999Z</time></trkpt><trkpt lat="49.71047914836994" lon="19.975313356895807"><ele>391.0</ele><time>2026-05-06T13:13:35.998Z</time></trkpt><trkpt lat="49.71053961775966" lon="19.975360354362778"><ele>389.3333333333333</ele><time>2026-05-06T13:13:36.998Z</time></trkpt><trkpt lat="49.71060630857386" lon="19.975412133669792"><ele>387.66666666666663</ele><time>2026-05-06T13:13:37.998Z</time></trkpt><trkpt lat="49.71067028114015" lon="19.975453695792105"><ele>386.0</ele><time>2026-05-06T13:13:38.998Z</time></trkpt><trkpt lat="49.71073974399759" lon="19.97548621518409"><ele>385.99999999999994</ele><time>2026-05-06T13:13:39.998Z</time></trkpt><trkpt lat="49.71080973343964" lon="19.975528458710276"><ele>386.0</ele><time>2026-05-06T13:13:40.998Z</time></trkpt><trkpt lat="49.71088256542143" lon="19.97557194733859"><ele>386.0</ele><time>2026-05-06T13:13:41.998Z</time></trkpt><trkpt lat="49.710948287802815" lon="19.9756278257057"><ele>386.0</ele><time>2026-05-06T13:13:42.998Z</time></trkpt><trkpt lat="49.71102553900449" lon="19.9756822773763"><ele>385.99999999999994</ele><time>2026-05-06T13:13:43.998Z</time></trkpt><trkpt lat="49.711101737796426" lon="19.975730854055683"><ele>386.0</ele><time>2026-05-06T13:13:44.998Z</time></trkpt><trkpt lat="49.71117874445456" lon="19.975795017175365"><ele>385.8333333333333</ele><time>2026-05-06T13:13:45.998Z</time></trkpt><trkpt lat="49.711259261112474" lon="19.97585466339145"><ele>385.66666666666663</ele><time>2026-05-06T13:13:46.998Z</time></trkpt><trkpt lat="49.7113340214549" lon="19.97593268626732"><ele>385.5</ele><time>2026-05-06T13:13:47.998Z</time></trkpt><trkpt lat="49.71141172006829" lon="19.975998329585614"><ele>385.33333333333337</ele><time>2026-05-06T13:13:48.998Z</time></trkpt><trkpt lat="49.71148135810008" lon="19.976080444344863"><ele>385.1666666666667</ele><time>2026-05-06T13:13:49.998Z</time></trkpt><trkpt lat="49.71155481225651" lon="19.976158815602275"><ele>385.0</ele><time>2026-05-06T13:13:50.998Z</time></trkpt><trkpt lat="49.71162411294333" lon="19.97624117282454"><ele>385.0</ele><time>2026-05-06T13:13:51.998Z</time></trkpt><trkpt lat="49.711696503457624" lon="19.97632724741798"><ele>385.0</ele><time>2026-05-06T13:13:52.998Z</time></trkpt><trkpt lat="49.71176933473228" lon="19.976416594618584"><ele>385.0</ele><time>2026-05-06T13:13:53.998Z</time></trkpt><trkpt lat="49.71184197135063" lon="19.97650492648012"><ele>385.0</ele><time>2026-05-06T13:13:54.998Z</time></trkpt><trkpt lat="49.71191855310392" lon="19.97660133785166"><ele>385.0</ele><time>2026-05-06T13:13:55.998Z</time></trkpt><trkpt lat="49.71199359999832" lon="19.976701667872828"><ele>384.2</ele><time>2026-05-06T13:13:56.998Z</time></trkpt><trkpt lat="49.71207384099469" lon="19.97681147647951"><ele>383.4</ele><time>2026-05-06T13:13:57.998Z</time></trkpt><trkpt lat="49.712152013701036" lon="19.9769148580421"><ele>382.6</ele><time>2026-05-06T13:13:59Z</time></trkpt><trkpt lat="49.712222208201226" lon="19.97702568688282"><ele>381.8</ele><time>2026-05-06T13:14:00Z</time></trkpt><trkpt lat="49.712275360251134" lon="19.97714149517102"><ele>381.0</ele><time>2026-05-06T13:14:01Z</time></trkpt><trkpt lat="49.712328435097604" lon="19.977246505935863"><ele>381.0</ele><time>2026-05-06T13:14:02Z</time></trkpt><trkpt lat="49.71238009762353" lon="19.977360159646633"><ele>381.0</ele><time>2026-05-06T13:14:03Z</time></trkpt><trkpt lat="49.712440728342486" lon="19.977474296762665"><ele>381.0</ele><time>2026-05-06T13:14:04Z</time></trkpt><trkpt lat="49.7125001409792" lon="19.977588174173288"><ele>381.0</ele><time>2026-05-06T13:14:05Z</time></trkpt><trkpt lat="49.71256152125568" lon="19.9777005986997"><ele>381.0</ele><time>2026-05-06T13:14:06Z</time></trkpt><trkpt lat="49.712618803154726" lon="19.97780578498152"><ele>381.0</ele><time>2026-05-06T13:14:07Z</time></trkpt><trkpt lat="49.712664523427925" lon="19.977909351827826"><ele>381.0</ele><time>2026-05-06T13:14:08Z</time></trkpt><trkpt lat="49.712706190325214" lon="19.978019652202146"><ele>381.0</ele><time>2026-05-06T13:14:09Z</time></trkpt><trkpt lat="49.71274433527326" lon="19.97811271591436"><ele>381.0</ele><time>2026-05-06T13:14:10Z</time></trkpt><trkpt lat="49.71278022866102" lon="19.978203969169765"><ele>381.0</ele><time>2026-05-06T13:14:11Z</time></trkpt><trkpt lat="49.71285303252605" lon="19.978332956987757"><ele>381.0</ele><time>2026-05-06T13:14:13Z</time></trkpt><trkpt lat="49.71292014522107" lon="19.97844640795496"><ele>381.0</ele><time>2026-05-06T13:14:15Z</time></trkpt><trkpt lat="49.71286825506825" lon="19.97856149683068"><ele>381.0</ele><time>2026-05-06T13:20:44Z</time></trkpt></trkseg></trk></gpx>